Darstellungsparameter: Aktuell verwendete Einstellungen:
Skalierung der Graphiken ... ?
xyx+y,   Skalierungsfaktor:      Skalierung: Modus: x, Faktor: 1
Darstellungszeitraum ... ?
Vom - - bis: - -   Zeitraum: 14.02.2019 - 13.08.2019
Min/Max/Avg-Anzeige ... ?
Zeige MMA aktuell
Zeige MMA Monat
Zeige MMA alles
Zeige --A aktuell
Zeige --A Monat
Zeige --A alles
Keine MMA-Anzeige
MMA:
Minimum Maximum Average (ber die Originaldaten)
MMA-Basis: 14.02.2019 - 13.08.2019
Quicknavigation für Darstellung... ?
Tage:      1T, 2T, 3T, 5T -1T -2T -3T -5T +1T +2T +3T +5T
Wochen: 1W, 2W, 3W -1W -2W -3W +1W +2W +3W
Monate: 1M, 3M, 6M -1M -3M -6M +1M +3M +6M
Jahre:    1J, 3J, 5J, 10J -1J -3J -5J -10J +1J +3J +5J +10J
Nutze für die Darstellung ... ?
Originaldaten oder ...
Mittelwerte Minima Maxima auf...
Stundenbasis Tagesbasis Wochenbasis
Monatsbasis Jahresbasis      Datenbasis: Mittelwerte auf Stundenbasis
Darstellen als:
Statistik (Auto) Statistik J:M      Darstellung:
Zur Graphik,    zurück zur Übersicht aller Sensoren.
 
Tabellarische Datenbersicht: ?
 
Sensor: Nr:Datum:Temp:Feuchte:Taupunkt:
Aussen-T/F 1 14-02-2019 00:00:00 -0.71667 C 93.2500 % -1.67 C
2 14-02-2019 01:00:00 -1.05833 C 93.9167 % -1.91 C
3 14-02-2019 02:00:00 -1.1 C 94.2500 % -1.9 C
4 14-02-2019 03:00:00 -1.53333 C 94.0833 % -2.36 C
5 14-02-2019 04:00:00 -1.775 C 94.8333 % -2.49 C
6 14-02-2019 05:00:00 -1.96667 C 95.0000 % -2.66 C
7 14-02-2019 06:00:00 -2.45 C 95.0000 % -3.14 C
8 14-02-2019 07:00:00 -2.65 C 95.1667 % -3.31 C
9 14-02-2019 08:00:00 -2.43333 C 95.5833 % -3.04 C
10 14-02-2019 09:00:00 -2.08333 C 96.0000 % -2.63 C
11 14-02-2019 10:00:00 -1.69167 C 96.0000 % -2.24 C
12 14-02-2019 11:00:00 -0.9 C 96.4167 % -1.4 C
13 14-02-2019 12:00:00 0.675 C 97.0000 % 0.25 C
14 14-02-2019 13:00:00 2.75833 C 96.9167 % 2.32 C
15 14-02-2019 14:00:00 4.65833 C 94.5000 % 3.85 C
16 14-02-2019 15:00:00 6.48333 C 90.3333 % 5.02 C
17 14-02-2019 16:00:00 6.08333 C 88.0833 % 4.26 C
18 14-02-2019 17:00:00 5.625 C 87.8333 % 3.77 C
19 14-02-2019 18:00:00 4.58333 C 86.5833 % 2.54 C
20 14-02-2019 19:00:00 3.30833 C 85.2500 % 1.07 C
21 14-02-2019 20:00:00 2.78333 C 86.9167 % 0.83 C
22 14-02-2019 21:00:00 1.55 C 89.4167 % 0 C
23 14-02-2019 22:00:00 0.49167 C 91.1667 % -0.78 C
24 14-02-2019 23:00:00 -0.05833 C 92.9167 % -1.06 C
25 15-02-2019 00:00:00 -0.55 C 93.7500 % -1.43 C
Sensor: Nr:Datum:Temp:Feuchte:Taupunkt:
Aussen-T/F 26 15-02-2019 01:00:00 -0.93333 C 94.2500 % -1.74 C
27 15-02-2019 02:00:00 -1.15 C 94.8333 % -1.87 C
28 15-02-2019 03:00:00 -1.40833 C 95.0000 % -2.1 C
29 15-02-2019 04:00:00 -1.50833 C 95.0000 % -2.2 C
30 15-02-2019 05:00:00 -1.88333 C 95.0000 % -2.58 C
31 15-02-2019 06:00:00 -2.075 C 95.1667 % -2.74 C
32 15-02-2019 07:00:00 -2.4 C 95.0000 % -3.09 C
33 15-02-2019 08:00:00 -2.2 C 96.0000 % -2.75 C
34 15-02-2019 09:00:00 -1.69167 C 96.0000 % -2.24 C
35 15-02-2019 10:00:00 -0.7 C 96.1667 % -1.23 C
36 15-02-2019 11:00:00 1.26667 C 97.0000 % 0.84 C
37 15-02-2019 12:00:00 3.41667 C 96.6667 % 2.94 C
38 15-02-2019 13:00:00 5.93333 C 91.5833 % 4.67 C
39 15-02-2019 14:00:00 8.25833 C 82.6667 % 5.49 C
40 15-02-2019 15:00:00 9.58333 C 77.4167 % 5.83 C
41 15-02-2019 16:00:00 10.65833 C 68.9167 % 5.2 C
42 15-02-2019 17:00:00 9.35833 C 71.6667 % 4.51 C
43 15-02-2019 18:00:00 7.275 C 76.0000 % 3.33 C
44 15-02-2019 19:00:00 6.16667 C 79.7500 % 2.94 C
45 15-02-2019 20:00:00 4.46667 C 84.5000 % 2.09 C
46 15-02-2019 21:00:00 3.15833 C 88.2500 % 1.41 C
47 15-02-2019 22:00:00 1.85 C 90.3333 % 0.44 C
48 15-02-2019 23:00:00 1.23333 C 92.0833 % 0.09 C
49 16-02-2019 00:00:00 0.41667 C 92.8333 % -0.6 C
50 16-02-2019 01:00:00 -0.15 C 93.8333 % -1.02 C
Sensor: Nr:Datum:Temp:Feuchte:Taupunkt:
Aussen-T/F 51 16-02-2019 02:00:00 -0.48333 C 94.4167 % -1.27 C
52 16-02-2019 03:00:00 -0.75833 C 94.7500 % -1.49 C
53 16-02-2019 04:00:00 -0.925 C 95.0000 % -1.62 C
54 16-02-2019 05:00:00 -1.11667 C 95.3333 % -1.77 C
55 16-02-2019 06:00:00 -1.20833 C 95.4167 % -1.85 C
56 16-02-2019 07:00:00 -1.64167 C 95.0000 % -2.34 C
57 16-02-2019 08:00:00 -1.78333 C 95.5000 % -2.41 C
58 16-02-2019 09:00:00 -1.09167 C 96.0000 % -1.65 C
59 16-02-2019 10:00:00 -0.225 C 96.4167 % -0.72 C
60 16-02-2019 11:00:00 2.175 C 97.0000 % 1.75 C
61 16-02-2019 12:00:00 4.96667 C 96.9167 % 4.52 C
62 16-02-2019 13:00:00 7.85833 C 90.0000 % 6.32 C
63 16-02-2019 14:00:00 10.66667 C 77.0833 % 6.82 C
64 16-02-2019 15:00:00 11.75833 C 69.8333 % 6.44 C
65 16-02-2019 16:00:00 11.88333 C 67.2500 % 6.01 C
66 16-02-2019 17:00:00 10.69167 C 70.0000 % 5.45 C
67 16-02-2019 18:00:00 8.74167 C 76.4167 % 4.83 C
68 16-02-2019 19:00:00 7.29167 C 81.0833 % 4.27 C
69 16-02-2019 20:00:00 5.41667 C 84.2500 % 2.98 C
70 16-02-2019 21:00:00 3.75833 C 88.5833 % 2.05 C
71 16-02-2019 22:00:00 2.8 C 91.2500 % 1.52 C
72 16-02-2019 23:00:00 1.95833 C 93.0000 % 0.95 C
73 17-02-2019 00:00:00 1.55 C 94.0000 % 0.69 C
74 17-02-2019 01:00:00 0.86667 C 94.3333 % 0.06 C
75 17-02-2019 02:00:00 0.34167 C 95.0000 % -0.36 C
Sensor: Nr:Datum:Temp:Feuchte:Taupunkt:
Aussen-T/F 76 17-02-2019 03:00:00 0.09167 C 95.3333 % -0.56 C
77 17-02-2019 04:00:00 -0.36667 C 95.3333 % -1.02 C
78 17-02-2019 05:00:00 -0.85833 C 95.5833 % -1.47 C
79 17-02-2019 06:00:00 -0.975 C 96.0000 % -1.53 C
80 17-02-2019 07:00:00 -1.25 C 96.0000 % -1.8 C
81 17-02-2019 08:00:00 -1.33333 C 96.0000 % -1.89 C
82 17-02-2019 09:00:00 -0.81667 C 96.0000 % -1.37 C
83 17-02-2019 10:00:00 -0.16667 C 96.6667 % -0.63 C
84 17-02-2019 11:00:00 1.93333 C 97.0000 % 1.51 C
85 17-02-2019 12:00:00 4.73333 C 97.4167 % 4.36 C
86 17-02-2019 13:00:00 7.51667 C 96.5833 % 7.01 C
87 17-02-2019 14:00:00 9.76667 C 86.2500 % 7.58 C
88 17-02-2019 15:00:00 11.19167 C 77.2500 % 7.36 C
89 17-02-2019 16:00:00 11.94167 C 71.1667 % 6.89 C
90 17-02-2019 17:00:00 11 C 72.5000 % 6.25 C
91 17-02-2019 18:00:00 8.59167 C 76.3333 % 4.67 C
92 17-02-2019 19:00:00 6.73333 C 80.1667 % 3.56 C
93 17-02-2019 20:00:00 4.69167 C 84.5833 % 2.32 C
94 17-02-2019 21:00:00 3.65 C 87.4167 % 1.76 C
95 17-02-2019 22:00:00 2.375 C 89.5833 % 0.84 C
96 17-02-2019 23:00:00 1.7 C 91.6667 % 0.49 C
97 18-02-2019 00:00:00 1.46667 C 91.6667 % 0.26 C
98 18-02-2019 01:00:00 0.49167 C 92.5833 % -0.57 C
99 18-02-2019 02:00:00 0.08333 C 93.7500 % -0.8 C
100 18-02-2019 03:00:00 -0.41667 C 94.0833 % -1.25 C
Sensor: Nr:Datum:Temp:Feuchte:Taupunkt:
Aussen-T/F 101 18-02-2019 04:00:00 -0.775 C 94.5833 % -1.53 C
102 18-02-2019 05:00:00 -1.21667 C 95.0000 % -1.91 C
103 18-02-2019 06:00:00 -1.475 C 95.0000 % -2.17 C
104 18-02-2019 07:00:00 -1.65 C 95.0833 % -2.33 C
105 18-02-2019 08:00:00 -1.63333 C 95.4167 % -2.27 C
106 18-02-2019 09:00:00 -0.56667 C 96.0000 % -1.12 C
107 18-02-2019 10:00:00 0.19167 C 96.1667 % -0.35 C
108 18-02-2019 11:00:00 2.84167 C 96.6667 % 2.37 C
109 18-02-2019 12:00:00 6.04167 C 92.9167 % 4.98 C
110 18-02-2019 13:00:00 9.59167 C 80.4167 % 6.39 C
111 18-02-2019 14:00:00 11.34167 C 72.0000 % 6.48 C
112 18-02-2019 15:00:00 12.05833 C 66.9167 % 6.11 C
113 18-02-2019 16:00:00 11.84167 C 64.5833 % 5.39 C
114 18-02-2019 17:00:00 10.425 C 69.5833 % 5.11 C
115 18-02-2019 18:00:00 8.41667 C 74.7500 % 4.2 C
116 18-02-2019 19:00:00 7 C 80.0000 % 3.79 C
117 18-02-2019 20:00:00 5.65833 C 81.3333 % 2.72 C
118 18-02-2019 21:00:00 4.1 C 86.0000 % 1.97 C
119 18-02-2019 22:00:00 2.76667 C 88.7500 % 1.1 C
120 18-02-2019 23:00:00 2.13333 C 90.8333 % 0.8 C
121 19-02-2019 00:00:00 1.725 C 92.0833 % 0.58 C
122 19-02-2019 01:00:00 1.83333 C 92.8333 % 0.8 C
123 19-02-2019 02:00:00 1.85 C 93.2500 % 0.88 C
124 19-02-2019 03:00:00 2.34167 C 94.5000 % 1.55 C
125 19-02-2019 04:00:00 3.7 C 94.0833 % 2.84 C
Sensor: Nr:Datum:Temp:Feuchte:Taupunkt:
Aussen-T/F 126 19-02-2019 05:00:00 4.04167 C 90.8333 % 2.68 C
127 19-02-2019 06:00:00 4.99167 C 87.7500 % 3.13 C
128 19-02-2019 07:00:00 5.2 C 90.1667 % 3.72 C
129 19-02-2019 08:00:00 4.89167 C 92.9167 % 3.84 C
130 19-02-2019 09:00:00 5.25 C 94.8333 % 4.49 C
131 19-02-2019 10:00:00 6.34167 C 94.2500 % 5.49 C
132 19-02-2019 11:00:00 7.28333 C 92.6667 % 6.18 C
133 19-02-2019 12:00:00 8.71667 C 87.9167 % 6.83 C
134 19-02-2019 13:00:00 9.94167 C 80.0833 % 6.67 C
135 19-02-2019 14:00:00 10.65 C 74.5000 % 6.31 C
136 19-02-2019 15:00:00 10.94167 C 72.5000 % 6.2 C
137 19-02-2019 16:00:00 10.9 C 72.1667 % 6.09 C
138 19-02-2019 17:00:00 9.69167 C 74.5833 % 5.4 C
139 19-02-2019 18:00:00 7.28333 C 83.0833 % 4.61 C
140 19-02-2019 19:00:00 6.225 C 87.0833 % 4.24 C
141 19-02-2019 20:00:00 5.44167 C 89.2500 % 3.82 C
142 19-02-2019 21:00:00 4.85 C 89.6667 % 3.3 C
143 19-02-2019 22:00:00 3.46667 C 91.3333 % 2.19 C
144 19-02-2019 23:00:00 3.05 C 92.7500 % 1.99 C
145 20-02-2019 00:00:00 2.6 C 93.2500 % 1.62 C
146 20-02-2019 01:00:00 1.78333 C 93.3333 % 0.82 C
147 20-02-2019 02:00:00 1.19167 C 94.2500 % 0.37 C
148 20-02-2019 03:00:00 1.1 C 94.9167 % 0.38 C
149 20-02-2019 04:00:00 0.875 C 95.0000 % 0.17 C
150 20-02-2019 05:00:00 1 C 95.5000 % 0.36 C
Sensor: Nr:Datum:Temp:Feuchte:Taupunkt:
Aussen-T/F 151 20-02-2019 06:00:00 0.86667 C 95.6667 % 0.26 C
152 20-02-2019 07:00:00 0.73333 C 96.0000 % 0.17 C
153 20-02-2019 08:00:00 1.30833 C 96.3333 % 0.79 C
154 20-02-2019 09:00:00 3.09167 C 96.6667 % 2.61 C
155 20-02-2019 10:00:00 4.40833 C 95.6667 % 3.78 C
156 20-02-2019 11:00:00 6.075 C 92.1667 % 4.9 C
157 20-02-2019 12:00:00 7.49167 C 88.0000 % 5.64 C
158 20-02-2019 13:00:00 9.86667 C 78.2500 % 6.26 C
159 20-02-2019 14:00:00 10.85833 C 74.3333 % 6.48 C
160 20-02-2019 15:00:00 11.08333 C 73.0000 % 6.43 C
161 20-02-2019 16:00:00 11.375 C 71.2500 % 6.36 C
162 20-02-2019 17:00:00 10.35 C 74.0833 % 5.94 C
163 20-02-2019 18:00:00 7.29167 C 83.9167 % 4.76 C
164 20-02-2019 19:00:00 6.16667 C 87.6667 % 4.28 C
165 20-02-2019 20:00:00 4.86667 C 89.7500 % 3.33 C
166 20-02-2019 21:00:00 3.775 C 91.5000 % 2.52 C
167 20-02-2019 22:00:00 2.7 C 92.8333 % 1.66 C
168 20-02-2019 23:00:00 2.10833 C 94.2500 % 1.28 C
169 21-02-2019 00:00:00 1.575 C 94.5000 % 0.79 C
170 21-02-2019 01:00:00 1.58333 C 95.1667 % 0.9 C
171 21-02-2019 02:00:00 1.06667 C 95.1667 % 0.38 C
172 21-02-2019 03:00:00 0.74167 C 95.9167 % 0.17 C
173 21-02-2019 04:00:00 0.91667 C 96.0000 % 0.35 C
174 21-02-2019 05:00:00 1.06667 C 96.3333 % 0.55 C
175 21-02-2019 06:00:00 1.25 C 96.2500 % 0.72 C
Sensor: Nr:Datum:Temp:Feuchte:Taupunkt:
Aussen-T/F 176 21-02-2019 07:00:00 1.21667 C 96.4167 % 0.71 C
177 21-02-2019 08:00:00 2.10833 C 97.0000 % 1.68 C
178 21-02-2019 09:00:00 2.84167 C 97.0000 % 2.41 C
179 21-02-2019 10:00:00 3.91667 C 97.0000 % 3.48 C
180 21-02-2019 11:00:00 5.725 C 94.8333 % 4.96 C
181 21-02-2019 12:00:00 8.33333 C 89.8333 % 6.76 C
182 21-02-2019 13:00:00 11.3 C 81.8333 % 8.31 C
183 21-02-2019 14:00:00 12.6 C 77.0000 % 8.68 C
184 21-02-2019 15:00:00 13.325 C 74.2500 % 8.84 C
185 21-02-2019 16:00:00 13.34167 C 74.0833 % 8.83 C
186 21-02-2019 17:00:00 12.48333 C 79.8333 % 9.1 C
187 21-02-2019 18:00:00 10.56667 C 86.1667 % 8.35 C
188 21-02-2019 19:00:00 9.74167 C 87.2500 % 7.73 C
189 21-02-2019 20:00:00 9.18333 C 89.5000 % 7.55 C
190 21-02-2019 21:00:00 9.325 C 90.5000 % 7.85 C
191 21-02-2019 22:00:00 9.275 C 89.2500 % 7.6 C
192 21-02-2019 23:00:00 9.21667 C 89.3333 % 7.56 C
193 22-02-2019 00:00:00 9.575 C 88.8333 % 7.83 C
194 22-02-2019 01:00:00 9.76667 C 88.2500 % 7.92 C
195 22-02-2019 02:00:00 9.325 C 90.1667 % 7.8 C
196 22-02-2019 03:00:00 9.55 C 92.0833 % 8.33 C
197 22-02-2019 04:00:00 9.66667 C 92.9167 % 8.58 C
198 22-02-2019 05:00:00 9.34167 C 94.2500 % 8.47 C
199 22-02-2019 06:00:00 9.34167 C 95.0000 % 8.58 C
200 22-02-2019 07:00:00 9.225 C 95.4167 % 8.53 C
Sensor: Nr:Datum:Temp:Feuchte:Taupunkt:
Aussen-T/F 201 22-02-2019 08:00:00 9.16667 C 96.0000 % 8.56 C
202 22-02-2019 09:00:00 9.50833 C 96.0000 % 8.9 C
203 22-02-2019 10:00:00 9.93333 C 96.0000 % 9.33 C
204 22-02-2019 11:00:00 10.64167 C 94.8333 % 9.85 C
205 22-02-2019 12:00:00 11.6 C 87.9167 % 9.67 C
206 22-02-2019 13:00:00 12.46667 C 82.0833 % 9.5 C
207 22-02-2019 14:00:00 12.83333 C 77.9167 % 9.08 C
208 22-02-2019 15:00:00 13.275 C 74.3333 % 8.81 C
209 22-02-2019 16:00:00 12.84167 C 73.4167 % 8.21 C
210 22-02-2019 17:00:00 11.825 C 76.1667 % 7.77 C
211 22-02-2019 18:00:00 9.075 C 83.0833 % 6.36 C
212 22-02-2019 19:00:00 8.55 C 86.1667 % 6.37 C
213 22-02-2019 20:00:00 8.99167 C 85.3333 % 6.67 C
214 22-02-2019 21:00:00 8.475 C 86.1667 % 6.3 C
215 22-02-2019 22:00:00 6.94167 C 88.9167 % 5.24 C
216 22-02-2019 23:00:00 5.95 C 91.5833 % 4.69 C
217 23-02-2019 00:00:00 5.31667 C 92.3333 % 4.18 C
218 23-02-2019 01:00:00 4.55 C 93.2500 % 3.56 C
219 23-02-2019 02:00:00 4.18333 C 94.0000 % 3.31 C
220 23-02-2019 03:00:00 3.81667 C 94.9167 % 3.08 C
221 23-02-2019 04:00:00 4.26667 C 95.0000 % 3.54 C
222 23-02-2019 05:00:00 4.525 C 93.5000 % 3.57 C
223 23-02-2019 06:00:00 4.83333 C 89.8333 % 3.31 C
224 23-02-2019 07:00:00 4.79167 C 86.9167 % 2.8 C
225 23-02-2019 08:00:00 4.85 C 85.0000 % 2.55 C
Sensor: Nr:Datum:Temp:Feuchte:Taupunkt:
Aussen-T/F 226 23-02-2019 09:00:00 4.775 C 83.4167 % 2.21 C
227 23-02-2019 10:00:00 4.95 C 81.8333 % 2.11 C
228 23-02-2019 11:00:00 6.125 C 79.0000 % 2.76 C
229 23-02-2019 12:00:00 7.625 C 72.3333 % 2.97 C
230 23-02-2019 13:00:00 9.05833 C 66.8333 % 3.23 C
231 23-02-2019 14:00:00 10.01667 C 59.4167 % 2.48 C
232 23-02-2019 15:00:00 10.78333 C 44.7500 % -0.73 C
233 23-02-2019 16:00:00 10.71667 C 47.0833 % -0.1 C
234 23-02-2019 17:00:00 7.99167 C 63.1667 % 1.43 C
235 23-02-2019 18:00:00 5.45833 C 70.9167 % 0.61 C
236 23-02-2019 19:00:00 4.36667 C 74.0000 % 0.15 C
237 23-02-2019 20:00:00 3.38333 C 76.0833 % -0.42 C
238 23-02-2019 21:00:00 2.03333 C 79.3333 % -1.16 C
239 23-02-2019 22:00:00 0.98333 C 82.8333 % -1.6 C
240 23-02-2019 23:00:00 0.45833 C 83.5000 % -2 C
241 24-02-2019 00:00:00 -0.25833 C 85.4167 % -2.4 C
242 24-02-2019 01:00:00 -0.66667 C 87.0000 % -2.56 C
243 24-02-2019 02:00:00 -1.16667 C 87.9167 % -2.91 C
244 24-02-2019 03:00:00 -1.5 C 89.1667 % -3.05 C
245 24-02-2019 04:00:00 -1.73333 C 90.0000 % -3.15 C
246 24-02-2019 05:00:00 -1.875 C 90.0000 % -3.29 C
247 24-02-2019 06:00:00 -2.06667 C 90.5000 % -3.41 C
248 24-02-2019 07:00:00 -2.35833 C 91.2500 % -3.59 C
249 24-02-2019 08:00:00 -2.10833 C 92.0000 % -3.23 C
250 24-02-2019 09:00:00 -1.49167 C 91.9167 % -2.63 C
Sensor: Nr:Datum:Temp:Feuchte:Taupunkt:
Aussen-T/F 251 24-02-2019 10:00:00 0.36667 C 88.6667 % -1.28 C
252 24-02-2019 11:00:00 4.09167 C 77.9167 % 0.59 C
253 24-02-2019 12:00:00 7.35 C 66.0833 % 1.45 C
254 24-02-2019 13:00:00 10.45833 C 44.1667 % -1.21 C
255 24-02-2019 14:00:00 11.89167 C 36.5000 % -2.5 C
256 24-02-2019 15:00:00 12.41667 C 39.0000 % -1.13 C
257 24-02-2019 16:00:00 11.80833 C 46.5000 % 0.73 C
258 24-02-2019 17:00:00 10.3 C 52.4167 % 1 C
259 24-02-2019 18:00:00 8.44167 C 56.6667 % 0.35 C
260 24-02-2019 19:00:00 6.86667 C 61.0833 % -0.1 C
261 24-02-2019 20:00:00 4.93333 C 66.4167 % -0.79 C
262 24-02-2019 21:00:00 3.36667 C 71.5000 % -1.28 C
263 24-02-2019 22:00:00 2.54167 C 74.5000 % -1.52 C
264 24-02-2019 23:00:00 1.81667 C 77.1667 % -1.75 C
265 25-02-2019 00:00:00 1.175 C 78.9167 % -2.07 C
266 25-02-2019 01:00:00 0.925 C 81.0000 % -1.96 C
267 25-02-2019 02:00:00 0.13333 C 83.6667 % -2.29 C
268 25-02-2019 03:00:00 -0.00833 C 84.0000 % -2.38 C
269 25-02-2019 04:00:00 -0.58333 C 86.0833 % -2.62 C
270 25-02-2019 05:00:00 -0.70833 C 87.2500 % -2.56 C
271 25-02-2019 06:00:00 -0.86667 C 87.9167 % -2.61 C
272 25-02-2019 07:00:00 -1.21667 C 88.1667 % -2.92 C
273 25-02-2019 08:00:00 -1.2 C 89.7500 % -2.66 C
274 25-02-2019 09:00:00 -0.69167 C 88.8333 % -2.3 C
275 25-02-2019 10:00:00 0.81667 C 87.0833 % -1.08 C
Sensor: Nr:Datum:Temp:Feuchte:Taupunkt:
Aussen-T/F 276 25-02-2019 11:00:00 4.675 C 77.7500 % 1.13 C
277 25-02-2019 12:00:00 8.70833 C 67.1667 % 2.97 C
278 25-02-2019 13:00:00 12.55 C 53.3333 % 3.33 C
279 25-02-2019 14:00:00 14.74167 C 46.6667 % 3.46 C
280 25-02-2019 15:00:00 14.175 C 49.5833 % 3.8 C
281 25-02-2019 16:00:00 14.375 C 49.5833 % 3.98 C
282 25-02-2019 17:00:00 13.64167 C 52.9167 % 4.23 C
283 25-02-2019 18:00:00 11.1 C 59.8333 % 3.6 C
284 25-02-2019 19:00:00 9.075 C 66.8333 % 3.25 C
285 25-02-2019 20:00:00 7.04167 C 72.9167 % 2.53 C
286 25-02-2019 21:00:00 5.575 C 76.5833 % 1.79 C
287 25-02-2019 22:00:00 4.55 C 79.4167 % 1.3 C
288 25-02-2019 23:00:00 3.25 C 83.5833 % 0.74 C
289 26-02-2019 00:00:00 2.425 C 86.0833 % 0.34 C
290 26-02-2019 01:00:00 1.93333 C 88.7500 % 0.28 C
291 26-02-2019 02:00:00 1.39167 C 89.5833 % -0.13 C
292 26-02-2019 03:00:00 0.63333 C 91.1667 % -0.64 C
293 26-02-2019 04:00:00 0.325 C 92.0833 % -0.81 C
294 26-02-2019 05:00:00 0.21667 C 93.0833 % -0.77 C
295 26-02-2019 06:00:00 -0.31667 C 92.7500 % -1.34 C
296 26-02-2019 07:00:00 -0.48333 C 93.5833 % -1.39 C
297 26-02-2019 08:00:00 -0.10833 C 94.4167 % -0.9 C
298 26-02-2019 09:00:00 0.80833 C 94.7500 % 0.06 C
299 26-02-2019 10:00:00 2.60833 C 94.4167 % 1.8 C
300 26-02-2019 11:00:00 5.75 C 86.6667 % 3.7 C
Sensor: Nr:Datum:Temp:Feuchte:Taupunkt:
Aussen-T/F 301 26-02-2019 12:00:00 9.50833 C 72.4167 % 4.8 C
302 26-02-2019 13:00:00 13.85833 C 65.2500 % 7.45 C
303 26-02-2019 14:00:00 16.15833 C 55.3333 % 7.21 C
304 26-02-2019 15:00:00 15.49167 C 55.2500 % 6.57 C
305 26-02-2019 16:00:00 15.44167 C 55.5000 % 6.59 C
306 26-02-2019 17:00:00 14.75833 C 58.5000 % 6.71 C
307 26-02-2019 18:00:00 12.56667 C 63.5833 % 5.85 C
308 26-02-2019 19:00:00 10.34167 C 71.3333 % 5.39 C
309 26-02-2019 20:00:00 8.18333 C 76.3333 % 4.28 C
310 26-02-2019 21:00:00 6.8 C 80.9167 % 3.76 C
311 26-02-2019 22:00:00 5.61667 C 83.7500 % 3.09 C
312 26-02-2019 23:00:00 4.56667 C 87.0000 % 2.59 C
313 27-02-2019 00:00:00 3.55833 C 89.3333 % 1.97 C
314 27-02-2019 01:00:00 2.85 C 91.0833 % 1.54 C
315 27-02-2019 02:00:00 2.25 C 92.3333 % 1.14 C
316 27-02-2019 03:00:00 1.45833 C 93.0000 % 0.45 C
317 27-02-2019 04:00:00 0.78333 C 93.8333 % -0.09 C
318 27-02-2019 05:00:00 0.5 C 94.4167 % -0.29 C
319 27-02-2019 06:00:00 0.125 C 94.9167 % -0.59 C
320 27-02-2019 07:00:00 -0.375 C 95.0000 % -1.08 C
321 27-02-2019 08:00:00 -0.25833 C 95.5000 % -0.89 C
322 27-02-2019 09:00:00 0.41667 C 96.0000 % -0.14 C
323 27-02-2019 10:00:00 2.4 C 96.6667 % 1.93 C
324 27-02-2019 11:00:00 5.5 C 95.0833 % 4.78 C
325 27-02-2019 12:00:00 9.75833 C 82.7500 % 6.97 C
Sensor: Nr:Datum:Temp:Feuchte:Taupunkt:
Aussen-T/F 326 27-02-2019 13:00:00 14.69167 C 65.6667 % 8.34 C
327 27-02-2019 14:00:00 17.19167 C 52.1667 % 7.31 C
328 27-02-2019 15:00:00 16.10833 C 51.4167 % 6.1 C
329 27-02-2019 16:00:00 16.25 C 50.5833 % 5.99 C
330 27-02-2019 17:00:00 15.71667 C 51.0000 % 5.62 C
331 27-02-2019 18:00:00 13.55833 C 54.8333 % 4.66 C
332 27-02-2019 19:00:00 10.89167 C 63.9167 % 4.34 C
333 27-02-2019 20:00:00 8.7 C 70.4167 % 3.63 C
334 27-02-2019 21:00:00 6.8 C 75.7500 % 2.83 C
335 27-02-2019 22:00:00 5.55 C 80.5000 % 2.47 C
336 27-02-2019 23:00:00 4.83333 C 82.5833 % 2.13 C
337 28-02-2019 00:00:00 5.35 C 83.0000 % 2.7 C
338 28-02-2019 01:00:00 4.93333 C 81.8333 % 2.1 C
339 28-02-2019 02:00:00 3.675 C 86.7500 % 1.68 C
340 28-02-2019 03:00:00 2.94167 C 89.0000 % 1.31 C
341 28-02-2019 04:00:00 2.275 C 90.3333 % 0.86 C
342 28-02-2019 05:00:00 2.35833 C 91.0000 % 1.04 C
343 28-02-2019 06:00:00 3.21667 C 90.4167 % 1.8 C
344 28-02-2019 07:00:00 3.75 C 86.8333 % 1.76 C
345 28-02-2019 08:00:00 3.075 C 90.0000 % 1.6 C
346 28-02-2019 09:00:00 4.68333 C 89.0000 % 3.03 C
347 28-02-2019 10:00:00 7.65833 C 84.5000 % 5.22 C
348 28-02-2019 11:00:00 11.56667 C 72.3333 % 6.77 C
349 28-02-2019 12:00:00 13.26667 C 67.2500 % 7.33 C
350 28-02-2019 13:00:00 14.95833 C 63.5000 % 8.1 C
Sensor: Nr:Datum:Temp:Feuchte:Taupunkt:
Aussen-T/F 351 28-02-2019 14:00:00 16.61667 C 60.8333 % 9.03 C
352 28-02-2019 15:00:00 16.76667 C 61.0000 % 9.21 C
353 28-02-2019 16:00:00 15.20833 C 63.9167 % 8.43 C
354 28-02-2019 17:00:00 12.73333 C 67.7500 % 6.93 C
355 28-02-2019 18:00:00 12.13333 C 71.5000 % 7.14 C
356 28-02-2019 19:00:00 11.26667 C 75.6667 % 7.13 C
357 28-02-2019 20:00:00 11.09167 C 78.5833 % 7.52 C
358 28-02-2019 21:00:00 10.975 C 80.7500 % 7.8 C
359 28-02-2019 22:00:00 10.84167 C 81.7500 % 7.85 C
360 28-02-2019 23:00:00 10.26667 C 86.5833 % 8.13 C
361 01-03-2019 00:00:00 9.075 C 91.9167 % 7.83 C
362 01-03-2019 01:00:00 8.68333 C 93.7500 % 7.73 C
363 01-03-2019 02:00:00 8.69167 C 93.3333 % 7.68 C
364 01-03-2019 03:00:00 8.8 C 91.5000 % 7.49 C
365 01-03-2019 04:00:00 8.75833 C 91.0000 % 7.37 C
366 01-03-2019 05:00:00 8.63333 C 91.7500 % 7.37 C
367 01-03-2019 06:00:00 8.20833 C 93.5833 % 7.24 C
368 01-03-2019 07:00:00 8.21667 C 94.9167 % 7.45 C
369 01-03-2019 08:00:00 8.53333 C 95.0000 % 7.78 C
370 01-03-2019 09:00:00 8.68333 C 95.0000 % 7.93 C
371 01-03-2019 10:00:00 8.66667 C 95.9167 % 8.05 C
372 01-03-2019 11:00:00 8.75833 C 95.0833 % 8.02 C
373 01-03-2019 12:00:00 9.01667 C 91.4167 % 7.7 C
374 01-03-2019 13:00:00 8.49167 C 91.5000 % 7.19 C
375 01-03-2019 14:00:00 8.38333 C 90.4167 % 6.91 C
Sensor: Nr:Datum:Temp:Feuchte:Taupunkt:
Aussen-T/F 376 01-03-2019 15:00:00 8.325 C 89.6667 % 6.73 C
377 01-03-2019 16:00:00 8.34167 C 90.5000 % 6.88 C
378 01-03-2019 17:00:00 8.28333 C 91.0000 % 6.9 C
379 01-03-2019 18:00:00 7.61667 C 89.4167 % 5.99 C
380 01-03-2019 19:00:00 6.9 C 89.9167 % 5.36 C
381 01-03-2019 20:00:00 6.625 C 91.0000 % 5.26 C
382 01-03-2019 21:00:00 6.45 C 90.6667 % 5.04 C
383 01-03-2019 22:00:00 6.375 C 90.1667 % 4.88 C
384 01-03-2019 23:00:00 6.53333 C 88.5833 % 4.79 C
385 02-03-2019 00:00:00 6.19167 C 89.1667 % 4.54 C
386 02-03-2019 01:00:00 5.85 C 89.0833 % 4.19 C
387 02-03-2019 02:00:00 5.64167 C 90.7500 % 4.25 C
388 02-03-2019 03:00:00 5.65 C 90.6667 % 4.25 C
389 02-03-2019 04:00:00 5.7 C 90.9167 % 4.34 C
390 02-03-2019 05:00:00 6.10833 C 91.0000 % 4.75 C
391 02-03-2019 06:00:00 6.30833 C 91.0000 % 4.95 C
392 02-03-2019 07:00:00 6.65 C 91.0000 % 5.29 C
393 02-03-2019 08:00:00 7.01667 C 90.4167 % 5.56 C
394 02-03-2019 09:00:00 7.66667 C 88.9167 % 5.96 C
395 02-03-2019 10:00:00 8.05 C 87.7500 % 6.15 C
396 02-03-2019 11:00:00 8.99167 C 85.4167 % 6.68 C
397 02-03-2019 12:00:00 9.94167 C 82.8333 % 7.16 C
398 02-03-2019 13:00:00 10.63333 C 79.9167 % 7.32 C
399 02-03-2019 14:00:00 11.40833 C 75.5833 % 7.25 C
400 02-03-2019 15:00:00 11.925 C 72.3333 % 7.11 C
Sensor: Nr:Datum:Temp:Feuchte:Taupunkt:
Aussen-T/F 401 02-03-2019 16:00:00 12.35 C 70.4167 % 7.13 C
402 02-03-2019 17:00:00 11.35833 C 75.5000 % 7.19 C
403 02-03-2019 18:00:00 10.55 C 80.5833 % 7.36 C
404 02-03-2019 19:00:00 9.84167 C 86.0000 % 7.61 C
405 02-03-2019 20:00:00 9.53333 C 87.2500 % 7.52 C
406 02-03-2019 21:00:00 9.83333 C 87.4167 % 7.85 C
407 02-03-2019 22:00:00 10.25 C 85.0000 % 7.84 C
408 02-03-2019 23:00:00 9.96667 C 83.1667 % 7.25 C
409 03-03-2019 00:00:00 9.05833 C 82.8333 % 6.3 C
410 03-03-2019 01:00:00 9.175 C 85.2500 % 6.83 C
411 03-03-2019 02:00:00 9.98333 C 81.2500 % 6.92 C
412 03-03-2019 03:00:00 10 C 81.0000 % 6.89 C
413 03-03-2019 04:00:00 10.225 C 80.9167 % 7.1 C
414 03-03-2019 05:00:00 10.20833 C 79.8333 % 6.89 C
415 03-03-2019 06:00:00 10.10833 C 80.8333 % 6.97 C
416 03-03-2019 07:00:00 10.13333 C 81.0000 % 7.02 C
417 03-03-2019 08:00:00 10.31667 C 81.5000 % 7.29 C
418 03-03-2019 09:00:00 10.875 C 81.1667 % 7.78 C
419 03-03-2019 10:00:00 11.15833 C 81.0000 % 8.02 C
420 03-03-2019 11:00:00 11.00833 C 82.0000 % 8.06 C
421 03-03-2019 12:00:00 11.225 C 82.0833 % 8.28 C
422 03-03-2019 13:00:00 11.73333 C 80.5000 % 8.49 C
423 03-03-2019 14:00:00 11.79167 C 80.0000 % 8.46 C
424 03-03-2019 15:00:00 11.7 C 81.2500 % 8.6 C
425 03-03-2019 16:00:00 11.7 C 81.5000 % 8.64 C
Sensor: Nr:Datum:Temp:Feuchte:Taupunkt:
Aussen-T/F 426 03-03-2019 17:00:00 11.9 C 79.4167 % 8.46 C
427 03-03-2019 18:00:00 12.18333 C 77.5000 % 8.37 C
428 03-03-2019 19:00:00 12.28333 C 75.9167 % 8.16 C
429 03-03-2019 20:00:00 12.33333 C 76.0000 % 8.23 C
430 03-03-2019 21:00:00 12.33333 C 77.0833 % 8.44 C
431 03-03-2019 22:00:00 12.525 C 76.5833 % 8.53 C
432 03-03-2019 23:00:00 12.75833 C 73.7500 % 8.2 C
433 04-03-2019 00:00:00 13.10833 C 71.2500 % 8.03 C
434 04-03-2019 01:00:00 13.50833 C 68.5000 % 7.83 C
435 04-03-2019 02:00:00 12.66667 C 75.4167 % 8.44 C
436 04-03-2019 03:00:00 11.79167 C 80.4167 % 8.53 C
437 04-03-2019 04:00:00 11.675 C 81.5000 % 8.62 C
438 04-03-2019 05:00:00 11.63333 C 80.0833 % 8.32 C
439 04-03-2019 06:00:00 11.45 C 78.9167 % 7.93 C
440 04-03-2019 07:00:00 12 C 73.8333 % 7.48 C
441 04-03-2019 08:00:00 11.49167 C 73.1667 % 6.86 C
442 04-03-2019 09:00:00 9.39167 C 76.3333 % 5.45 C
443 04-03-2019 10:00:00 9.90833 C 76.5833 % 5.99 C
444 04-03-2019 11:00:00 11.23333 C 69.1667 % 5.8 C
445 04-03-2019 12:00:00 10.98333 C 72.9167 % 6.32 C
446 04-03-2019 13:00:00 9.73333 C 84.0833 % 7.18 C
447 04-03-2019 14:00:00 9.44167 C 83.3333 % 6.76 C
448 04-03-2019 15:00:00 7.1 C 84.4167 % 4.66 C
449 04-03-2019 16:00:00 7.54167 C 79.6667 % 4.26 C
450 04-03-2019 17:00:00 7.4 C 78.6667 % 3.94 C
Sensor: Nr:Datum:Temp:Feuchte:Taupunkt:
Aussen-T/F 451 04-03-2019 18:00:00 6.96667 C 80.4167 % 3.83 C
452 04-03-2019 19:00:00 6.86667 C 81.4167 % 3.91 C
453 04-03-2019 20:00:00 6.95 C 81.5000 % 4.01 C
454 04-03-2019 21:00:00 6.61667 C 83.2500 % 3.98 C
455 04-03-2019 22:00:00 7.09167 C 82.7500 % 4.36 C
456 04-03-2019 23:00:00 6.7 C 83.6667 % 4.14 C
457 05-03-2019 00:00:00 6.875 C 81.5000 % 3.93 C
458 05-03-2019 01:00:00 6.875 C 80.5000 % 3.76 C
459 05-03-2019 02:00:00 6.79167 C 79.9167 % 3.58 C
460 05-03-2019 03:00:00 6.74167 C 80.5000 % 3.63 C
461 05-03-2019 04:00:00 6.425 C 80.9167 % 3.39 C
462 05-03-2019 05:00:00 6.35 C 80.9167 % 3.32 C
463 05-03-2019 06:00:00 6.24167 C 79.7500 % 3.01 C
464 05-03-2019 07:00:00 6.475 C 79.2500 % 3.15 C
465 05-03-2019 08:00:00 6.64167 C 80.2500 % 3.49 C
466 05-03-2019 09:00:00 6.50833 C 83.3333 % 3.89 C
467 05-03-2019 10:00:00 6.625 C 85.1667 % 4.32 C
468 05-03-2019 11:00:00 6.99167 C 84.3333 % 4.54 C
469 05-03-2019 12:00:00 7.3 C 81.5833 % 4.36 C
470 05-03-2019 13:00:00 7.96667 C 79.7500 % 4.69 C
471 05-03-2019 14:00:00 8.65 C 77.5000 % 4.94 C
472 05-03-2019 15:00:00 8.95833 C 74.9167 % 4.76 C
473 05-03-2019 16:00:00 9.81667 C 72.7500 % 5.17 C
474 05-03-2019 17:00:00 9.34167 C 74.1667 % 4.98 C
475 05-03-2019 18:00:00 7.13333 C 80.6667 % 4.04 C
Sensor: Nr:Datum:Temp:Feuchte:Taupunkt:
Aussen-T/F 476 05-03-2019 19:00:00 6.55 C 82.5000 % 3.79 C
477 05-03-2019 20:00:00 5.46667 C 85.1667 % 3.18 C
478 05-03-2019 21:00:00 4.275 C 89.5000 % 2.71 C
479 05-03-2019 22:00:00 4.70833 C 92.0000 % 3.52 C
480 05-03-2019 23:00:00 5.26667 C 92.0000 % 4.08 C
481 06-03-2019 00:00:00 5.65 C 91.6667 % 4.4 C
482 06-03-2019 01:00:00 6.15 C 91.5833 % 4.89 C
483 06-03-2019 02:00:00 7.03333 C 89.8333 % 5.48 C
484 06-03-2019 03:00:00 7 C 89.5000 % 5.4 C
485 06-03-2019 04:00:00 6.81667 C 91.0000 % 5.45 C
486 06-03-2019 05:00:00 7.175 C 89.2500 % 5.53 C
487 06-03-2019 06:00:00 6.40833 C 89.6667 % 4.84 C
488 06-03-2019 07:00:00 5.44167 C 91.2500 % 4.13 C
489 06-03-2019 08:00:00 6.43333 C 91.0000 % 5.07 C
490 06-03-2019 09:00:00 8.15833 C 84.3333 % 5.68 C
491 06-03-2019 10:00:00 10.00833 C 76.3333 % 6.04 C
492 06-03-2019 11:00:00 12.275 C 65.4167 % 5.99 C
493 06-03-2019 12:00:00 13.31667 C 59.2500 % 5.54 C
494 06-03-2019 13:00:00 13.375 C 61.0000 % 6.02 C
495 06-03-2019 14:00:00 13.7 C 61.7500 % 6.5 C
496 06-03-2019 15:00:00 14.56667 C 58.7500 % 6.59 C
497 06-03-2019 16:00:00 15.19167 C 57.4167 % 6.85 C
498 06-03-2019 17:00:00 13.93333 C 68.2500 % 8.18 C
499 06-03-2019 18:00:00 13.00833 C 72.5833 % 8.2 C
500 06-03-2019 19:00:00 11.65833 C 81.2500 % 8.56 C
Sensor: Nr:Datum:Temp:Feuchte:Taupunkt:
Aussen-T/F 501 06-03-2019 20:00:00 10.65 C 84.8333 % 8.21 C
502 06-03-2019 21:00:00 10.675 C 84.0833 % 8.1 C
503 06-03-2019 22:00:00 10.66667 C 84.1667 % 8.11 C
504 06-03-2019 23:00:00 11.175 C 81.3333 % 8.1 C
505 07-03-2019 00:00:00 11.05833 C 83.6667 % 8.4 C
506 07-03-2019 01:00:00 10.93333 C 87.5000 % 8.94 C
507 07-03-2019 02:00:00 10.025 C 91.6667 % 8.73 C
508 07-03-2019 03:00:00 9.58333 C 92.5833 % 8.44 C
509 07-03-2019 04:00:00 10.08333 C 88.5833 % 8.29 C
510 07-03-2019 05:00:00 11.45 C 79.6667 % 8.06 C
511 07-03-2019 06:00:00 12.05833 C 73.9167 % 7.56 C
512 07-03-2019 07:00:00 11.325 C 74.2500 % 6.91 C
513 07-03-2019 08:00:00 10.69167 C 75.9167 % 6.62 C
514 07-03-2019 09:00:00 10.06667 C 82.6667 % 7.26 C
515 07-03-2019 10:00:00 10.225 C 82.1667 % 7.32 C
516 07-03-2019 11:00:00 9.8 C 83.9167 % 7.21 C
517 07-03-2019 12:00:00 10.78333 C 74.6667 % 6.47 C
518 07-03-2019 13:00:00 12 C 68.6667 % 6.43 C
519 07-03-2019 14:00:00 10.40833 C 78.0833 % 6.76 C
520 07-03-2019 15:00:00 10.825 C 74.0833 % 6.4 C
521 07-03-2019 16:00:00 9.88333 C 79.0833 % 6.43 C
522 07-03-2019 17:00:00 10.14167 C 75.0000 % 5.92 C
523 07-03-2019 18:00:00 9.45 C 72.4167 % 4.75 C
524 07-03-2019 19:00:00 8.46667 C 79.5000 % 5.13 C
525 07-03-2019 20:00:00 8.64167 C 76.5833 % 4.77 C
Sensor: Nr:Datum:Temp:Feuchte:Taupunkt:
Aussen-T/F 526 07-03-2019 21:00:00 9.23333 C 74.5833 % 4.96 C
527 07-03-2019 22:00:00 9.2 C 74.7500 % 4.96 C
528 07-03-2019 23:00:00 8.64167 C 76.9167 % 4.83 C
529 08-03-2019 00:00:00 7.65833 C 84.2500 % 5.17 C
530 08-03-2019 01:00:00 7.05833 C 85.9167 % 4.87 C
531 08-03-2019 02:00:00 8.15833 C 77.3333 % 4.44 C
532 08-03-2019 03:00:00 8.15 C 75.1667 % 4.02 C
533 08-03-2019 04:00:00 8.05 C 76.2500 % 4.13 C
534 08-03-2019 05:00:00 7.8 C 78.1667 % 4.24 C
535 08-03-2019 06:00:00 7.60833 C 79.8333 % 4.36 C
536 08-03-2019 07:00:00 7.7 C 80.4167 % 4.55 C
537 08-03-2019 08:00:00 7.85 C 81.7500 % 4.93 C
538 08-03-2019 09:00:00 7.68333 C 85.2500 % 5.37 C
539 08-03-2019 10:00:00 7.75 C 85.0833 % 5.41 C
540 08-03-2019 11:00:00 8.65833 C 79.3333 % 5.29 C
541 08-03-2019 12:00:00 9.21667 C 72.0833 % 4.46 C
542 08-03-2019 13:00:00 9.8 C 68.8333 % 4.36 C
543 08-03-2019 14:00:00 10.34167 C 64.2500 % 3.89 C
544 08-03-2019 15:00:00 11.25 C 62.0000 % 4.25 C
545 08-03-2019 16:00:00 10.26667 C 70.0833 % 5.06 C
546 08-03-2019 17:00:00 9.15833 C 77.5833 % 5.45 C
547 08-03-2019 18:00:00 7.425 C 85.2500 % 5.11 C
548 08-03-2019 19:00:00 6.83333 C 87.8333 % 4.96 C
549 08-03-2019 20:00:00 6.3 C 89.5000 % 4.7 C
550 08-03-2019 21:00:00 6.525 C 89.3333 % 4.9 C
Sensor: Nr:Datum:Temp:Feuchte:Taupunkt:
Aussen-T/F 551 08-03-2019 22:00:00 7.025 C 85.4167 % 4.75 C
552 08-03-2019 23:00:00 8.25833 C 77.9167 % 4.64 C
553 09-03-2019 00:00:00 8.56667 C 75.5000 % 4.49 C
554 09-03-2019 01:00:00 9.15833 C 72.6667 % 4.51 C
555 09-03-2019 02:00:00 9.375 C 72.4167 % 4.67 C
556 09-03-2019 03:00:00 9.03333 C 76.4167 % 5.11 C
557 09-03-2019 04:00:00 7.95833 C 84.9167 % 5.58 C
558 09-03-2019 05:00:00 7.775 C 87.4167 % 5.82 C
559 09-03-2019 06:00:00 8.08333 C 88.0000 % 6.22 C
560 09-03-2019 07:00:00 8.63333 C 87.2500 % 6.64 C
561 09-03-2019 08:00:00 9.45 C 85.2500 % 7.1 C
562 09-03-2019 09:00:00 10.15833 C 83.6667 % 7.52 C
563 09-03-2019 10:00:00 10.50833 C 81.4167 % 7.47 C
564 09-03-2019 11:00:00 10.925 C 79.8333 % 7.58 C
565 09-03-2019 12:00:00 11.71667 C 76.6667 % 7.76 C
566 09-03-2019 13:00:00 12.525 C 74.5833 % 8.14 C
567 09-03-2019 14:00:00 13.48333 C 69.7500 % 8.07 C
568 09-03-2019 15:00:00 13.30833 C 68.8333 % 7.71 C
569 09-03-2019 16:00:00 13.39167 C 63.4167 % 6.6 C
570 09-03-2019 17:00:00 13.05833 C 60.6667 % 5.64 C
571 09-03-2019 18:00:00 12.01667 C 62.5833 % 5.1 C
572 09-03-2019 19:00:00 10.65833 C 74.2500 % 6.27 C
573 09-03-2019 20:00:00 9.45 C 82.2500 % 6.58 C
574 09-03-2019 21:00:00 9.66667 C 82.1667 % 6.78 C
575 09-03-2019 22:00:00 9.60833 C 80.0000 % 6.33 C
Sensor: Nr:Datum:Temp:Feuchte:Taupunkt:
Aussen-T/F 576 09-03-2019 23:00:00 10.34167 C 71.3333 % 5.39 C
577 10-03-2019 00:00:00 10.11667 C 69.6667 % 4.83 C
578 10-03-2019 01:00:00 9.66667 C 70.4167 % 4.55 C
579 10-03-2019 02:00:00 9.40833 C 73.5833 % 4.93 C
580 10-03-2019 03:00:00 9.1 C 77.3333 % 5.35 C
581 10-03-2019 04:00:00 8.325 C 85.0833 % 5.97 C
582 10-03-2019 05:00:00 7.8 C 90.9167 % 6.41 C
583 10-03-2019 06:00:00 7.475 C 93.5000 % 6.5 C
584 10-03-2019 07:00:00 7.675 C 94.8333 % 6.9 C
585 10-03-2019 08:00:00 8.86667 C 95.9167 % 8.25 C
586 10-03-2019 09:00:00 10.58333 C 95.1667 % 9.84 C
587 10-03-2019 10:00:00 11.95833 C 93.3333 % 10.92 C
588 10-03-2019 11:00:00 13.14167 C 78.7500 % 9.54 C
589 10-03-2019 12:00:00 14.125 C 72.2500 % 9.21 C
590 10-03-2019 13:00:00 14.4 C 64.5833 % 7.82 C
591 10-03-2019 14:00:00 14.40833 C 52.0000 % 4.69 C
592 10-03-2019 15:00:00 13.55833 C 50.2500 % 3.42 C
593 10-03-2019 16:00:00 12.53333 C 50.1667 % 2.45 C
594 10-03-2019 17:00:00 10.38333 C 62.9167 % 3.64 C
595 10-03-2019 18:00:00 7.69167 C 80.2500 % 4.51 C
596 10-03-2019 19:00:00 6.94167 C 78.5833 % 3.48 C
597 10-03-2019 20:00:00 6.075 C 75.4167 % 2.06 C
598 10-03-2019 21:00:00 5.21667 C 79.1667 % 1.91 C
599 10-03-2019 22:00:00 5.05833 C 79.9167 % 1.89 C
600 10-03-2019 23:00:00 4.85833 C 80.4167 % 1.78 C
Sensor: Nr:Datum:Temp:Feuchte:Taupunkt:
Aussen-T/F 601 11-03-2019 00:00:00 4.34167 C 81.0833 % 1.39 C
602 11-03-2019 01:00:00 4.50833 C 79.6667 % 1.31 C
603 11-03-2019 02:00:00 5.10833 C 78.9167 % 1.76 C
604 11-03-2019 03:00:00 3.65833 C 85.3333 % 1.43 C
605 11-03-2019 04:00:00 2.36667 C 92.5833 % 1.29 C
606 11-03-2019 05:00:00 2.20833 C 92.7500 % 1.16 C
607 11-03-2019 06:00:00 1.74167 C 92.5000 % 0.66 C
608 11-03-2019 07:00:00 1.525 C 94.1667 % 0.69 C
609 11-03-2019 08:00:00 2.31667 C 95.0000 % 1.6 C
610 11-03-2019 09:00:00 3.34167 C 89.4167 % 1.77 C
611 11-03-2019 10:00:00 3.925 C 88.3333 % 2.18 C
612 11-03-2019 11:00:00 4.875 C 82.3333 % 2.12 C
613 11-03-2019 12:00:00 5.60833 C 76.3333 % 1.78 C
614 11-03-2019 13:00:00 6.575 C 71.8333 % 1.87 C
615 11-03-2019 14:00:00 7.04167 C 70.1667 % 1.99 C
616 11-03-2019 15:00:00 7.63333 C 66.7500 % 1.86 C
617 11-03-2019 16:00:00 7.26667 C 68.2500 % 1.82 C
618 11-03-2019 17:00:00 7.175 C 70.1667 % 2.11 C
619 11-03-2019 18:00:00 6.93333 C 68.6667 % 1.58 C
620 11-03-2019 19:00:00 5.83333 C 72.6667 % 1.31 C
621 11-03-2019 20:00:00 5.68333 C 73.5000 % 1.33 C
622 11-03-2019 21:00:00 5.28333 C 75.0000 % 1.22 C
623 11-03-2019 22:00:00 5.34167 C 74.4167 % 1.17 C
624 11-03-2019 23:00:00 4.75 C 76.0000 % 0.89 C
625 12-03-2019 00:00:00 4.19167 C 80.0833 % 1.07 C
Sensor: Nr:Datum:Temp:Feuchte:Taupunkt:
Aussen-T/F 626 12-03-2019 01:00:00 3.225 C 84.0833 % 0.8 C
627 12-03-2019 02:00:00 2.15833 C 87.0000 % 0.23 C
628 12-03-2019 03:00:00 1.65833 C 88.7500 % 0.01 C
629 12-03-2019 04:00:00 1.33333 C 89.4167 % -0.21 C
630 12-03-2019 05:00:00 1.625 C 90.0000 % 0.17 C
631 12-03-2019 06:00:00 1.76667 C 89.5833 % 0.24 C
632 12-03-2019 07:00:00 1.93333 C 90.7500 % 0.59 C
633 12-03-2019 08:00:00 3.25 C 88.9167 % 1.6 C
634 12-03-2019 09:00:00 5.20833 C 82.5000 % 2.48 C
635 12-03-2019 10:00:00 7.4 C 72.3333 % 2.76 C
636 12-03-2019 11:00:00 8.78333 C 63.5833 % 2.27 C
637 12-03-2019 12:00:00 9.40833 C 61.1667 % 2.32 C
638 12-03-2019 13:00:00 9.74167 C 59.4167 % 2.22 C
639 12-03-2019 14:00:00 10.18333 C 57.6667 % 2.22 C
640 12-03-2019 15:00:00 10.56667 C 54.0000 % 1.66 C
641 12-03-2019 16:00:00 10.33333 C 50.2500 % 0.45 C
642 12-03-2019 17:00:00 9.34167 C 55.5000 % 0.9 C
643 12-03-2019 18:00:00 8.1 C 61.2500 % 1.1 C
644 12-03-2019 19:00:00 8.725 C 54.1667 % -0.01 C
645 12-03-2019 20:00:00 9.425 C 46.5000 % -1.45 C
646 12-03-2019 21:00:00 10.74167 C 45.6667 % -0.49 C
647 12-03-2019 22:00:00 11.14167 C 53.9167 % 2.17 C
648 12-03-2019 23:00:00 8.53333 C 76.6667 % 4.68 C
649 13-03-2019 00:00:00 6.53333 C 80.5833 % 3.44 C
650 13-03-2019 01:00:00 5.74167 C 79.4167 % 2.46 C
Sensor: Nr:Datum:Temp:Feuchte:Taupunkt:
Aussen-T/F 651 13-03-2019 02:00:00 5.425 C 80.1667 % 2.29 C
652 13-03-2019 03:00:00 5.74167 C 77.1667 % 2.06 C
653 13-03-2019 04:00:00 5.53333 C 79.7500 % 2.32 C
654 13-03-2019 05:00:00 5.34167 C 83.0833 % 2.71 C
655 13-03-2019 06:00:00 5.16667 C 82.7500 % 2.48 C
656 13-03-2019 07:00:00 5.46667 C 80.5833 % 2.4 C
657 13-03-2019 08:00:00 6.08333 C 80.1667 % 2.93 C
658 13-03-2019 09:00:00 6.5 C 77.8333 % 2.92 C
659 13-03-2019 10:00:00 6.94167 C 77.2500 % 3.24 C
660 13-03-2019 11:00:00 7.81667 C 75.1667 % 3.7 C
661 13-03-2019 12:00:00 8.15833 C 74.4167 % 3.89 C
662 13-03-2019 13:00:00 7.95833 C 76.5000 % 4.09 C
663 13-03-2019 14:00:00 8.05 C 78.0833 % 4.47 C
664 13-03-2019 15:00:00 7.79167 C 80.1667 % 4.59 C
665 13-03-2019 16:00:00 6.825 C 87.3333 % 4.87 C
666 13-03-2019 17:00:00 6.65833 C 87.8333 % 4.79 C
667 13-03-2019 18:00:00 6.55 C 87.6667 % 4.65 C
668 13-03-2019 19:00:00 4.95833 C 91.9167 % 3.76 C
669 13-03-2019 20:00:00 4.94167 C 92.2500 % 3.79 C
670 13-03-2019 21:00:00 4.94167 C 92.5833 % 3.84 C
671 13-03-2019 22:00:00 5.04167 C 93.0000 % 4.01 C
672 13-03-2019 23:00:00 4.725 C 92.6667 % 3.64 C
673 14-03-2019 00:00:00 4.65 C 92.4167 % 3.53 C
674 14-03-2019 01:00:00 5.13333 C 90.5833 % 3.72 C
675 14-03-2019 02:00:00 4.81667 C 91.9167 % 3.62 C
Sensor: Nr:Datum:Temp:Feuchte:Taupunkt:
Aussen-T/F 676 14-03-2019 03:00:00 4.46667 C 93.0000 % 3.44 C
677 14-03-2019 04:00:00 5.05 C 93.3333 % 4.07 C
678 14-03-2019 05:00:00 5.73333 C 91.6667 % 4.49 C
679 14-03-2019 06:00:00 6.13333 C 89.2500 % 4.5 C
680 14-03-2019 07:00:00 6.35 C 87.2500 % 4.39 C
681 14-03-2019 08:00:00 6.70833 C 85.5833 % 4.47 C
682 14-03-2019 09:00:00 6.41667 C 88.8333 % 4.71 C
683 14-03-2019 10:00:00 6.55 C 88.2500 % 4.75 C
684 14-03-2019 11:00:00 6.55833 C 89.0833 % 4.89 C
685 14-03-2019 12:00:00 7.15 C 88.7500 % 5.42 C
686 14-03-2019 13:00:00 7.30833 C 88.5000 % 5.54 C
687 14-03-2019 14:00:00 7.33333 C 87.9167 % 5.47 C
688 14-03-2019 15:00:00 7.69167 C 90.1667 % 6.18 C
689 14-03-2019 16:00:00 8.875 C 86.1667 % 6.69 C
690 14-03-2019 17:00:00 9.85833 C 84.6667 % 7.4 C
691 14-03-2019 18:00:00 9.875 C 82.5833 % 7.05 C
692 14-03-2019 19:00:00 9.54167 C 77.4167 % 5.79 C
693 14-03-2019 20:00:00 7.96667 C 85.0833 % 5.62 C
694 14-03-2019 21:00:00 8.2 C 83.0000 % 5.49 C
695 14-03-2019 22:00:00 8.38333 C 79.7500 % 5.1 C
696 14-03-2019 23:00:00 8.11667 C 79.2500 % 4.75 C
697 15-03-2019 00:00:00 7.11667 C 83.0000 % 4.43 C
698 15-03-2019 01:00:00 6.38333 C 85.8333 % 4.19 C
699 15-03-2019 02:00:00 6.86667 C 85.5833 % 4.62 C
700 15-03-2019 03:00:00 6.40833 C 87.0000 % 4.41 C
Sensor: Nr:Datum:Temp:Feuchte:Taupunkt:
Aussen-T/F 701 15-03-2019 04:00:00 6.04167 C 89.3333 % 4.42 C
702 15-03-2019 05:00:00 7.00833 C 87.5833 % 5.09 C
703 15-03-2019 06:00:00 7.225 C 90.0000 % 5.7 C
704 15-03-2019 07:00:00 7.125 C 92.8333 % 6.05 C
705 15-03-2019 08:00:00 7.49167 C 94.0000 % 6.59 C
706 15-03-2019 09:00:00 8.2 C 94.0000 % 7.29 C
707 15-03-2019 10:00:00 9.375 C 94.0000 % 8.46 C
708 15-03-2019 11:00:00 11.05 C 91.5833 % 9.73 C
709 15-03-2019 12:00:00 12.38333 C 88.5000 % 10.54 C
710 15-03-2019 13:00:00 13.11667 C 84.5833 % 10.58 C
711 15-03-2019 14:00:00 13.66667 C 80.9167 % 10.45 C
712 15-03-2019 15:00:00 13.51667 C 82.7500 % 10.64 C
713 15-03-2019 16:00:00 13.38333 C 82.0000 % 10.38 C
714 15-03-2019 17:00:00 13.03333 C 82.7500 % 10.17 C
715 15-03-2019 18:00:00 12.70833 C 84.2500 % 10.12 C
716 15-03-2019 19:00:00 12.64167 C 84.5833 % 10.12 C
717 15-03-2019 20:00:00 12.10833 C 88.0833 % 10.2 C
718 15-03-2019 21:00:00 12.25 C 86.6667 % 10.09 C
719 15-03-2019 22:00:00 12.4 C 85.1667 % 9.98 C
720 15-03-2019 23:00:00 11.85833 C 87.8333 % 9.91 C
721 16-03-2019 00:00:00 11.575 C 88.5000 % 9.74 C
722 16-03-2019 01:00:00 9.79167 C 91.7500 % 8.52 C
723 16-03-2019 02:00:00 8.93333 C 92.1667 % 7.73 C
724 16-03-2019 03:00:00 8.41667 C 93.7500 % 7.47 C
725 16-03-2019 04:00:00 8.3 C 95.0000 % 7.55 C
Sensor: Nr:Datum:Temp:Feuchte:Taupunkt:
Aussen-T/F 726 16-03-2019 05:00:00 8.3 C 95.0833 % 7.56 C
727 16-03-2019 06:00:00 8.73333 C 96.3333 % 8.18 C
728 16-03-2019 07:00:00 9.88333 C 95.0833 % 9.13 C
729 16-03-2019 08:00:00 10.375 C 93.1667 % 9.32 C
730 16-03-2019 09:00:00 10.71667 C 91.7500 % 9.43 C
731 16-03-2019 10:00:00 10.84167 C 90.0000 % 9.27 C
732 16-03-2019 11:00:00 10.825 C 89.2500 % 9.13 C
733 16-03-2019 12:00:00 11.46667 C 84.0000 % 8.86 C
734 16-03-2019 13:00:00 11.75833 C 80.0000 % 8.43 C
735 16-03-2019 14:00:00 11.125 C 80.8333 % 7.96 C
736 16-03-2019 15:00:00 10.94167 C 78.5833 % 7.37 C
737 16-03-2019 16:00:00 10.99167 C 77.4167 % 7.2 C
738 16-03-2019 17:00:00 10.9 C 76.2500 % 6.89 C
739 16-03-2019 18:00:00 10.69167 C 76.4167 % 6.72 C
740 16-03-2019 19:00:00 10.43333 C 76.0000 % 6.39 C
741 16-03-2019 20:00:00 10.31667 C 75.5000 % 6.18 C
742 16-03-2019 21:00:00 10.10833 C 78.0833 % 6.47 C
743 16-03-2019 22:00:00 10.09167 C 79.0833 % 6.64 C
744 16-03-2019 23:00:00 10.11667 C 79.0000 % 6.64 C
745 17-03-2019 00:00:00 10.29167 C 77.8333 % 6.6 C
746 17-03-2019 01:00:00 10.425 C 77.0000 % 6.57 C
747 17-03-2019 02:00:00 10.20833 C 77.5833 % 6.47 C
748 17-03-2019 03:00:00 10.19167 C 77.0000 % 6.35 C
749 17-03-2019 04:00:00 10.11667 C 76.0833 % 6.1 C
750 17-03-2019 05:00:00 10.28333 C 74.7500 % 6.01 C
Sensor: Nr:Datum:Temp:Feuchte:Taupunkt:
Aussen-T/F 751 17-03-2019 06:00:00 10.23333 C 74.2500 % 5.86 C
752 17-03-2019 07:00:00 10.24167 C 76.0000 % 6.2 C
753 17-03-2019 08:00:00 10.2 C 78.8333 % 6.7 C
754 17-03-2019 09:00:00 10.26667 C 79.6667 % 6.91 C
755 17-03-2019 10:00:00 9.89167 C 82.5833 % 7.07 C
756 17-03-2019 11:00:00 8.075 C 84.0000 % 5.54 C
757 17-03-2019 12:00:00 8.78333 C 79.0000 % 5.35 C
758 17-03-2019 13:00:00 9.80833 C 75.7500 % 5.74 C
759 17-03-2019 14:00:00 10.71667 C 64.5833 % 4.32 C
760 17-03-2019 15:00:00 11.01667 C 65.4167 % 4.79 C
761 17-03-2019 16:00:00 10.05 C 64.5833 % 3.69 C
762 17-03-2019 17:00:00 7.89167 C 69.4167 % 2.65 C
763 17-03-2019 18:00:00 7.01667 C 75.5833 % 3.01 C
764 17-03-2019 19:00:00 5.95833 C 80.5833 % 2.88 C
765 17-03-2019 20:00:00 4.51667 C 88.8333 % 2.84 C
766 17-03-2019 21:00:00 4.025 C 90.4167 % 2.6 C
767 17-03-2019 22:00:00 3.875 C 89.8333 % 2.36 C
768 17-03-2019 23:00:00 3.83333 C 88.0000 % 2.03 C
769 18-03-2019 00:00:00 2.95 C 90.0000 % 1.48 C
770 18-03-2019 01:00:00 2.55 C 91.6667 % 1.33 C
771 18-03-2019 02:00:00 3.225 C 91.0000 % 1.9 C
772 18-03-2019 03:00:00 3.61667 C 88.3333 % 1.87 C
773 18-03-2019 04:00:00 3.25 C 89.5000 % 1.69 C
774 18-03-2019 05:00:00 3.10833 C 89.5833 % 1.57 C
775 18-03-2019 06:00:00 3.95833 C 86.5000 % 1.92 C
Sensor: Nr:Datum:Temp:Feuchte:Taupunkt:
Aussen-T/F 776 18-03-2019 07:00:00 4.225 C 86.4167 % 2.16 C
777 18-03-2019 08:00:00 5.04167 C 85.7500 % 2.86 C
778 18-03-2019 09:00:00 5.06667 C 89.5833 % 3.5 C
779 18-03-2019 10:00:00 6.36667 C 85.6667 % 4.15 C
780 18-03-2019 11:00:00 7.74167 C 77.4167 % 4.05 C
781 18-03-2019 12:00:00 8.06667 C 71.9167 % 3.32 C
782 18-03-2019 13:00:00 6.66667 C 84.8333 % 4.3 C
783 18-03-2019 14:00:00 8.43333 C 72.7500 % 3.83 C
784 18-03-2019 15:00:00 6.71667 C 85.9167 % 4.53 C
785 18-03-2019 16:00:00 6.875 C 86.1667 % 4.73 C
786 18-03-2019 17:00:00 7.95833 C 74.3333 % 3.68 C
787 18-03-2019 18:00:00 7.49167 C 75.3333 % 3.42 C
788 18-03-2019 19:00:00 5.20833 C 85.3333 % 2.95 C
789 18-03-2019 20:00:00 4.01667 C 86.0000 % 1.89 C
790 18-03-2019 21:00:00 3.09167 C 87.9167 % 1.29 C
791 18-03-2019 22:00:00 2.04167 C 89.7500 % 0.54 C
792 18-03-2019 23:00:00 1.48333 C 91.8333 % 0.3 C
793 19-03-2019 00:00:00 0.93333 C 92.3333 % -0.17 C
794 19-03-2019 01:00:00 0.35833 C 93.0000 % -0.64 C
795 19-03-2019 02:00:00 -0.04167 C 93.6667 % -0.94 C
796 19-03-2019 03:00:00 -0.3 C 94.0000 % -1.15 C
797 19-03-2019 04:00:00 -0.70833 C 94.0000 % -1.55 C
798 19-03-2019 05:00:00 -1.03333 C 94.2500 % -1.84 C
799 19-03-2019 06:00:00 -1.2 C 94.6667 % -1.94 C
800 19-03-2019 07:00:00 -0.375 C 95.1667 % -1.05 C
Sensor: Nr:Datum:Temp:Feuchte:Taupunkt:
Aussen-T/F 801 19-03-2019 08:00:00 -0.04167 C 95.0000 % -0.74 C
802 19-03-2019 09:00:00 0.675 C 95.0833 % -0.02 C
803 19-03-2019 10:00:00 2.36667 C 94.5833 % 1.59 C
804 19-03-2019 11:00:00 5.125 C 86.3333 % 3.04 C
805 19-03-2019 12:00:00 7.29167 C 68.6667 % 1.92 C
806 19-03-2019 13:00:00 8.93333 C 58.5000 % 1.25 C
807 19-03-2019 14:00:00 9.975 C 56.5000 % 1.74 C
808 19-03-2019 15:00:00 10.15 C 53.2500 % 1.08 C
809 19-03-2019 16:00:00 11.51667 C 48.5000 % 1.05 C
810 19-03-2019 17:00:00 12.00833 C 45.3333 % 0.56 C
811 19-03-2019 18:00:00 9.65 C 60.7500 % 2.45 C
812 19-03-2019 19:00:00 5.6 C 77.1667 % 1.92 C
813 19-03-2019 20:00:00 4.4 C 81.5000 % 1.52 C
814 19-03-2019 21:00:00 3.1 C 85.0000 % 0.83 C
815 19-03-2019 22:00:00 2.025 C 87.0000 % 0.09 C
816 19-03-2019 23:00:00 1.68333 C 87.7500 % -0.12 C
817 20-03-2019 00:00:00 0.8 C 89.1667 % -0.78 C
818 20-03-2019 01:00:00 0.35833 C 90.8333 % -0.96 C
819 20-03-2019 02:00:00 -0.16667 C 91.4167 % -1.39 C
820 20-03-2019 03:00:00 -0.55 C 92.0000 % -1.69 C
821 20-03-2019 04:00:00 -0.90833 C 92.7500 % -1.93 C
822 20-03-2019 05:00:00 -1.10833 C 93.0833 % -2.08 C
823 20-03-2019 06:00:00 -1.225 C 93.7500 % -2.1 C
824 20-03-2019 07:00:00 -1.08333 C 94.0000 % -1.92 C
825 20-03-2019 08:00:00 -0.675 C 94.5000 % -1.45 C
Sensor: Nr:Datum:Temp:Feuchte:Taupunkt:
Aussen-T/F 826 20-03-2019 09:00:00 0.575 C 95.0000 % -0.13 C
827 20-03-2019 10:00:00 4.26667 C 89.9167 % 2.76 C
828 20-03-2019 11:00:00 8.875 C 69.3333 % 3.58 C
829 20-03-2019 12:00:00 11.63333 C 56.5833 % 3.31 C
830 20-03-2019 13:00:00 13.15833 C 48.3333 % 2.5 C
831 20-03-2019 14:00:00 13.75833 C 46.4167 % 2.48 C
832 20-03-2019 15:00:00 13.64167 C 47.5833 % 2.73 C
833 20-03-2019 16:00:00 14.11667 C 48.2500 % 3.36 C
834 20-03-2019 17:00:00 14.83333 C 49.5000 % 4.38 C
835 20-03-2019 18:00:00 11.88333 C 63.3333 % 5.15 C
836 20-03-2019 19:00:00 8.5 C 73.3333 % 4.01 C
837 20-03-2019 20:00:00 6.85 C 79.2500 % 3.51 C
838 20-03-2019 21:00:00 5.43333 C 83.6667 % 2.9 C
839 20-03-2019 22:00:00 4.725 C 85.5000 % 2.51 C
840 20-03-2019 23:00:00 3.81667 C 87.4167 % 1.92 C
841 21-03-2019 00:00:00 3.31667 C 88.6667 % 1.63 C
842 21-03-2019 01:00:00 2.55 C 89.0833 % 0.94 C
843 21-03-2019 02:00:00 1.81667 C 90.9167 % 0.5 C
844 21-03-2019 03:00:00 1.30833 C 91.8333 % 0.13 C
845 21-03-2019 04:00:00 0.99167 C 92.8333 % -0.03 C
846 21-03-2019 05:00:00 0.61667 C 93.3333 % -0.33 C
847 21-03-2019 06:00:00 0.33333 C 93.9167 % -0.53 C
848 21-03-2019 07:00:00 0.6 C 94.3333 % -0.2 C
849 21-03-2019 08:00:00 1.24167 C 94.9167 % 0.52 C
850 21-03-2019 09:00:00 2.50833 C 95.0000 % 1.79 C
Sensor: Nr:Datum:Temp:Feuchte:Taupunkt:
Aussen-T/F 851 21-03-2019 10:00:00 5.54167 C 90.4167 % 4.1 C
852 21-03-2019 11:00:00 9.275 C 75.5833 % 5.19 C
853 21-03-2019 12:00:00 12.99167 C 53.9167 % 3.89 C
854 21-03-2019 13:00:00 15.43333 C 43.5000 % 3.09 C
855 21-03-2019 14:00:00 16.23333 C 39.4167 % 2.43 C
856 21-03-2019 15:00:00 16.43333 C 39.0000 % 2.46 C
857 21-03-2019 16:00:00 17.625 C 37.7500 % 3.06 C
858 21-03-2019 17:00:00 18.01667 C 38.0000 % 3.5 C
859 21-03-2019 18:00:00 14.68333 C 52.6667 % 5.13 C
860 21-03-2019 19:00:00 10.96667 C 64.2500 % 4.49 C
861 21-03-2019 20:00:00 9.20833 C 71.7500 % 4.38 C
862 21-03-2019 21:00:00 7.65 C 74.8333 % 3.48 C
863 21-03-2019 22:00:00 6.15833 C 78.6667 % 2.74 C
864 21-03-2019 23:00:00 5.26667 C 82.0000 % 2.45 C
865 22-03-2019 00:00:00 4.425 C 84.7500 % 2.09 C
866 22-03-2019 01:00:00 3.69167 C 87.2500 % 1.77 C
867 22-03-2019 02:00:00 3.03333 C 88.4167 % 1.31 C
868 22-03-2019 03:00:00 2.20833 C 90.0833 % 0.76 C
869 22-03-2019 04:00:00 1.74167 C 92.0000 % 0.58 C
870 22-03-2019 05:00:00 1.53333 C 92.9167 % 0.52 C
871 22-03-2019 06:00:00 1.06667 C 93.1667 % 0.09 C
872 22-03-2019 07:00:00 1.24167 C 94.0000 % 0.39 C
873 22-03-2019 08:00:00 1.95833 C 94.9167 % 1.23 C
874 22-03-2019 09:00:00 3.70833 C 95.3333 % 3.03 C
875 22-03-2019 10:00:00 7.06667 C 90.1667 % 5.57 C
Sensor: Nr:Datum:Temp:Feuchte:Taupunkt:
Aussen-T/F 876 22-03-2019 11:00:00 11.70833 C 72.9167 % 7.02 C
877 22-03-2019 12:00:00 15.65 C 53.0833 % 6.13 C
878 22-03-2019 13:00:00 18.11667 C 41.8333 % 4.96 C
879 22-03-2019 14:00:00 19.29167 C 36.0000 % 3.86 C
880 22-03-2019 15:00:00 19.26667 C 38.6667 % 4.86 C
881 22-03-2019 16:00:00 19.83333 C 37.7500 % 5.02 C
882 22-03-2019 17:00:00 20.95833 C 35.4167 % 5.1 C
883 22-03-2019 18:00:00 16.7 C 50.5833 % 6.41 C
884 22-03-2019 19:00:00 12.225 C 63.5000 % 5.51 C
885 22-03-2019 20:00:00 10.825 C 68.0833 % 5.18 C
886 22-03-2019 21:00:00 9.1 C 72.7500 % 4.48 C
887 22-03-2019 22:00:00 7.775 C 77.9167 % 4.17 C
888 22-03-2019 23:00:00 6.66667 C 80.2500 % 3.51 C
889 23-03-2019 00:00:00 5.5 C 83.0000 % 2.85 C
890 23-03-2019 01:00:00 4.74167 C 85.5000 % 2.52 C
891 23-03-2019 02:00:00 4.05 C 88.1667 % 2.27 C
892 23-03-2019 03:00:00 3.69167 C 88.9167 % 2.04 C
893 23-03-2019 04:00:00 3.425 C 90.0833 % 1.96 C
894 23-03-2019 05:00:00 3.28333 C 89.8333 % 1.78 C
895 23-03-2019 06:00:00 2.525 C 91.1667 % 1.23 C
896 23-03-2019 07:00:00 4.06667 C 94.2500 % 3.23 C
897 23-03-2019 08:00:00 6.20833 C 95.0000 % 5.47 C
898 23-03-2019 09:00:00 6.63333 C 94.3333 % 5.79 C
899 23-03-2019 10:00:00 7.18333 C 93.7500 % 6.25 C
900 23-03-2019 11:00:00 7.53333 C 92.5833 % 6.41 C
Sensor: Nr:Datum:Temp:Feuchte:Taupunkt:
Aussen-T/F 901 23-03-2019 12:00:00 8.125 C 90.0000 % 6.59 C
902 23-03-2019 13:00:00 8.775 C 86.3333 % 6.62 C
903 23-03-2019 14:00:00 9.45 C 81.4167 % 6.43 C
904 23-03-2019 15:00:00 10.08333 C 77.5000 % 6.33 C
905 23-03-2019 16:00:00 10.425 C 74.6667 % 6.13 C
906 23-03-2019 17:00:00 10.425 C 74.1667 % 6.03 C
907 23-03-2019 18:00:00 9.175 C 77.4167 % 5.44 C
908 23-03-2019 19:00:00 6.80833 C 85.0833 % 4.48 C
909 23-03-2019 20:00:00 5.38333 C 88.7500 % 3.68 C
910 23-03-2019 21:00:00 4.33333 C 91.2500 % 3.04 C
911 23-03-2019 22:00:00 3.55833 C 92.9167 % 2.52 C
912 23-03-2019 23:00:00 3.075 C 94.0000 % 2.21 C
913 24-03-2019 00:00:00 2.4 C 94.3333 % 1.58 C
914 24-03-2019 01:00:00 1.9 C 94.8333 % 1.16 C
915 24-03-2019 02:00:00 1.425 C 95.0000 % 0.71 C
916 24-03-2019 03:00:00 0.96667 C 95.0000 % 0.26 C
917 24-03-2019 04:00:00 0.89167 C 95.8333 % 0.3 C
918 24-03-2019 05:00:00 1.725 C 96.0000 % 1.16 C
919 24-03-2019 07:00:00 2.78182 C 96.0000 % 2.21 C
920 24-03-2019 08:00:00 3.66667 C 96.7500 % 3.2 C
921 24-03-2019 09:00:00 4.85 C 95.6667 % 4.22 C
922 24-03-2019 10:00:00 6.875 C 92.4167 % 5.73 C
923 24-03-2019 11:00:00 9.54167 C 85.4167 % 7.22 C
924 24-03-2019 12:00:00 11.74167 C 76.9167 % 7.83 C
925 24-03-2019 13:00:00 10.88333 C 81.2500 % 7.8 C
Sensor: Nr:Datum:Temp:Feuchte:Taupunkt:
Aussen-T/F 926 24-03-2019 14:00:00 10.64167 C 82.5833 % 7.8 C
927 24-03-2019 15:00:00 11.09167 C 78.2500 % 7.45 C
928 24-03-2019 16:00:00 12.03333 C 71.6667 % 7.08 C
929 24-03-2019 17:00:00 12.28333 C 65.0000 % 5.9 C
930 24-03-2019 18:00:00 11.30833 C 62.4167 % 4.4 C
931 24-03-2019 19:00:00 9.075 C 65.0833 % 2.87 C
932 24-03-2019 20:00:00 7.18333 C 70.8333 % 2.26 C
933 24-03-2019 21:00:00 5.59167 C 76.3333 % 1.77 C
934 24-03-2019 22:00:00 4.23333 C 80.7500 % 1.23 C
935 24-03-2019 23:00:00 3.56667 C 82.7500 % 0.92 C
936 25-03-2019 00:00:00 3.35 C 82.5000 % 0.66 C
937 25-03-2019 01:00:00 1.875 C 86.4167 % -0.15 C
938 25-03-2019 02:00:00 1.89167 C 88.9167 % 0.26 C
939 25-03-2019 03:00:00 2.29167 C 88.0000 % 0.51 C
940 25-03-2019 04:00:00 2.85833 C 86.0833 % 0.77 C
941 25-03-2019 05:00:00 3.675 C 82.4167 % 0.97 C
942 25-03-2019 06:00:00 3.74167 C 83.0833 % 1.14 C
943 25-03-2019 07:00:00 4.38333 C 84.8333 % 2.06 C
944 25-03-2019 08:00:00 4.56667 C 91.0000 % 3.23 C
945 25-03-2019 09:00:00 6.15 C 85.2500 % 3.86 C
946 25-03-2019 10:00:00 7.41667 C 74.3333 % 3.16 C
947 25-03-2019 11:00:00 7.375 C 75.6667 % 3.37 C
948 25-03-2019 12:00:00 7.725 C 77.6667 % 4.08 C
949 25-03-2019 13:00:00 7.55 C 80.6667 % 4.45 C
950 25-03-2019 14:00:00 7.65833 C 76.7500 % 3.84 C
Sensor: Nr:Datum:Temp:Feuchte:Taupunkt:
Aussen-T/F 951 25-03-2019 15:00:00 7.18333 C 83.7500 % 4.62 C
952 25-03-2019 16:00:00 7.29167 C 84.0833 % 4.79 C
953 25-03-2019 17:00:00 5.71667 C 89.9167 % 4.19 C
954 25-03-2019 18:00:00 5.3 C 93.2500 % 4.3 C
955 25-03-2019 19:00:00 5.04167 C 93.8333 % 4.13 C
956 25-03-2019 20:00:00 5.1 C 94.7500 % 4.33 C
957 25-03-2019 21:00:00 5.24167 C 95.0000 % 4.51 C
958 25-03-2019 22:00:00 5.15833 C 93.0833 % 4.13 C
959 25-03-2019 23:00:00 4.65 C 93.3333 % 3.67 C
960 26-03-2019 00:00:00 4.49167 C 94.5833 % 3.7 C
961 26-03-2019 01:00:00 4.525 C 94.0000 % 3.65 C
962 26-03-2019 02:00:00 4.375 C 94.9167 % 3.63 C
963 26-03-2019 03:00:00 4.64167 C 95.0000 % 3.91 C
964 26-03-2019 04:00:00 4.91667 C 95.0000 % 4.18 C
965 26-03-2019 05:00:00 5.00833 C 93.7500 % 4.09 C
966 26-03-2019 06:00:00 4.99167 C 91.7500 % 3.76 C
967 26-03-2019 07:00:00 5.06667 C 90.0833 % 3.58 C
968 26-03-2019 08:00:00 5.55 C 85.1667 % 3.26 C
969 26-03-2019 09:00:00 6.225 C 80.1667 % 3.07 C
970 26-03-2019 10:00:00 6.98333 C 76.4167 % 3.13 C
971 26-03-2019 11:00:00 7.26667 C 71.8333 % 2.53 C
972 26-03-2019 12:00:00 8.46667 C 69.5833 % 3.24 C
973 26-03-2019 13:00:00 8.85 C 66.0000 % 2.86 C
974 26-03-2019 14:00:00 8.875 C 65.0000 % 2.67 C
975 26-03-2019 15:00:00 9.03333 C 66.5833 % 3.15 C
Sensor: Nr:Datum:Temp:Feuchte:Taupunkt:
Aussen-T/F 976 26-03-2019 16:00:00 9.49167 C 64.7500 % 3.2 C
977 26-03-2019 17:00:00 8.43333 C 71.1667 % 3.52 C
978 26-03-2019 18:00:00 8.11667 C 73.9167 % 3.75 C
979 26-03-2019 19:00:00 7.59167 C 78.6667 % 4.13 C
980 26-03-2019 20:00:00 7.075 C 82.1667 % 4.25 C
981 26-03-2019 21:00:00 6.81667 C 84.0833 % 4.32 C
982 26-03-2019 22:00:00 6.51667 C 86.2500 % 4.39 C
983 26-03-2019 23:00:00 6.24167 C 87.0833 % 4.26 C
984 27-03-2019 00:00:00 6.10833 C 87.5000 % 4.19 C
985 27-03-2019 01:00:00 5.575 C 89.0833 % 3.92 C
986 27-03-2019 02:00:00 5.25 C 90.5000 % 3.83 C
987 27-03-2019 03:00:00 4.9 C 90.6667 % 3.51 C
988 27-03-2019 04:00:00 4.05833 C 91.0000 % 2.73 C
989 27-03-2019 05:00:00 2.91667 C 91.9167 % 1.74 C
990 27-03-2019 06:00:00 2.1 C 93.4167 % 1.15 C
991 27-03-2019 07:00:00 2.6 C 94.5833 % 1.82 C
992 27-03-2019 08:00:00 3.88333 C 94.6667 % 3.11 C
993 27-03-2019 09:00:00 5.8 C 91.8333 % 4.58 C
994 27-03-2019 10:00:00 8.16667 C 83.7500 % 5.59 C
995 27-03-2019 11:00:00 9.13333 C 76.5000 % 5.23 C
996 27-03-2019 12:00:00 10.05 C 69.5000 % 4.73 C
997 27-03-2019 13:00:00 10.8 C 63.5833 % 4.18 C
998 27-03-2019 14:00:00 11.05 C 61.0000 % 3.83 C
999 27-03-2019 15:00:00 11.10833 C 60.2500 % 3.71 C
1000 27-03-2019 16:00:00 11.23333 C 59.2500 % 3.59 C
Sensor: Nr:Datum:Temp:Feuchte:Taupunkt:
Aussen-T/F 1001 27-03-2019 17:00:00 10.975 C 59.9167 % 3.5 C
1002 27-03-2019 18:00:00 9.83333 C 68.5833 % 4.34 C
1003 27-03-2019 19:00:00 7.64167 C 77.2500 % 3.92 C
1004 27-03-2019 20:00:00 6.49167 C 81.6667 % 3.59 C
1005 27-03-2019 21:00:00 5.69167 C 84.9167 % 3.36 C
1006 27-03-2019 22:00:00 4.725 C 86.8333 % 2.72 C
1007 27-03-2019 23:00:00 3.475 C 89.9167 % 1.98 C
1008 28-03-2019 00:00:00 2.925 C 91.8333 % 1.73 C
1009 28-03-2019 01:00:00 2.475 C 92.3333 % 1.36 C
1010 28-03-2019 02:00:00 1.975 C 93.0000 % 0.97 C
1011 28-03-2019 03:00:00 1.60833 C 93.7500 % 0.71 C
1012 28-03-2019 04:00:00 1.375 C 94.0000 % 0.52 C
1013 28-03-2019 05:00:00 1.13333 C 94.5000 % 0.35 C
1014 28-03-2019 06:00:00 1.59167 C 95.0000 % 0.88 C
1015 28-03-2019 07:00:00 2.11667 C 95.0000 % 1.4 C
1016 28-03-2019 08:00:00 2.79167 C 94.7500 % 2.04 C
1017 28-03-2019 09:00:00 4.425 C 92.7500 % 3.36 C
1018 28-03-2019 10:00:00 7.30833 C 84.6667 % 4.9 C
1019 28-03-2019 11:00:00 10.325 C 75.8333 % 6.25 C
1020 28-03-2019 12:00:00 12.53333 C 66.8333 % 6.54 C
1021 28-03-2019 13:00:00 13.21667 C 65.8333 % 6.97 C
1022 28-03-2019 14:00:00 13.5 C 64.2500 % 6.89 C
1023 28-03-2019 15:00:00 13.4 C 63.6667 % 6.66 C
1024 28-03-2019 16:00:00 13.45833 C 62.7500 % 6.51 C
1025 28-03-2019 17:00:00 13.19167 C 63.7500 % 6.48 C
Sensor: Nr:Datum:Temp:Feuchte:Taupunkt:
Aussen-T/F 1026 28-03-2019 18:00:00 12.16667 C 70.4167 % 6.95 C
1027 28-03-2019 19:00:00 10.36667 C 78.1667 % 6.73 C
1028 28-03-2019 20:00:00 10.23333 C 78.5000 % 6.67 C
1029 28-03-2019 21:00:00 9.50833 C 79.8333 % 6.21 C
1030 28-03-2019 22:00:00 7.88333 C 83.8333 % 5.32 C
1031 28-03-2019 23:00:00 6.3 C 87.8333 % 4.44 C
1032 29-03-2019 00:00:00 5.28333 C 90.5833 % 3.87 C
1033 29-03-2019 01:00:00 4.35 C 92.2500 % 3.21 C
1034 29-03-2019 02:00:00 3.85833 C 93.5000 % 2.91 C
1035 29-03-2019 03:00:00 3.05833 C 94.0000 % 2.19 C
1036 29-03-2019 04:00:00 2.89167 C 95.0000 % 2.17 C
1037 29-03-2019 05:00:00 2.18333 C 95.0000 % 1.47 C
1038 29-03-2019 06:00:00 2.075 C 95.0000 % 1.36 C
1039 29-03-2019 07:00:00 2.175 C 95.8333 % 1.58 C
1040 29-03-2019 08:00:00 2.93333 C 96.0833 % 2.37 C
1041 29-03-2019 09:00:00 4.94167 C 96.9167 % 4.49 C
1042 29-03-2019 10:00:00 8.09167 C 95.9167 % 7.48 C
1043 29-03-2019 11:00:00 12.48333 C 77.7500 % 8.71 C
1044 29-03-2019 12:00:00 14.475 C 66.7500 % 8.37 C
1045 29-03-2019 13:00:00 15.93333 C 60.0000 % 8.18 C
1046 29-03-2019 14:00:00 16.83333 C 55.2500 % 7.81 C
1047 29-03-2019 15:00:00 17.475 C 52.4167 % 7.64 C
1048 29-03-2019 16:00:00 18.41667 C 49.6667 % 7.72 C
1049 29-03-2019 17:00:00 18.94167 C 47.4167 % 7.52 C
1050 29-03-2019 18:00:00 16.95833 C 53.8333 % 7.55 C
Sensor: Nr:Datum:Temp:Feuchte:Taupunkt:
Aussen-T/F 1051 29-03-2019 19:00:00 11.55 C 70.0833 % 6.29 C
1052 29-03-2019 20:00:00 9.86667 C 76.2500 % 5.89 C
1053 29-03-2019 21:00:00 8.10833 C 81.3333 % 5.11 C
1054 29-03-2019 22:00:00 6.7 C 84.5000 % 4.28 C
1055 29-03-2019 23:00:00 5.575 C 87.1667 % 3.61 C
1056 30-03-2019 00:00:00 4.59167 C 89.8333 % 3.07 C
1057 30-03-2019 01:00:00 4 C 91.5833 % 2.76 C
1058 30-03-2019 02:00:00 3.45 C 92.3333 % 2.33 C
1059 30-03-2019 03:00:00 2.8 C 93.5833 % 1.87 C
1060 30-03-2019 04:00:00 2.48333 C 94.0000 % 1.62 C
1061 30-03-2019 05:00:00 1.875 C 94.2500 % 1.05 C
1062 30-03-2019 06:00:00 1.73333 C 95.0000 % 1.02 C
1063 30-03-2019 07:00:00 2.11667 C 95.6667 % 1.5 C
1064 30-03-2019 08:00:00 3.35833 C 96.0833 % 2.79 C
1065 30-03-2019 09:00:00 5.45 C 96.6667 % 4.96 C
1066 30-03-2019 10:00:00 8.84167 C 90.8333 % 7.43 C
1067 30-03-2019 11:00:00 13.74167 C 70.4167 % 8.46 C
1068 30-03-2019 12:00:00 17.6 C 50.0000 % 7.06 C
1069 30-03-2019 13:00:00 19.30833 C 41.2500 % 5.83 C
1070 30-03-2019 14:00:00 19.93333 C 38.1667 % 5.27 C
1071 30-03-2019 15:00:00 20.41667 C 37.0000 % 5.25 C
1072 30-03-2019 16:00:00 20.54167 C 38.9167 % 6.09 C
1073 30-03-2019 17:00:00 19.46667 C 43.0833 % 6.6 C
1074 30-03-2019 18:00:00 17.30833 C 53.5000 % 7.78 C
1075 30-03-2019 19:00:00 14.88333 C 59.3333 % 7.03 C
Sensor: Nr:Datum:Temp:Feuchte:Taupunkt:
Aussen-T/F 1076 30-03-2019 20:00:00 13.79167 C 64.3333 % 7.18 C
1077 30-03-2019 21:00:00 12.4 C 69.5833 % 7 C
1078 30-03-2019 22:00:00 11.125 C 75.0000 % 6.87 C
1079 30-03-2019 23:00:00 10.80833 C 75.5833 % 6.67 C
1080 31-03-2019 00:00:00 9.55833 C 77.0833 % 5.75 C
1081 31-03-2019 01:00:00 8.38333 C 81.7500 % 5.45 C
1082 31-03-2019 02:00:00 7.30833 C 84.0000 % 4.79 C
1083 31-03-2019 04:00:00 6.45 C 85.8333 % 4.26 C
1084 31-03-2019 05:00:00 5.15 C 88.8333 % 3.46 C
1085 31-03-2019 06:00:00 4.95 C 90.5000 % 3.53 C
1086 31-03-2019 07:00:00 4.78333 C 90.8333 % 3.42 C
1087 31-03-2019 08:00:00 4.70833 C 91.9167 % 3.51 C
1088 31-03-2019 09:00:00 5.50833 C 92.9167 % 4.46 C
1089 31-03-2019 10:00:00 8 C 91.1667 % 6.65 C
1090 31-03-2019 11:00:00 11.51667 C 78.5833 % 7.93 C
1091 31-03-2019 12:00:00 14.56667 C 65.9167 % 8.28 C
1092 31-03-2019 13:00:00 16.74167 C 55.6667 % 7.84 C
1093 31-03-2019 14:00:00 18.34167 C 50.4167 % 7.87 C
1094 31-03-2019 15:00:00 18.825 C 48.1667 % 7.64 C
1095 31-03-2019 16:00:00 15.925 C 72.8333 % 11.06 C
1096 31-03-2019 17:00:00 14.2 C 89.6667 % 12.53 C
1097 31-03-2019 18:00:00 15.28333 C 76.0833 % 11.1 C
1098 31-03-2019 19:00:00 12.74167 C 80.6667 % 9.51 C
1099 31-03-2019 20:00:00 10.11667 C 87.0000 % 8.05 C
1100 31-03-2019 21:00:00 8.95 C 87.8333 % 7.05 C
Sensor: Nr:Datum:Temp:Feuchte:Taupunkt:
Aussen-T/F 1101 31-03-2019 22:00:00 8.04167 C 87.7500 % 6.14 C
1102 31-03-2019 23:00:00 7.21667 C 88.0000 % 5.37 C
1103 01-04-2019 00:00:00 6.36667 C 89.0000 % 4.69 C
1104 01-04-2019 01:00:00 5.74167 C 89.3333 % 4.13 C
1105 01-04-2019 02:00:00 5.25 C 90.0000 % 3.75 C
1106 01-04-2019 03:00:00 4.69167 C 90.6667 % 3.3 C
1107 01-04-2019 04:00:00 4.31667 C 90.9167 % 2.97 C
1108 01-04-2019 05:00:00 3.975 C 91.0833 % 2.66 C
1109 01-04-2019 06:00:00 3.56667 C 91.7500 % 2.35 C
1110 01-04-2019 07:00:00 3.15 C 92.2500 % 2.02 C
1111 01-04-2019 08:00:00 3.16667 C 93.2500 % 2.18 C
1112 01-04-2019 09:00:00 4.29167 C 92.7500 % 3.22 C
1113 01-04-2019 10:00:00 6.65 C 83.5000 % 4.06 C
1114 01-04-2019 11:00:00 9.53333 C 71.2500 % 4.59 C
1115 01-04-2019 12:00:00 11.28333 C 65.7500 % 5.12 C
1116 01-04-2019 13:00:00 13.00833 C 61.3333 % 5.75 C
1117 01-04-2019 14:00:00 14.91667 C 56.9167 % 6.46 C
1118 01-04-2019 15:00:00 16.39167 C 53.7500 % 7 C
1119 01-04-2019 16:00:00 17.5 C 50.5000 % 7.12 C
1120 01-04-2019 17:00:00 18.275 C 47.6667 % 6.99 C
1121 01-04-2019 18:00:00 17.875 C 47.3333 % 6.52 C
1122 01-04-2019 19:00:00 16 C 55.9167 % 7.21 C
1123 01-04-2019 20:00:00 11.775 C 70.5000 % 6.59 C
1124 01-04-2019 21:00:00 10.15833 C 75.6667 % 6.06 C
1125 01-04-2019 22:00:00 9.35 C 77.0833 % 5.55 C
Sensor: Nr:Datum:Temp:Feuchte:Taupunkt:
Aussen-T/F 1126 01-04-2019 23:00:00 8.79167 C 77.4167 % 5.07 C
1127 02-04-2019 00:00:00 7.93333 C 80.5000 % 4.79 C
1128 02-04-2019 01:00:00 7.04167 C 83.1667 % 4.39 C
1129 02-04-2019 02:00:00 6.3 C 84.6667 % 3.91 C
1130 02-04-2019 03:00:00 5.09167 C 87.5000 % 3.19 C
1131 02-04-2019 04:00:00 4.39167 C 90.0833 % 2.91 C
1132 02-04-2019 05:00:00 3.96667 C 91.1667 % 2.66 C
1133 02-04-2019 06:00:00 3.88333 C 92.0833 % 2.72 C
1134 02-04-2019 07:00:00 4.00833 C 92.9167 % 2.97 C
1135 02-04-2019 08:00:00 4.98333 C 92.9167 % 3.94 C
1136 02-04-2019 09:00:00 6.53333 C 89.3333 % 4.91 C
1137 02-04-2019 10:00:00 8.71667 C 82.0000 % 5.82 C
1138 02-04-2019 11:00:00 11.95 C 74.9167 % 7.65 C
1139 02-04-2019 12:00:00 15.01667 C 66.7500 % 8.89 C
1140 02-04-2019 13:00:00 16.80833 C 60.8333 % 9.21 C
1141 02-04-2019 14:00:00 17.975 C 58.0833 % 9.62 C
1142 02-04-2019 15:00:00 16.725 C 63.9167 % 9.87 C
1143 02-04-2019 16:00:00 17.46667 C 57.6667 % 9.04 C
1144 02-04-2019 17:00:00 16.00833 C 65.9167 % 9.65 C
1145 02-04-2019 18:00:00 16.08333 C 63.5833 % 9.18 C
1146 02-04-2019 19:00:00 15.35833 C 66.0000 % 9.05 C
1147 02-04-2019 20:00:00 14.03333 C 71.0833 % 8.88 C
1148 02-04-2019 21:00:00 13.50833 C 69.4167 % 8.03 C
1149 02-04-2019 22:00:00 12.66667 C 70.1667 % 7.38 C
1150 02-04-2019 23:00:00 11.4 C 74.0833 % 6.95 C
Sensor: Nr:Datum:Temp:Feuchte:Taupunkt:
Aussen-T/F 1151 03-04-2019 00:00:00 10.50833 C 78.7500 % 6.98 C
1152 03-04-2019 01:00:00 10.275 C 79.6667 % 6.92 C
1153 03-04-2019 02:00:00 9.90833 C 81.5000 % 6.89 C
1154 03-04-2019 03:00:00 8.91667 C 84.7500 % 6.49 C
1155 03-04-2019 04:00:00 8.875 C 86.1667 % 6.69 C
1156 03-04-2019 05:00:00 8.6 C 86.5833 % 6.49 C
1157 03-04-2019 06:00:00 8.075 C 87.9167 % 6.2 C
1158 03-04-2019 07:00:00 8.64167 C 84.9167 % 6.25 C
1159 03-04-2019 08:00:00 8.86667 C 86.0833 % 6.67 C
1160 03-04-2019 09:00:00 7.66667 C 90.5000 % 6.21 C
1161 03-04-2019 10:00:00 7.025 C 91.5833 % 5.75 C
1162 03-04-2019 11:00:00 7.44167 C 91.9167 % 6.22 C
1163 03-04-2019 12:00:00 8.33333 C 88.9167 % 6.62 C
1164 03-04-2019 13:00:00 9.475 C 83.1667 % 6.77 C
1165 03-04-2019 14:00:00 9.43333 C 81.3333 % 6.4 C
1166 03-04-2019 15:00:00 10.05 C 79.7500 % 6.72 C
1167 03-04-2019 16:00:00 10.2 C 78.5000 % 6.63 C
1168 03-04-2019 17:00:00 9.45833 C 82.2500 % 6.59 C
1169 03-04-2019 18:00:00 7.93333 C 90.0833 % 6.41 C
1170 03-04-2019 19:00:00 7.025 C 92.7500 % 5.93 C
1171 03-04-2019 20:00:00 6.45 C 93.5833 % 5.49 C
1172 03-04-2019 21:00:00 6.23333 C 94.6667 % 5.44 C
1173 03-04-2019 22:00:00 5.875 C 95.0000 % 5.14 C
1174 03-04-2019 23:00:00 5.63333 C 95.0000 % 4.9 C
1175 04-04-2019 00:00:00 5.65 C 95.4167 % 4.98 C
Sensor: Nr:Datum:Temp:Feuchte:Taupunkt:
Aussen-T/F 1176 04-04-2019 01:00:00 5.325 C 95.6667 % 4.69 C
1177 04-04-2019 02:00:00 5.41667 C 96.0000 % 4.83 C
1178 04-04-2019 03:00:00 5.6 C 96.0000 % 5.01 C
1179 04-04-2019 04:00:00 5.54167 C 96.0000 % 4.96 C
1180 04-04-2019 05:00:00 5.60833 C 96.0000 % 5.02 C
1181 04-04-2019 06:00:00 5.475 C 96.0000 % 4.89 C
1182 04-04-2019 07:00:00 5.34167 C 96.0000 % 4.76 C
1183 04-04-2019 08:00:00 5.61667 C 96.0000 % 5.03 C
1184 04-04-2019 09:00:00 5.93333 C 96.4167 % 5.41 C
1185 04-04-2019 10:00:00 6.075 C 96.0000 % 5.49 C
1186 04-04-2019 11:00:00 6.65833 C 93.2500 % 5.65 C
1187 04-04-2019 12:00:00 6.95 C 89.4167 % 5.33 C
1188 04-04-2019 13:00:00 6.69167 C 91.6667 % 5.43 C
1189 04-04-2019 14:00:00 6.4 C 91.7500 % 5.16 C
1190 04-04-2019 15:00:00 6.85833 C 91.0833 % 5.51 C
1191 04-04-2019 16:00:00 7.08333 C 91.0000 % 5.72 C
1192 04-04-2019 17:00:00 7.43333 C 88.2500 % 5.62 C
1193 04-04-2019 18:00:00 7.56667 C 85.2500 % 5.25 C
1194 04-04-2019 19:00:00 7.25833 C 87.0833 % 5.26 C
1195 04-04-2019 20:00:00 5.95833 C 91.6667 % 4.71 C
1196 04-04-2019 21:00:00 5.29167 C 93.5000 % 4.33 C
1197 04-04-2019 22:00:00 5.08333 C 94.3333 % 4.25 C
1198 04-04-2019 23:00:00 4.575 C 94.5000 % 3.77 C
1199 05-04-2019 00:00:00 4.10833 C 95.0000 % 3.38 C
1200 05-04-2019 01:00:00 3.525 C 95.3333 % 2.85 C
Sensor: Nr:Datum:Temp:Feuchte:Taupunkt:
Aussen-T/F 1201 05-04-2019 02:00:00 3.775 C 96.0000 % 3.2 C
1202 05-04-2019 03:00:00 3.85833 C 96.0000 % 3.28 C
1203 05-04-2019 04:00:00 4.06667 C 96.0000 % 3.49 C
1204 05-04-2019 05:00:00 3.93333 C 96.0000 % 3.36 C
1205 05-04-2019 06:00:00 3.9 C 96.0000 % 3.32 C
1206 05-04-2019 07:00:00 4.13333 C 96.5833 % 3.64 C
1207 05-04-2019 08:00:00 4.64167 C 97.0000 % 4.21 C
1208 05-04-2019 09:00:00 5.3 C 96.9167 % 4.85 C
1209 05-04-2019 10:00:00 5.89167 C 95.6667 % 5.25 C
1210 05-04-2019 11:00:00 7.16667 C 90.1667 % 5.67 C
1211 05-04-2019 12:00:00 8.025 C 85.7500 % 5.79 C
1212 05-04-2019 13:00:00 8.19167 C 84.4167 % 5.73 C
1213 05-04-2019 14:00:00 8.41667 C 83.5833 % 5.8 C
1214 05-04-2019 15:00:00 8.55 C 84.1667 % 6.03 C
1215 05-04-2019 16:00:00 8.58333 C 85.2500 % 6.25 C
1216 05-04-2019 17:00:00 8.41667 C 87.1667 % 6.41 C
1217 05-04-2019 18:00:00 8.3 C 88.9167 % 6.58 C
1218 05-04-2019 19:00:00 8.19167 C 90.2500 % 6.69 C
1219 05-04-2019 20:00:00 7.925 C 91.7500 % 6.67 C
1220 05-04-2019 21:00:00 7.69167 C 93.0000 % 6.63 C
1221 05-04-2019 22:00:00 7.61667 C 94.0000 % 6.71 C
1222 05-04-2019 23:00:00 7.6 C 94.4167 % 6.76 C
1223 06-04-2019 00:00:00 7.45833 C 95.0000 % 6.71 C
1224 06-04-2019 01:00:00 7.40833 C 95.8333 % 6.79 C
1225 06-04-2019 02:00:00 7.225 C 95.8333 % 6.61 C
Sensor: Nr:Datum:Temp:Feuchte:Taupunkt:
Aussen-T/F 1226 06-04-2019 03:00:00 6.14167 C 95.0833 % 5.41 C
1227 06-04-2019 04:00:00 5.15833 C 95.7500 % 4.54 C
1228 06-04-2019 05:00:00 5.01667 C 96.0000 % 4.43 C
1229 06-04-2019 06:00:00 4.675 C 96.1667 % 4.12 C
1230 06-04-2019 07:00:00 5.13333 C 96.7500 % 4.66 C
1231 06-04-2019 08:00:00 5.71667 C 97.0000 % 5.28 C
1232 06-04-2019 09:00:00 6.025 C 97.0000 % 5.59 C
1233 06-04-2019 10:00:00 7.325 C 97.1667 % 6.91 C
1234 06-04-2019 11:00:00 9.825 C 90.4167 % 8.33 C
1235 06-04-2019 12:00:00 12.51667 C 76.5000 % 8.5 C
1236 06-04-2019 13:00:00 14.375 C 68.8333 % 8.73 C
1237 06-04-2019 14:00:00 16.04167 C 62.0000 % 8.77 C
1238 06-04-2019 15:00:00 15.96667 C 60.5833 % 8.36 C
1239 06-04-2019 16:00:00 15.81667 C 61.6667 % 8.48 C
1240 06-04-2019 17:00:00 16.30833 C 60.5833 % 8.68 C
1241 06-04-2019 18:00:00 17.31667 C 58.4167 % 9.09 C
1242 06-04-2019 19:00:00 16.46667 C 64.6667 % 9.8 C
1243 06-04-2019 20:00:00 12.50833 C 79.6667 % 9.09 C
1244 06-04-2019 21:00:00 11.1 C 84.6667 % 8.62 C
1245 06-04-2019 22:00:00 10.05 C 87.8333 % 8.13 C
1246 06-04-2019 23:00:00 9.3 C 89.5000 % 7.66 C
1247 07-04-2019 00:00:00 8.40833 C 91.5000 % 7.11 C
1248 07-04-2019 01:00:00 7.75833 C 92.5833 % 6.63 C
1249 07-04-2019 02:00:00 7.175 C 93.6667 % 6.22 C
1250 07-04-2019 03:00:00 6.775 C 94.6667 % 5.98 C
Sensor: Nr:Datum:Temp:Feuchte:Taupunkt:
Aussen-T/F 1251 07-04-2019 04:00:00 6.09167 C 94.6667 % 5.3 C
1252 07-04-2019 05:00:00 5.68333 C 95.0000 % 4.95 C
1253 07-04-2019 06:00:00 5.43333 C 95.9167 % 4.84 C
1254 07-04-2019 07:00:00 4.68333 C 95.6667 % 4.05 C
1255 07-04-2019 08:00:00 5.23333 C 96.2500 % 4.69 C
1256 07-04-2019 09:00:00 6.14167 C 97.0000 % 5.7 C
1257 07-04-2019 10:00:00 8.25 C 97.0833 % 7.82 C
1258 07-04-2019 11:00:00 12.725 C 78.9167 % 9.16 C
1259 07-04-2019 12:00:00 15.79167 C 59.0833 % 7.83 C
1260 07-04-2019 13:00:00 17.00833 C 51.5833 % 6.97 C
1261 07-04-2019 14:00:00 18.25833 C 45.9167 % 6.43 C
1262 07-04-2019 15:00:00 19.13333 C 41.5833 % 5.79 C
1263 07-04-2019 16:00:00 20 C 39.4167 % 5.79 C
1264 07-04-2019 17:00:00 20.88333 C 38.5833 % 6.27 C
1265 07-04-2019 18:00:00 19.09167 C 48.2500 % 7.91 C
1266 07-04-2019 19:00:00 16.95 C 62.1667 % 9.67 C
1267 07-04-2019 20:00:00 15.14167 C 68.5000 % 9.39 C
1268 07-04-2019 21:00:00 14.49167 C 71.5833 % 9.42 C
1269 07-04-2019 22:00:00 13.95 C 74.0000 % 9.4 C
1270 07-04-2019 23:00:00 13.44167 C 78.2500 % 9.73 C
1271 08-04-2019 00:00:00 12.95 C 81.1667 % 9.8 C
1272 08-04-2019 01:00:00 12.53333 C 82.7500 % 9.68 C
1273 08-04-2019 02:00:00 11.975 C 84.4167 % 9.43 C
1274 08-04-2019 03:00:00 11.60833 C 85.5833 % 9.28 C
1275 08-04-2019 04:00:00 11.23333 C 86.9167 % 9.14 C
Sensor: Nr:Datum:Temp:Feuchte:Taupunkt:
Aussen-T/F 1276 08-04-2019 05:00:00 11.06667 C 88.0833 % 9.17 C
1277 08-04-2019 06:00:00 10.66667 C 88.6667 % 8.87 C
1278 08-04-2019 07:00:00 10.025 C 90.3333 % 8.52 C
1279 08-04-2019 08:00:00 10.425 C 91.9167 % 9.17 C
1280 08-04-2019 09:00:00 11.5 C 88.6667 % 9.7 C
1281 08-04-2019 10:00:00 12.45833 C 84.7500 % 9.96 C
1282 08-04-2019 11:00:00 13.16667 C 82.6667 % 10.29 C
1283 08-04-2019 12:00:00 13.15 C 83.3333 % 10.39 C
1284 08-04-2019 13:00:00 13.48333 C 83.2500 % 10.7 C
1285 08-04-2019 14:00:00 15.05 C 77.1667 % 11.09 C
1286 08-04-2019 15:00:00 16.80833 C 69.0833 % 11.11 C
1287 08-04-2019 16:00:00 17.05833 C 67.7500 % 11.06 C
1288 08-04-2019 17:00:00 15.05 C 84.0000 % 12.37 C
1289 08-04-2019 18:00:00 14.35833 C 87.1667 % 12.25 C
1290 08-04-2019 19:00:00 13.84167 C 86.1667 % 11.57 C
1291 08-04-2019 20:00:00 12.875 C 89.4167 % 11.18 C
1292 08-04-2019 21:00:00 11.425 C 92.5833 % 10.27 C
1293 08-04-2019 22:00:00 11.1 C 94.5833 % 10.26 C
1294 08-04-2019 23:00:00 10.93333 C 94.8333 % 10.14 C
1295 09-04-2019 00:00:00 10.20833 C 94.9167 % 9.43 C
1296 09-04-2019 01:00:00 10.16667 C 95.6667 % 9.51 C
1297 09-04-2019 02:00:00 10.44167 C 96.0000 % 9.83 C
1298 09-04-2019 03:00:00 10.15833 C 96.0000 % 9.55 C
1299 09-04-2019 04:00:00 9.73333 C 96.0000 % 9.13 C
1300 09-04-2019 05:00:00 9.025 C 96.0000 % 8.42 C
Sensor: Nr:Datum:Temp:Feuchte:Taupunkt:
Aussen-T/F 1301 09-04-2019 06:00:00 8.94167 C 96.4167 % 8.4 C
1302 09-04-2019 07:00:00 9.30833 C 97.0000 % 8.86 C
1303 09-04-2019 08:00:00 9.875 C 97.0000 % 9.42 C
1304 09-04-2019 09:00:00 10.50833 C 97.0000 % 10.05 C
1305 09-04-2019 10:00:00 11.09167 C 95.8333 % 10.45 C
1306 09-04-2019 11:00:00 11.90833 C 94.6667 % 11.08 C
1307 09-04-2019 12:00:00 12.83333 C 92.5000 % 11.65 C
1308 09-04-2019 13:00:00 14.475 C 86.0833 % 12.18 C
1309 09-04-2019 14:00:00 16.075 C 78.9167 % 12.42 C
1310 09-04-2019 15:00:00 16.325 C 77.9167 % 12.47 C
1311 09-04-2019 16:00:00 16.08333 C 78.8333 % 12.41 C
1312 09-04-2019 17:00:00 15.85 C 79.1667 % 12.25 C
1313 09-04-2019 18:00:00 15.4 C 83.0000 % 12.53 C
1314 09-04-2019 19:00:00 14.58333 C 81.3333 % 11.42 C
1315 09-04-2019 20:00:00 13.625 C 82.2500 % 10.66 C
1316 09-04-2019 21:00:00 12.48333 C 84.1667 % 9.89 C
1317 09-04-2019 22:00:00 12.36667 C 74.8333 % 8.03 C
1318 09-04-2019 23:00:00 12.16667 C 70.5833 % 6.99 C
1319 10-04-2019 00:00:00 10.925 C 78.8333 % 7.4 C
1320 10-04-2019 01:00:00 10.36667 C 78.1667 % 6.73 C
1321 10-04-2019 02:00:00 9.91667 C 80.9167 % 6.8 C
1322 10-04-2019 03:00:00 9.775 C 78.6667 % 6.25 C
1323 10-04-2019 04:00:00 8.79167 C 81.1667 % 5.75 C
1324 10-04-2019 05:00:00 7.34167 C 84.7500 % 4.95 C
1325 10-04-2019 06:00:00 6.50833 C 86.1667 % 4.37 C
Sensor: Nr:Datum:Temp:Feuchte:Taupunkt:
Aussen-T/F 1326 10-04-2019 07:00:00 6.6 C 84.4167 % 4.17 C
1327 10-04-2019 08:00:00 7.675 C 77.0833 % 3.92 C
1328 10-04-2019 09:00:00 8.50833 C 71.9167 % 3.74 C
1329 10-04-2019 10:00:00 9.575 C 69.0000 % 4.18 C
1330 10-04-2019 11:00:00 11.18333 C 63.3333 % 4.49 C
1331 10-04-2019 12:00:00 12.16667 C 56.8333 % 3.87 C
1332 10-04-2019 13:00:00 13.425 C 54.2500 % 4.38 C
1333 10-04-2019 14:00:00 14.24167 C 49.6667 % 3.88 C
1334 10-04-2019 15:00:00 15.1 C 46.8333 % 3.83 C
1335 10-04-2019 16:00:00 16.075 C 43.9167 % 3.81 C
1336 10-04-2019 17:00:00 16.6 C 41.0000 % 3.31 C
1337 10-04-2019 18:00:00 15.94167 C 38.0833 % 1.68 C
1338 10-04-2019 19:00:00 14.4 C 42.7500 % 1.91 C
1339 10-04-2019 20:00:00 11.34167 C 56.7500 % 3.08 C
1340 10-04-2019 21:00:00 8.9 C 67.0833 % 3.13 C
1341 10-04-2019 22:00:00 7.38333 C 73.1667 % 2.9 C
1342 10-04-2019 23:00:00 6.46667 C 76.2500 % 2.6 C
1343 11-04-2019 00:00:00 5.75 C 77.3333 % 2.1 C
1344 11-04-2019 01:00:00 5.03333 C 77.9167 % 1.51 C
1345 11-04-2019 02:00:00 4.4 C 78.8333 % 1.06 C
1346 11-04-2019 03:00:00 3.85833 C 79.0833 % 0.57 C
1347 11-04-2019 04:00:00 2.9 C 80.5833 % -0.1 C
1348 11-04-2019 05:00:00 2.30833 C 81.7500 % -0.48 C
1349 11-04-2019 06:00:00 1.71667 C 83.3333 % -0.8 C
1350 11-04-2019 07:00:00 1.21667 C 85.2500 % -0.98 C
Sensor: Nr:Datum:Temp:Feuchte:Taupunkt:
Aussen-T/F 1351 11-04-2019 08:00:00 1.8 C 85.5000 % -0.37 C
1352 11-04-2019 09:00:00 3.9 C 77.5000 % 0.33 C
1353 11-04-2019 10:00:00 6.76667 C 58.0000 % -0.9 C
1354 11-04-2019 11:00:00 8.1 C 49.7500 % -1.75 C
1355 11-04-2019 12:00:00 8.91667 C 45.9167 % -2.08 C
1356 11-04-2019 13:00:00 9.875 C 43.4167 % -1.97 C
1357 11-04-2019 14:00:00 11.01667 C 40.8333 % -1.77 C
1358 11-04-2019 15:00:00 12 C 38.7500 % -1.59 C
1359 11-04-2019 16:00:00 12.76667 C 36.1667 % -1.85 C
1360 11-04-2019 17:00:00 13.31667 C 34.7500 % -1.9 C
1361 11-04-2019 18:00:00 13.025 C 35.1667 % -2 C
1362 11-04-2019 19:00:00 11.95833 C 38.1667 % -1.84 C
1363 11-04-2019 20:00:00 8.95 C 49.6667 % -0.99 C
1364 11-04-2019 21:00:00 6.225 C 61.4167 % -0.63 C
1365 11-04-2019 22:00:00 5.35 C 64.0000 % -0.9 C
1366 11-04-2019 23:00:00 5.48333 C 60.7500 % -1.48 C
1367 12-04-2019 00:00:00 4.46667 C 62.7500 % -2 C
1368 12-04-2019 01:00:00 3.54167 C 65.3333 % -2.34 C
1369 12-04-2019 02:00:00 2.15833 C 71.6667 % -2.41 C
1370 12-04-2019 03:00:00 1.60833 C 73.5833 % -2.59 C
1371 12-04-2019 04:00:00 2.15833 C 75.2500 % -1.76 C
1372 12-04-2019 05:00:00 2.70833 C 73.2500 % -1.59 C
1373 12-04-2019 06:00:00 2.98333 C 70.9167 % -1.76 C
1374 12-04-2019 07:00:00 3.475 C 66.8333 % -2.09 C
1375 12-04-2019 08:00:00 4.63333 C 58.0833 % -2.89 C
Sensor: Nr:Datum:Temp:Feuchte:Taupunkt:
Aussen-T/F 1376 12-04-2019 09:00:00 5.03333 C 56.0833 % -2.98 C
1377 12-04-2019 10:00:00 5.49167 C 53.2500 % -3.25 C
1378 12-04-2019 11:00:00 5.98333 C 51.8333 % -3.15 C
1379 12-04-2019 12:00:00 6.78333 C 50.0000 % -2.89 C
1380 12-04-2019 13:00:00 7.15833 C 47.7500 % -3.17 C
1381 12-04-2019 14:00:00 7.26667 C 46.8333 % -3.33 C
1382 12-04-2019 15:00:00 7.56667 C 46.4167 % -3.17 C
1383 12-04-2019 16:00:00 7.3 C 47.3333 % -3.15 C
1384 12-04-2019 17:00:00 7.1 C 46.6667 % -3.53 C
1385 12-04-2019 18:00:00 6.83333 C 49.0000 % -3.12 C
1386 12-04-2019 19:00:00 6.525 C 52.0000 % -2.61 C
1387 12-04-2019 20:00:00 6.06667 C 54.9167 % -2.3 C
1388 12-04-2019 21:00:00 5.55 C 60.2500 % -1.53 C
1389 12-04-2019 22:00:00 4.39167 C 66.5000 % -1.29 C
1390 12-04-2019 23:00:00 3.58333 C 68.6667 % -1.62 C
1391 13-04-2019 00:00:00 2.95 C 72.5833 % -1.48 C
1392 13-04-2019 01:00:00 2.875 C 73.0833 % -1.46 C
1393 13-04-2019 02:00:00 2.61667 C 75.7500 % -1.22 C
1394 13-04-2019 03:00:00 2.30833 C 77.9167 % -1.14 C
1395 13-04-2019 04:00:00 2.6 C 77.4167 % -0.94 C
1396 13-04-2019 05:00:00 2.54167 C 78.0000 % -0.9 C
1397 13-04-2019 06:00:00 2.28333 C 80.5833 % -0.7 C
1398 13-04-2019 07:00:00 2.5 C 80.0833 % -0.58 C
1399 13-04-2019 08:00:00 3.125 C 77.1667 % -0.48 C
1400 13-04-2019 09:00:00 3.60833 C 73.2500 % -0.72 C
Sensor: Nr:Datum:Temp:Feuchte:Taupunkt:
Aussen-T/F 1401 13-04-2019 10:00:00 4.75833 C 66.0833 % -1.02 C
1402 13-04-2019 11:00:00 5.36667 C 61.0833 % -1.52 C
1403 13-04-2019 12:00:00 5.96667 C 57.3333 % -1.81 C
1404 13-04-2019 13:00:00 5.75833 C 63.0833 % -0.71 C
1405 13-04-2019 14:00:00 4.69167 C 77.4167 % 1.09 C
1406 13-04-2019 15:00:00 5.61667 C 74.8333 % 1.51 C
1407 13-04-2019 16:00:00 6.21667 C 68.6667 % 0.9 C
1408 13-04-2019 17:00:00 4.55 C 84.8333 % 2.22 C
1409 13-04-2019 18:00:00 6.29167 C 77.0833 % 2.58 C
1410 13-04-2019 19:00:00 5.59167 C 77.5833 % 1.99 C
1411 13-04-2019 20:00:00 4.63333 C 80.6667 % 1.6 C
1412 13-04-2019 21:00:00 3.075 C 83.6667 % 0.59 C
1413 13-04-2019 22:00:00 1.56667 C 87.5000 % -0.28 C
1414 13-04-2019 23:00:00 1.04167 C 89.8333 % -0.44 C
1415 14-04-2019 00:00:00 0.475 C 91.0000 % -0.82 C
1416 14-04-2019 01:00:00 0.45 C 92.6667 % -0.6 C
1417 14-04-2019 02:00:00 1.23333 C 93.3333 % 0.28 C
1418 14-04-2019 03:00:00 1.575 C 93.0000 % 0.57 C
1419 14-04-2019 04:00:00 1.63333 C 93.0833 % 0.64 C
1420 14-04-2019 05:00:00 1.56667 C 93.6667 % 0.66 C
1421 14-04-2019 06:00:00 1.25833 C 94.0000 % 0.4 C
1422 14-04-2019 07:00:00 1.225 C 95.0000 % 0.51 C
1423 14-04-2019 08:00:00 1.5 C 95.0833 % 0.8 C
1424 14-04-2019 09:00:00 2.66667 C 95.8333 % 2.07 C
1425 14-04-2019 10:00:00 4.15 C 94.4167 % 3.34 C
Sensor: Nr:Datum:Temp:Feuchte:Taupunkt:
Aussen-T/F 1426 14-04-2019 11:00:00 6.00833 C 84.5833 % 3.61 C
1427 14-04-2019 12:00:00 7.71667 C 69.2500 % 2.45 C
1428 14-04-2019 13:00:00 8.99167 C 58.3333 % 1.26 C
1429 14-04-2019 14:00:00 10.43333 C 52.2500 % 1.08 C
1430 14-04-2019 15:00:00 11.46667 C 48.4167 % 0.98 C
1431 14-04-2019 16:00:00 12.08333 C 45.7500 % 0.76 C
1432 14-04-2019 17:00:00 12.50833 C 43.7500 % 0.52 C
1433 14-04-2019 18:00:00 12.06667 C 45.5000 % 0.66 C
1434 14-04-2019 19:00:00 10.99167 C 51.7500 % 1.46 C
1435 14-04-2019 20:00:00 8.25 C 64.3333 % 1.93 C
1436 14-04-2019 21:00:00 5.925 C 76.1667 % 2.06 C
1437 14-04-2019 22:00:00 4.61667 C 81.8333 % 1.79 C
1438 14-04-2019 23:00:00 4.06667 C 84.4167 % 1.68 C
1439 15-04-2019 00:00:00 4.11667 C 86.0000 % 1.99 C
1440 15-04-2019 01:00:00 5.075 C 85.4167 % 2.84 C
1441 15-04-2019 02:00:00 5.64167 C 83.3333 % 3.04 C
1442 15-04-2019 03:00:00 4.81667 C 85.0000 % 2.51 C
1443 15-04-2019 04:00:00 4.78333 C 86.7500 % 2.77 C
1444 15-04-2019 05:00:00 4.26667 C 87.7500 % 2.42 C
1445 15-04-2019 06:00:00 4.48333 C 89.4167 % 2.9 C
1446 15-04-2019 07:00:00 5.1 C 89.5833 % 3.53 C
1447 15-04-2019 08:00:00 5.98333 C 88.0000 % 4.15 C
1448 15-04-2019 09:00:00 7.175 C 84.3333 % 4.71 C
1449 15-04-2019 10:00:00 8.34167 C 80.1667 % 5.13 C
1450 15-04-2019 11:00:00 10.15833 C 74.8333 % 5.9 C
Sensor: Nr:Datum:Temp:Feuchte:Taupunkt:
Aussen-T/F 1451 15-04-2019 12:00:00 12.475 C 65.8333 % 6.27 C
1452 15-04-2019 13:00:00 14.29167 C 58.2500 % 6.21 C
1453 15-04-2019 14:00:00 16.025 C 53.1667 % 6.5 C
1454 15-04-2019 15:00:00 17.53333 C 46.5000 % 5.95 C
1455 15-04-2019 16:00:00 18.31667 C 44.7500 % 6.11 C
1456 15-04-2019 17:00:00 18.95833 C 41.0833 % 5.45 C
1457 15-04-2019 18:00:00 19.13333 C 38.5000 % 4.68 C
1458 15-04-2019 19:00:00 18.19167 C 41.3333 % 4.85 C
1459 15-04-2019 20:00:00 14.2 C 57.2500 % 5.88 C
1460 15-04-2019 21:00:00 11.575 C 65.6667 % 5.38 C
1461 15-04-2019 22:00:00 10.24167 C 68.0833 % 4.62 C
1462 15-04-2019 23:00:00 9.24167 C 69.0833 % 3.88 C
1463 16-04-2019 00:00:00 8.16667 C 71.5833 % 3.35 C
1464 16-04-2019 01:00:00 7.25833 C 73.8333 % 2.91 C
1465 16-04-2019 02:00:00 6.48333 C 75.9167 % 2.55 C
1466 16-04-2019 03:00:00 6.06667 C 76.1667 % 2.19 C
1467 16-04-2019 04:00:00 5.83333 C 75.2500 % 1.8 C
1468 16-04-2019 05:00:00 5.50833 C 76.0833 % 1.64 C
1469 16-04-2019 06:00:00 4.99167 C 77.5833 % 1.41 C
1470 16-04-2019 07:00:00 3.91667 C 82.6667 % 1.24 C
1471 16-04-2019 08:00:00 4.51667 C 83.3333 % 1.94 C
1472 16-04-2019 09:00:00 6.2 C 80.7500 % 3.15 C
1473 16-04-2019 10:00:00 10.39167 C 63.6667 % 3.81 C
1474 16-04-2019 11:00:00 13.69167 C 51.1667 % 3.8 C
1475 16-04-2019 12:00:00 15.59167 C 47.0833 % 4.36 C
Sensor: Nr:Datum:Temp:Feuchte:Taupunkt:
Aussen-T/F 1476 16-04-2019 13:00:00 17.025 C 46.0833 % 5.36 C
1477 16-04-2019 14:00:00 18.3 C 46.3333 % 6.6 C
1478 16-04-2019 15:00:00 19.025 C 45.3333 % 6.94 C
1479 16-04-2019 16:00:00 18.85833 C 46.4167 % 7.13 C
1480 16-04-2019 17:00:00 18.09167 C 52.5000 % 8.23 C
1481 16-04-2019 18:00:00 15.5 C 62.0833 % 8.28 C
1482 16-04-2019 19:00:00 14.63333 C 66.9167 % 8.56 C
1483 16-04-2019 20:00:00 13.25833 C 72.6667 % 8.46 C
1484 16-04-2019 21:00:00 12.29167 C 76.0000 % 8.19 C
1485 16-04-2019 22:00:00 11.825 C 79.1667 % 8.34 C
1486 16-04-2019 23:00:00 11.475 C 80.4167 % 8.23 C
1487 17-04-2019 00:00:00 11.01667 C 82.9167 % 8.23 C
1488 17-04-2019 01:00:00 10.725 C 88.2500 % 8.86 C
1489 17-04-2019 02:00:00 10.25833 C 91.5000 % 8.94 C
1490 17-04-2019 03:00:00 9.91667 C 93.2500 % 8.88 C
1491 17-04-2019 04:00:00 9.73333 C 94.2500 % 8.85 C
1492 17-04-2019 05:00:00 9.60833 C 95.0000 % 8.85 C
1493 17-04-2019 06:00:00 9.66667 C 95.3333 % 8.96 C
1494 17-04-2019 07:00:00 10 C 96.0000 % 9.39 C
1495 17-04-2019 08:00:00 10.64167 C 96.0000 % 10.03 C
1496 17-04-2019 09:00:00 11.36667 C 95.7500 % 10.71 C
1497 17-04-2019 10:00:00 12.30833 C 93.5000 % 11.29 C
1498 17-04-2019 11:00:00 13.04167 C 90.7500 % 11.57 C
1499 17-04-2019 12:00:00 13.675 C 87.0833 % 11.57 C
1500 17-04-2019 13:00:00 14.88333 C 82.2500 % 11.89 C
Sensor: Nr:Datum:Temp:Feuchte:Taupunkt:
Aussen-T/F 1501 17-04-2019 14:00:00 16.18333 C 74.4167 % 11.63 C
1502 17-04-2019 15:00:00 17.19167 C 69.7500 % 11.62 C
1503 17-04-2019 16:00:00 18.00833 C 62.9167 % 10.85 C
1504 17-04-2019 17:00:00 18.225 C 62.5833 % 10.97 C
1505 17-04-2019 18:00:00 18.16667 C 61.3333 % 10.61 C
1506 17-04-2019 19:00:00 16.38333 C 73.5833 % 11.66 C
1507 17-04-2019 20:00:00 13.575 C 77.8333 % 9.78 C
1508 17-04-2019 21:00:00 11.65 C 80.1667 % 8.35 C
1509 17-04-2019 22:00:00 10.36667 C 83.1667 % 7.64 C
1510 17-04-2019 23:00:00 9.375 C 85.0000 % 6.99 C
1511 18-04-2019 00:00:00 8.70833 C 87.5833 % 6.77 C
1512 18-04-2019 01:00:00 8.75833 C 88.1667 % 6.91 C
1513 18-04-2019 02:00:00 8.55 C 87.6667 % 6.62 C
1514 18-04-2019 03:00:00 8.01667 C 86.4167 % 5.89 C
1515 18-04-2019 04:00:00 7.16667 C 87.9167 % 5.3 C
1516 18-04-2019 05:00:00 6.875 C 89.7500 % 5.31 C
1517 18-04-2019 06:00:00 6.76667 C 90.4167 % 5.31 C
1518 18-04-2019 07:00:00 7.44167 C 88.7500 % 5.71 C
1519 18-04-2019 08:00:00 8.475 C 87.8333 % 6.58 C
1520 18-04-2019 09:00:00 9.88333 C 83.4167 % 7.21 C
1521 18-04-2019 10:00:00 12.95 C 71.3333 % 7.89 C
1522 18-04-2019 11:00:00 16.38333 C 56.8333 % 7.81 C
1523 18-04-2019 12:00:00 17.65833 C 52.0000 % 7.69 C
1524 18-04-2019 13:00:00 18.76667 C 47.3333 % 7.33 C
1525 18-04-2019 14:00:00 19.91667 C 42.4167 % 6.78 C
Sensor: Nr:Datum:Temp:Feuchte:Taupunkt:
Aussen-T/F 1526 18-04-2019 15:00:00 21.35 C 38.6667 % 6.72 C
1527 18-04-2019 16:00:00 22.525 C 34.1667 % 5.96 C
1528 18-04-2019 17:00:00 23.375 C 32.7500 % 6.09 C
1529 18-04-2019 18:00:00 23.40833 C 32.7500 % 6.12 C
1530 18-04-2019 19:00:00 22.28333 C 36.4167 % 6.67 C
1531 18-04-2019 20:00:00 18.05833 C 52.5000 % 8.2 C
1532 18-04-2019 21:00:00 15.33333 C 59.4167 % 7.48 C
1533 18-04-2019 22:00:00 14.23333 C 61.5833 % 6.97 C
1534 18-04-2019 23:00:00 13.08333 C 65.2500 % 6.72 C
1535 19-04-2019 00:00:00 11.55833 C 71.8333 % 6.66 C
1536 19-04-2019 01:00:00 10.70833 C 75.0000 % 6.46 C
1537 19-04-2019 02:00:00 11.01667 C 71.5833 % 6.09 C
1538 19-04-2019 03:00:00 10.29167 C 73.6667 % 5.8 C
1539 19-04-2019 04:00:00 9.61667 C 76.2500 % 5.65 C
1540 19-04-2019 05:00:00 8.24167 C 81.4167 % 5.25 C
1541 19-04-2019 06:00:00 7.04167 C 83.8333 % 4.5 C
1542 19-04-2019 07:00:00 6.65 C 86.8333 % 4.62 C
1543 19-04-2019 08:00:00 6.85 C 88.5833 % 5.1 C
1544 19-04-2019 09:00:00 8.975 C 86.5000 % 6.85 C
1545 19-04-2019 10:00:00 13.525 C 66.7500 % 7.47 C
1546 19-04-2019 11:00:00 17.95833 C 48.7500 % 7.02 C
1547 19-04-2019 12:00:00 19.9 C 41.5000 % 6.45 C
1548 19-04-2019 13:00:00 21.36667 C 34.2500 % 4.98 C
1549 19-04-2019 14:00:00 22.44167 C 31.3333 % 4.65 C
1550 19-04-2019 15:00:00 23.675 C 26.9167 % 3.55 C
Sensor: Nr:Datum:Temp:Feuchte:Taupunkt:
Aussen-T/F 1551 19-04-2019 16:00:00 24.89167 C 24.0833 % 3 C
1552 19-04-2019 17:00:00 25.28333 C 22.5000 % 2.38 C
1553 19-04-2019 18:00:00 25.50833 C 22.3333 % 2.46 C
1554 19-04-2019 19:00:00 24.25 C 26.1667 % 3.63 C
1555 19-04-2019 20:00:00 19.21667 C 40.8333 % 5.6 C
1556 19-04-2019 21:00:00 15.875 C 49.4167 % 5.31 C
1557 19-04-2019 22:00:00 13.33333 C 58.2500 % 5.31 C
1558 19-04-2019 23:00:00 11.73333 C 64.2500 % 5.21 C
1559 20-04-2019 00:00:00 10.40833 C 70.5833 % 5.3 C
1560 20-04-2019 01:00:00 9.45833 C 76.1667 % 5.48 C
1561 20-04-2019 02:00:00 8.55833 C 80.8333 % 5.46 C
1562 20-04-2019 03:00:00 7.64167 C 84.0833 % 5.13 C
1563 20-04-2019 04:00:00 6.85 C 87.0000 % 4.84 C
1564 20-04-2019 05:00:00 6.23333 C 89.2500 % 4.6 C
1565 20-04-2019 06:00:00 5.775 C 90.5833 % 4.36 C
1566 20-04-2019 07:00:00 5.85833 C 91.9167 % 4.65 C
1567 20-04-2019 08:00:00 6.48333 C 92.4167 % 5.34 C
1568 20-04-2019 09:00:00 8.16667 C 92.2500 % 6.99 C
1569 20-04-2019 10:00:00 11.68333 C 83.6667 % 9.01 C
1570 20-04-2019 11:00:00 16.725 C 63.9167 % 9.87 C
1571 20-04-2019 12:00:00 20.225 C 46.9167 % 8.53 C
1572 20-04-2019 13:00:00 22.05 C 36.3333 % 6.43 C
1573 20-04-2019 14:00:00 23.275 C 28.9167 % 4.22 C
1574 20-04-2019 15:00:00 24.25833 C 27.7500 % 4.48 C
1575 20-04-2019 16:00:00 25.21667 C 26.6667 % 4.72 C
Sensor: Nr:Datum:Temp:Feuchte:Taupunkt:
Aussen-T/F 1576 20-04-2019 17:00:00 25.30833 C 25.1667 % 3.98 C
1577 20-04-2019 18:00:00 25.39167 C 23.5833 % 3.13 C
1578 20-04-2019 19:00:00 24.575 C 26.8333 % 4.27 C
1579 20-04-2019 20:00:00 19.875 C 43.1667 % 7 C
1580 20-04-2019 21:00:00 16.175 C 54.5833 % 7.03 C
1581 20-04-2019 22:00:00 13.81667 C 63.2500 % 6.96 C
1582 20-04-2019 23:00:00 12.90833 C 65.6667 % 6.64 C
1583 21-04-2019 00:00:00 12.84167 C 64.7500 % 6.38 C
1584 21-04-2019 01:00:00 12.48333 C 65.4167 % 6.18 C
1585 21-04-2019 02:00:00 11.36667 C 70.1667 % 6.13 C
1586 21-04-2019 03:00:00 10.81667 C 73.0833 % 6.19 C
1587 21-04-2019 04:00:00 9.23333 C 78.3333 % 5.66 C
1588 21-04-2019 05:00:00 7.375 C 84.9167 % 5.01 C
1589 21-04-2019 06:00:00 6.45 C 87.7500 % 4.57 C
1590 21-04-2019 07:00:00 6.68333 C 89.1667 % 5.03 C
1591 21-04-2019 08:00:00 7.16667 C 89.8333 % 5.61 C
1592 21-04-2019 09:00:00 8.675 C 89.5833 % 7.06 C
1593 21-04-2019 10:00:00 11.98333 C 81.4167 % 8.9 C
1594 21-04-2019 11:00:00 16.48333 C 63.3333 % 9.5 C
1595 21-04-2019 12:00:00 19.65833 C 45.1667 % 7.46 C
1596 21-04-2019 13:00:00 21.525 C 35.0833 % 5.46 C
1597 21-04-2019 14:00:00 22.98333 C 30.0000 % 4.49 C
1598 21-04-2019 15:00:00 24.46667 C 30.3333 % 5.93 C
1599 21-04-2019 16:00:00 25.73333 C 26.3333 % 4.98 C
1600 21-04-2019 17:00:00 25.94167 C 24.5000 % 4.13 C
Sensor: Nr:Datum:Temp:Feuchte:Taupunkt:
Aussen-T/F 1601 21-04-2019 18:00:00 26.13333 C 24.3333 % 4.19 C
1602 21-04-2019 19:00:00 24.58333 C 28.3333 % 5.05 C
1603 21-04-2019 20:00:00 19.69167 C 40.5833 % 5.94 C
1604 21-04-2019 21:00:00 16.725 C 50.6667 % 6.45 C
1605 21-04-2019 22:00:00 13.85833 C 63.0833 % 6.96 C
1606 21-04-2019 23:00:00 12.21667 C 67.0833 % 6.3 C
1607 22-04-2019 00:00:00 10.54167 C 72.3333 % 5.78 C
1608 22-04-2019 01:00:00 9.24167 C 78.0000 % 5.61 C
1609 22-04-2019 02:00:00 8.2 C 82.5000 % 5.4 C
1610 22-04-2019 03:00:00 7.56667 C 84.9167 % 5.2 C
1611 22-04-2019 04:00:00 6.64167 C 87.8333 % 4.77 C
1612 22-04-2019 05:00:00 5.89167 C 90.3333 % 4.43 C
1613 22-04-2019 06:00:00 5.475 C 91.7500 % 4.24 C
1614 22-04-2019 07:00:00 5.74167 C 92.9167 % 4.69 C
1615 22-04-2019 08:00:00 6.54167 C 93.0000 % 5.49 C
1616 22-04-2019 09:00:00 8.40833 C 92.0000 % 7.19 C
1617 22-04-2019 10:00:00 12.55 C 76.0833 % 8.45 C
1618 22-04-2019 11:00:00 17.96667 C 49.0833 % 7.13 C
1619 22-04-2019 12:00:00 20.89167 C 38.2500 % 6.15 C
1620 22-04-2019 13:00:00 22.65 C 29.7500 % 4.09 C
1621 22-04-2019 14:00:00 23.45 C 29.0833 % 4.45 C
1622 22-04-2019 15:00:00 24.375 C 28.4167 % 4.92 C
1623 22-04-2019 16:00:00 25.49167 C 25.8333 % 4.5 C
1624 22-04-2019 17:00:00 25.70833 C 24.7500 % 4.08 C
1625 22-04-2019 18:00:00 24.4 C 28.0833 % 4.77 C
Sensor: Nr:Datum:Temp:Feuchte:Taupunkt:
Aussen-T/F 1626 22-04-2019 19:00:00 21.4 C 41.5833 % 7.82 C
1627 22-04-2019 20:00:00 19.55 C 43.0000 % 6.65 C
1628 22-04-2019 21:00:00 16.975 C 48.8333 % 6.15 C
1629 22-04-2019 22:00:00 15.15 C 51.2500 % 5.17 C
1630 22-04-2019 23:00:00 15.04167 C 49.3333 % 4.52 C
1631 23-04-2019 00:00:00 13.175 C 55.8333 % 4.56 C
1632 23-04-2019 01:00:00 11.55 C 62.2500 % 4.59 C
1633 23-04-2019 02:00:00 10.31667 C 66.9167 % 4.45 C
1634 23-04-2019 03:00:00 9.7 C 68.5000 % 4.19 C
1635 23-04-2019 04:00:00 9.15833 C 71.7500 % 4.33 C
1636 23-04-2019 05:00:00 8.83333 C 73.1667 % 4.3 C
1637 23-04-2019 06:00:00 8.31667 C 76.0000 % 4.34 C
1638 23-04-2019 07:00:00 8.99167 C 77.2500 % 5.23 C
1639 23-04-2019 08:00:00 10.325 C 76.1667 % 6.32 C
1640 23-04-2019 09:00:00 12.53333 C 63.9167 % 5.9 C
1641 23-04-2019 10:00:00 14.025 C 60.2500 % 6.45 C
1642 23-04-2019 11:00:00 15.475 C 57.4167 % 7.11 C
1643 23-04-2019 12:00:00 17.04167 C 55.2500 % 8.01 C
1644 23-04-2019 13:00:00 18.89167 C 51.1667 % 8.59 C
1645 23-04-2019 14:00:00 20.44167 C 47.9167 % 9.04 C
1646 23-04-2019 15:00:00 21.76667 C 44.6667 % 9.21 C
1647 23-04-2019 16:00:00 23.1 C 42.5000 % 9.67 C
1648 23-04-2019 17:00:00 23.4 C 42.6667 % 10 C
1649 23-04-2019 18:00:00 21.775 C 46.2500 % 9.73 C
1650 23-04-2019 19:00:00 20.31667 C 52.3333 % 10.24 C
Sensor: Nr:Datum:Temp:Feuchte:Taupunkt:
Aussen-T/F 1651 23-04-2019 20:00:00 17.975 C 61.3333 % 10.43 C
1652 23-04-2019 21:00:00 16.08333 C 69.0000 % 10.4 C
1653 23-04-2019 22:00:00 15.54167 C 71.2500 % 10.36 C
1654 23-04-2019 23:00:00 15.08333 C 72.1667 % 10.11 C
1655 24-04-2019 00:00:00 14.425 C 75.1667 % 10.09 C
1656 24-04-2019 01:00:00 12.65833 C 78.4167 % 9.01 C
1657 24-04-2019 02:00:00 11.325 C 83.0000 % 8.55 C
1658 24-04-2019 03:00:00 10.39167 C 86.5000 % 8.24 C
1659 24-04-2019 04:00:00 9.89167 C 88.7500 % 8.12 C
1660 24-04-2019 05:00:00 9.35 C 90.0833 % 7.81 C
1661 24-04-2019 06:00:00 9.1 C 91.6667 % 7.82 C
1662 24-04-2019 07:00:00 9.66667 C 92.5000 % 8.51 C
1663 24-04-2019 08:00:00 11.55833 C 86.9167 % 9.46 C
1664 24-04-2019 09:00:00 13.39167 C 82.3333 % 10.45 C
1665 24-04-2019 10:00:00 16.14167 C 74.2500 % 11.56 C
1666 24-04-2019 11:00:00 18.73333 C 66.7500 % 12.43 C
1667 24-04-2019 12:00:00 21.425 C 50.5833 % 10.75 C
1668 24-04-2019 13:00:00 22.38333 C 45.5000 % 10.04 C
1669 24-04-2019 14:00:00 23.45 C 42.7500 % 10.07 C
1670 24-04-2019 15:00:00 24.80833 C 39.0000 % 9.92 C
1671 24-04-2019 16:00:00 25.20833 C 39.2500 % 10.37 C
1672 24-04-2019 17:00:00 25.675 C 40.9167 % 11.41 C
1673 24-04-2019 18:00:00 19.91667 C 56.8333 % 11.11 C
1674 24-04-2019 19:00:00 13.875 C 77.1667 % 9.95 C
1675 24-04-2019 20:00:00 11.34167 C 86.0000 % 9.09 C
Sensor: Nr:Datum:Temp:Feuchte:Taupunkt:
Aussen-T/F 1676 24-04-2019 21:00:00 9.85 C 91.8333 % 8.59 C
1677 24-04-2019 22:00:00 9.16667 C 93.5000 % 8.17 C
1678 24-04-2019 23:00:00 9.00833 C 94.8333 % 8.23 C
1679 25-04-2019 00:00:00 8.85833 C 95.0000 % 8.1 C
1680 25-04-2019 01:00:00 8.125 C 95.0000 % 7.37 C
1681 25-04-2019 02:00:00 7.45 C 95.2500 % 6.74 C
1682 25-04-2019 03:00:00 7.2 C 96.0000 % 6.61 C
1683 25-04-2019 04:00:00 7.05833 C 96.0000 % 6.46 C
1684 25-04-2019 05:00:00 7.10833 C 96.0000 % 6.51 C
1685 25-04-2019 06:00:00 7.05833 C 96.7500 % 6.58 C
1686 25-04-2019 07:00:00 7.85833 C 97.0000 % 7.41 C
1687 25-04-2019 08:00:00 9.16667 C 97.0000 % 8.72 C
1688 25-04-2019 09:00:00 10.63333 C 97.0000 % 10.18 C
1689 25-04-2019 10:00:00 11.54167 C 95.9167 % 10.91 C
1690 25-04-2019 11:00:00 14.14167 C 79.6667 % 10.68 C
1691 25-04-2019 12:00:00 16.96667 C 64.0000 % 10.12 C
1692 25-04-2019 13:00:00 18.6 C 58.7500 % 10.37 C
1693 25-04-2019 14:00:00 20.25833 C 53.0000 % 10.38 C
1694 25-04-2019 15:00:00 21.525 C 49.3333 % 10.47 C
1695 25-04-2019 16:00:00 22.125 C 55.0000 % 12.66 C
1696 25-04-2019 17:00:00 21.35 C 59.2500 % 13.08 C
1697 25-04-2019 18:00:00 20.55833 C 54.9167 % 11.19 C
1698 25-04-2019 19:00:00 16.88333 C 61.4167 % 9.42 C
1699 25-04-2019 20:00:00 15.125 C 66.7500 % 8.99 C
1700 25-04-2019 21:00:00 13.85 C 72.3333 % 8.96 C
Sensor: Nr:Datum:Temp:Feuchte:Taupunkt:
Aussen-T/F 1701 25-04-2019 22:00:00 13.04167 C 74.6667 % 8.65 C
1702 25-04-2019 23:00:00 12.425 C 78.3333 % 8.76 C
1703 26-04-2019 00:00:00 11.39167 C 82.1667 % 8.46 C
1704 26-04-2019 01:00:00 10.93333 C 85.2500 % 8.56 C
1705 26-04-2019 02:00:00 11.00833 C 84.2500 % 8.46 C
1706 26-04-2019 03:00:00 10.98333 C 83.0833 % 8.23 C
1707 26-04-2019 04:00:00 10.8 C 83.6667 % 8.15 C
1708 26-04-2019 05:00:00 10.4 C 86.9167 % 8.32 C
1709 26-04-2019 06:00:00 9.625 C 92.0000 % 8.39 C
1710 26-04-2019 07:00:00 9.5 C 93.9167 % 8.57 C
1711 26-04-2019 08:00:00 9.50833 C 94.6667 % 8.7 C
1712 26-04-2019 09:00:00 9.99167 C 95.0000 % 9.23 C
1713 26-04-2019 10:00:00 10.275 C 94.9167 % 9.5 C
1714 26-04-2019 11:00:00 10.88333 C 93.5000 % 9.88 C
1715 26-04-2019 12:00:00 11.95833 C 88.6667 % 10.15 C
1716 26-04-2019 13:00:00 13.00833 C 82.5000 % 10.1 C
1717 26-04-2019 14:00:00 13.53333 C 78.1667 % 9.81 C
1718 26-04-2019 15:00:00 13.525 C 76.6667 % 9.51 C
1719 26-04-2019 16:00:00 15.06667 C 70.6667 % 9.78 C
1720 26-04-2019 17:00:00 15.74167 C 66.0000 % 9.41 C
1721 26-04-2019 18:00:00 16.925 C 62.0000 % 9.6 C
1722 26-04-2019 19:00:00 15.84167 C 71.9167 % 10.79 C
1723 26-04-2019 20:00:00 12.575 C 80.7500 % 9.36 C
1724 26-04-2019 21:00:00 10.89167 C 87.0833 % 8.83 C
1725 26-04-2019 22:00:00 10.45833 C 88.7500 % 8.68 C
Sensor: Nr:Datum:Temp:Feuchte:Taupunkt:
Aussen-T/F 1726 26-04-2019 23:00:00 10.00833 C 90.3333 % 8.5 C
1727 27-04-2019 00:00:00 9.20833 C 91.9167 % 7.96 C
1728 27-04-2019 01:00:00 9.14167 C 93.0000 % 8.07 C
1729 27-04-2019 02:00:00 8.575 C 93.0833 % 7.52 C
1730 27-04-2019 03:00:00 7.875 C 94.0000 % 6.97 C
1731 27-04-2019 04:00:00 7.18333 C 94.2500 % 6.32 C
1732 27-04-2019 05:00:00 6.64167 C 94.9167 % 5.89 C
1733 27-04-2019 06:00:00 6.425 C 95.4167 % 5.75 C
1734 27-04-2019 07:00:00 7.15 C 96.0000 % 6.56 C
1735 27-04-2019 08:00:00 8.66667 C 96.8333 % 8.19 C
1736 27-04-2019 09:00:00 10.16667 C 94.8333 % 9.38 C
1737 27-04-2019 10:00:00 11.30833 C 87.6667 % 9.34 C
1738 27-04-2019 11:00:00 12.64167 C 76.5000 % 8.62 C
1739 27-04-2019 12:00:00 12.69167 C 81.5833 % 9.63 C
1740 27-04-2019 13:00:00 13.025 C 77.9167 % 9.27 C
1741 27-04-2019 14:00:00 9.525 C 90.0000 % 7.97 C
1742 27-04-2019 15:00:00 10.46667 C 90.0000 % 8.9 C
1743 27-04-2019 16:00:00 11.75 C 81.7500 % 8.74 C
1744 27-04-2019 17:00:00 12.35 C 78.5833 % 8.74 C
1745 27-04-2019 18:00:00 11.34167 C 80.3333 % 8.08 C
1746 27-04-2019 19:00:00 9.55833 C 90.0833 % 8.02 C
1747 27-04-2019 20:00:00 7.725 C 92.1667 % 6.54 C
1748 27-04-2019 21:00:00 7.3 C 93.8333 % 6.37 C
1749 27-04-2019 22:00:00 6.76667 C 94.5833 % 5.96 C
1750 27-04-2019 23:00:00 6.84167 C 94.9167 % 6.09 C
Sensor: Nr:Datum:Temp:Feuchte:Taupunkt:
Aussen-T/F 1751 28-04-2019 00:00:00 6.86667 C 93.7500 % 5.93 C
1752 28-04-2019 01:00:00 6.875 C 92.2500 % 5.71 C
1753 28-04-2019 02:00:00 6.43333 C 91.0000 % 5.07 C
1754 28-04-2019 03:00:00 6.19167 C 90.2500 % 4.72 C
1755 28-04-2019 04:00:00 6.41667 C 88.1667 % 4.6 C
1756 28-04-2019 05:00:00 6.26667 C 88.6667 % 4.54 C
1757 28-04-2019 06:00:00 6.2 C 88.8333 % 4.5 C
1758 28-04-2019 07:00:00 6.80833 C 88.2500 % 5 C
1759 28-04-2019 08:00:00 7.575 C 86.0833 % 5.4 C
1760 28-04-2019 09:00:00 7.93333 C 86.5833 % 5.84 C
1761 28-04-2019 10:00:00 8.90833 C 83.0000 % 6.18 C
1762 28-04-2019 11:00:00 10 C 74.3333 % 5.65 C
1763 28-04-2019 12:00:00 10.325 C 70.5833 % 5.22 C
1764 28-04-2019 13:00:00 11.3 C 67.0000 % 5.4 C
1765 28-04-2019 14:00:00 12.35 C 66.5000 % 6.3 C
1766 28-04-2019 15:00:00 11.50833 C 73.3333 % 6.91 C
1767 28-04-2019 16:00:00 10.375 C 83.8333 % 7.76 C
1768 28-04-2019 17:00:00 11.44167 C 79.0833 % 7.95 C
1769 28-04-2019 18:00:00 11.48333 C 74.5833 % 7.13 C
1770 28-04-2019 19:00:00 10.86667 C 76.0000 % 6.81 C
1771 28-04-2019 20:00:00 9.65 C 80.2500 % 6.42 C
1772 28-04-2019 21:00:00 7.30833 C 86.9167 % 5.28 C
1773 28-04-2019 22:00:00 5.96667 C 90.4167 % 4.52 C
1774 28-04-2019 23:00:00 5 C 92.3333 % 3.86 C
1775 29-04-2019 00:00:00 4.41667 C 93.5833 % 3.47 C
Sensor: Nr:Datum:Temp:Feuchte:Taupunkt:
Aussen-T/F 1776 29-04-2019 01:00:00 4.03333 C 94.0000 % 3.16 C
1777 29-04-2019 02:00:00 3.425 C 94.7500 % 2.66 C
1778 29-04-2019 03:00:00 3.675 C 95.0000 % 2.95 C
1779 29-04-2019 04:00:00 3.54167 C 95.5833 % 2.9 C
1780 29-04-2019 05:00:00 3.35833 C 96.0000 % 2.78 C
1781 29-04-2019 06:00:00 3.15 C 96.0000 % 2.58 C
1782 29-04-2019 07:00:00 3.225 C 96.0000 % 2.65 C
1783 29-04-2019 08:00:00 3.85833 C 96.4167 % 3.34 C
1784 29-04-2019 09:00:00 4.99167 C 97.0000 % 4.56 C
1785 29-04-2019 10:00:00 6.51667 C 95.1667 % 5.8 C
1786 29-04-2019 11:00:00 8.7 C 90.7500 % 7.27 C
1787 29-04-2019 12:00:00 11.925 C 77.0833 % 8.04 C
1788 29-04-2019 13:00:00 13.975 C 63.3333 % 7.13 C
1789 29-04-2019 14:00:00 14.83333 C 57.0833 % 6.43 C
1790 29-04-2019 15:00:00 15.29167 C 56.3333 % 6.66 C
1791 29-04-2019 16:00:00 15.31667 C 55.3333 % 6.43 C
1792 29-04-2019 17:00:00 15.31667 C 55.7500 % 6.53 C
1793 29-04-2019 18:00:00 13.69167 C 68.6667 % 8.04 C
1794 29-04-2019 19:00:00 11.075 C 88.0833 % 9.18 C
1795 29-04-2019 20:00:00 10.25 C 91.5833 % 8.94 C
1796 29-04-2019 21:00:00 10.13333 C 92.3333 % 8.95 C
1797 29-04-2019 22:00:00 10.25833 C 91.7500 % 8.98 C
1798 29-04-2019 23:00:00 10.65833 C 89.5833 % 9.02 C
1799 30-04-2019 00:00:00 10.98333 C 87.3333 % 8.96 C
1800 30-04-2019 01:00:00 11.16667 C 86.2500 % 8.96 C
Sensor: Nr:Datum:Temp:Feuchte:Taupunkt:
Aussen-T/F 1801 30-04-2019 02:00:00 10.85 C 88.0833 % 8.96 C
1802 30-04-2019 03:00:00 10.59167 C 89.0000 % 8.86 C
1803 30-04-2019 04:00:00 10.30833 C 88.9167 % 8.56 C
1804 30-04-2019 05:00:00 10.18333 C 88.0833 % 8.3 C
1805 30-04-2019 06:00:00 10.05833 C 88.8333 % 8.3 C
1806 30-04-2019 07:00:00 10.075 C 88.7500 % 8.31 C
1807 30-04-2019 08:00:00 10.725 C 83.9167 % 8.12 C
1808 30-04-2019 09:00:00 11.51667 C 76.8333 % 7.6 C
1809 30-04-2019 10:00:00 12.61667 C 70.0833 % 7.31 C
1810 30-04-2019 11:00:00 13.60833 C 62.7500 % 6.65 C
1811 30-04-2019 12:00:00 14.5 C 58.3333 % 6.43 C
1812 30-04-2019 13:00:00 15.65833 C 53.2500 % 6.19 C
1813 30-04-2019 14:00:00 16.86667 C 48.5000 % 5.95 C
1814 30-04-2019 15:00:00 18.59167 C 45.3333 % 6.55 C
1815 30-04-2019 16:00:00 20.025 C 40.8333 % 6.32 C
1816 30-04-2019 17:00:00 20.46667 C 41.5000 % 6.95 C
1817 30-04-2019 18:00:00 20.24167 C 42.8333 % 7.21 C
1818 30-04-2019 19:00:00 18.90833 C 48.8333 % 7.92 C
1819 30-04-2019 20:00:00 16.95833 C 56.9167 % 8.37 C
1820 30-04-2019 21:00:00 15.48333 C 64.8333 % 8.9 C
1821 30-04-2019 22:00:00 14.225 C 70.8333 % 9.01 C
1822 30-04-2019 23:00:00 12.65833 C 77.9167 % 8.91 C
1823 01-05-2019 00:00:00 11.25833 C 83.0833 % 8.5 C
1824 01-05-2019 01:00:00 10.36667 C 85.5000 % 8.04 C
1825 01-05-2019 02:00:00 9.26667 C 88.2500 % 7.43 C
Sensor: Nr:Datum:Temp:Feuchte:Taupunkt:
Aussen-T/F 1826 01-05-2019 03:00:00 8.45833 C 90.8333 % 7.05 C
1827 01-05-2019 04:00:00 8.075 C 91.7500 % 6.82 C
1828 01-05-2019 05:00:00 6.95833 C 92.2500 % 5.79 C
1829 01-05-2019 06:00:00 6.275 C 93.5833 % 5.32 C
1830 01-05-2019 07:00:00 6.79167 C 94.9167 % 6.04 C
1831 01-05-2019 08:00:00 7.9 C 94.8333 % 7.12 C
1832 01-05-2019 09:00:00 8.89167 C 92.9167 % 7.81 C
1833 01-05-2019 10:00:00 10.11667 C 89.7500 % 8.51 C
1834 01-05-2019 11:00:00 11.40833 C 86.2500 % 9.2 C
1835 01-05-2019 12:00:00 13.80833 C 79.0833 % 10.25 C
1836 01-05-2019 13:00:00 16.03333 C 66.4167 % 9.78 C
1837 01-05-2019 14:00:00 17.69167 C 55.0833 % 8.57 C
1838 01-05-2019 15:00:00 19.35 C 48.7500 % 8.3 C
1839 01-05-2019 16:00:00 21.31667 C 43.8333 % 8.52 C
1840 01-05-2019 17:00:00 21.48333 C 44.2500 % 8.81 C
1841 01-05-2019 18:00:00 20.325 C 52.5000 % 10.3 C
1842 01-05-2019 19:00:00 18.21667 C 58.2500 % 9.89 C
1843 01-05-2019 20:00:00 15.65833 C 63.3333 % 8.72 C
1844 01-05-2019 21:00:00 13.53333 C 73.2500 % 8.84 C
1845 01-05-2019 22:00:00 12.76667 C 77.9167 % 9.02 C
1846 01-05-2019 23:00:00 10.80833 C 85.4167 % 8.46 C
1847 02-05-2019 00:00:00 9.98333 C 88.3333 % 8.15 C
1848 02-05-2019 01:00:00 8.96667 C 90.4167 % 7.48 C
1849 02-05-2019 02:00:00 8.23333 C 92.7500 % 7.13 C
1850 02-05-2019 03:00:00 7.73333 C 93.5833 % 6.77 C
Sensor: Nr:Datum:Temp:Feuchte:Taupunkt:
Aussen-T/F 1851 02-05-2019 04:00:00 7.025 C 94.0000 % 6.13 C
1852 02-05-2019 05:00:00 6.325 C 94.2500 % 5.47 C
1853 02-05-2019 06:00:00 5.89167 C 95.0000 % 5.15 C
1854 02-05-2019 07:00:00 6.84167 C 96.0000 % 6.25 C
1855 02-05-2019 08:00:00 8.325 C 95.7500 % 7.69 C
1856 02-05-2019 09:00:00 9.075 C 92.3333 % 7.9 C
1857 02-05-2019 10:00:00 10.725 C 82.5833 % 7.89 C
1858 02-05-2019 11:00:00 12.15833 C 76.5833 % 8.17 C
1859 02-05-2019 12:00:00 12.925 C 74.0000 % 8.41 C
1860 02-05-2019 13:00:00 14.15 C 69.5000 % 8.66 C
1861 02-05-2019 14:00:00 15.85 C 65.2500 % 9.35 C
1862 02-05-2019 15:00:00 16.58333 C 61.0833 % 9.06 C
1863 02-05-2019 16:00:00 17.225 C 58.0000 % 8.9 C
1864 02-05-2019 17:00:00 17.75 C 51.5000 % 7.63 C
1865 02-05-2019 18:00:00 17.96667 C 46.8333 % 6.45 C
1866 02-05-2019 19:00:00 15.54167 C 60.2500 % 7.88 C
1867 02-05-2019 20:00:00 12.78333 C 76.9167 % 8.84 C
1868 02-05-2019 21:00:00 11.44167 C 88.5000 % 9.61 C
1869 02-05-2019 22:00:00 10.75833 C 90.9167 % 9.34 C
1870 02-05-2019 23:00:00 10.7 C 91.7500 % 9.41 C
1871 03-05-2019 00:00:00 10.6 C 92.3333 % 9.41 C
1872 03-05-2019 01:00:00 10.51667 C 86.6667 % 8.39 C
1873 03-05-2019 02:00:00 9.85 C 84.1667 % 7.31 C
1874 03-05-2019 03:00:00 9.375 C 85.7500 % 7.11 C
1875 03-05-2019 04:00:00 9.16667 C 87.6667 % 7.23 C
Sensor: Nr:Datum:Temp:Feuchte:Taupunkt:
Aussen-T/F 1876 03-05-2019 05:00:00 9.28333 C 88.0000 % 7.4 C
1877 03-05-2019 06:00:00 9.25 C 87.7500 % 7.33 C
1878 03-05-2019 07:00:00 9.25 C 85.6667 % 6.98 C
1879 03-05-2019 08:00:00 9.65833 C 83.5000 % 7 C
1880 03-05-2019 09:00:00 10.10833 C 79.5000 % 6.73 C
1881 03-05-2019 10:00:00 10.78333 C 73.7500 % 6.29 C
1882 03-05-2019 11:00:00 11.16667 C 69.0833 % 5.72 C
1883 03-05-2019 12:00:00 11.34167 C 68.9167 % 5.85 C
1884 03-05-2019 13:00:00 12.075 C 65.5833 % 5.83 C
1885 03-05-2019 14:00:00 12.98333 C 59.5000 % 5.29 C
1886 03-05-2019 15:00:00 14.38333 C 52.9167 % 4.92 C
1887 03-05-2019 16:00:00 15 C 51.0000 % 4.96 C
1888 03-05-2019 17:00:00 14.125 C 53.9167 % 4.94 C
1889 03-05-2019 18:00:00 13.64167 C 56.3333 % 5.12 C
1890 03-05-2019 19:00:00 12.4 C 60.0000 % 4.86 C
1891 03-05-2019 20:00:00 11.18333 C 64.2500 % 4.69 C
1892 03-05-2019 21:00:00 9.875 C 70.1667 % 4.7 C
1893 03-05-2019 22:00:00 9.375 C 74.3333 % 5.05 C
1894 03-05-2019 23:00:00 8.65833 C 78.5833 % 5.15 C
1895 04-05-2019 00:00:00 8.05833 C 81.6667 % 5.12 C
1896 04-05-2019 01:00:00 7.625 C 83.1667 % 4.96 C
1897 04-05-2019 02:00:00 7.575 C 84.7500 % 5.18 C
1898 04-05-2019 03:00:00 7.43333 C 86.7500 % 5.37 C
1899 04-05-2019 04:00:00 7.4 C 90.0833 % 5.88 C
1900 04-05-2019 05:00:00 5.025 C 91.3333 % 3.73 C
Sensor: Nr:Datum:Temp:Feuchte:Taupunkt:
Aussen-T/F 1901 04-05-2019 06:00:00 3.74167 C 92.3333 % 2.62 C
1902 04-05-2019 07:00:00 3.23333 C 93.0000 % 2.21 C
1903 04-05-2019 08:00:00 3.26667 C 93.8333 % 2.37 C
1904 04-05-2019 09:00:00 3.99167 C 94.0000 % 3.12 C
1905 04-05-2019 10:00:00 4.64167 C 91.0000 % 3.3 C
1906 04-05-2019 11:00:00 5.00833 C 89.0833 % 3.36 C
1907 04-05-2019 12:00:00 5.93333 C 85.6667 % 3.72 C
1908 04-05-2019 13:00:00 7.25833 C 78.2500 % 3.73 C
1909 04-05-2019 14:00:00 7.44167 C 77.6667 % 3.8 C
1910 04-05-2019 15:00:00 4.74167 C 89.1667 % 3.11 C
1911 04-05-2019 16:00:00 7.80833 C 85.1667 % 5.48 C
1912 04-05-2019 17:00:00 10.13333 C 77.2500 % 6.34 C
1913 04-05-2019 18:00:00 10.36667 C 60.6667 % 3.11 C
1914 04-05-2019 19:00:00 9.3 C 67.2500 % 3.55 C
1915 04-05-2019 20:00:00 7.475 C 74.9167 % 3.32 C
1916 04-05-2019 21:00:00 6.49167 C 79.1667 % 3.15 C
1917 04-05-2019 22:00:00 5.00833 C 85.0000 % 2.7 C
1918 04-05-2019 23:00:00 3.8 C 89.6667 % 2.26 C
1919 05-05-2019 00:00:00 3.71667 C 91.7500 % 2.5 C
1920 05-05-2019 01:00:00 3.80833 C 92.6667 % 2.73 C
1921 05-05-2019 02:00:00 3.45833 C 92.6667 % 2.39 C
1922 05-05-2019 03:00:00 3.68333 C 93.7500 % 2.77 C
1923 05-05-2019 04:00:00 3.69167 C 92.7500 % 2.63 C
1924 05-05-2019 05:00:00 3.33333 C 92.0000 % 2.16 C
1925 05-05-2019 06:00:00 2.73333 C 92.0833 % 1.58 C
Sensor: Nr:Datum:Temp:Feuchte:Taupunkt:
Aussen-T/F 1926 05-05-2019 07:00:00 2.46667 C 93.3333 % 1.5 C
1927 05-05-2019 08:00:00 3.35833 C 94.0000 % 2.49 C
1928 05-05-2019 09:00:00 4.73333 C 90.9167 % 3.38 C
1929 05-05-2019 10:00:00 5.84167 C 86.5000 % 3.77 C
1930 05-05-2019 11:00:00 6.98333 C 83.5000 % 4.39 C
1931 05-05-2019 12:00:00 7.63333 C 80.6667 % 4.53 C
1932 05-05-2019 13:00:00 8.91667 C 73.1667 % 4.38 C
1933 05-05-2019 14:00:00 9.29167 C 70.7500 % 4.26 C
1934 05-05-2019 15:00:00 9.86667 C 68.9167 % 4.44 C
1935 05-05-2019 16:00:00 12.39167 C 57.5833 % 4.27 C
1936 05-05-2019 17:00:00 12.55833 C 58.7500 % 4.71 C
1937 05-05-2019 18:00:00 11.3 C 64.5833 % 4.88 C
1938 05-05-2019 19:00:00 9.66667 C 70.1667 % 4.5 C
1939 05-05-2019 20:00:00 9.19167 C 71.9167 % 4.4 C
1940 05-05-2019 21:00:00 8.26667 C 76.0833 % 4.31 C
1941 05-05-2019 22:00:00 7.15 C 80.1667 % 3.97 C
1942 05-05-2019 23:00:00 6.25 C 85.3333 % 3.98 C
1943 06-05-2019 00:00:00 6.11667 C 86.5000 % 4.04 C
1944 06-05-2019 01:00:00 5.90833 C 87.5833 % 4.01 C
1945 06-05-2019 02:00:00 5.1 C 87.9167 % 3.27 C
1946 06-05-2019 03:00:00 4.25833 C 90.4167 % 2.83 C
1947 06-05-2019 04:00:00 3.59167 C 91.2500 % 2.3 C
1948 06-05-2019 05:00:00 3.01667 C 92.4167 % 1.91 C
1949 06-05-2019 06:00:00 3.14167 C 93.7500 % 2.23 C
1950 06-05-2019 07:00:00 3.70833 C 94.0000 % 2.83 C
Sensor: Nr:Datum:Temp:Feuchte:Taupunkt:
Aussen-T/F 1951 06-05-2019 08:00:00 4.56667 C 92.3333 % 3.43 C
1952 06-05-2019 09:00:00 6.31667 C 84.2500 % 3.86 C
1953 06-05-2019 10:00:00 8.01667 C 73.8333 % 3.64 C
1954 06-05-2019 11:00:00 9.33333 C 66.7500 % 3.48 C
1955 06-05-2019 12:00:00 10.05 C 59.5000 % 2.53 C
1956 06-05-2019 13:00:00 10.95 C 56.0833 % 2.55 C
1957 06-05-2019 14:00:00 11.24167 C 55.0000 % 2.55 C
1958 06-05-2019 15:00:00 11.29167 C 57.1667 % 3.14 C
1959 06-05-2019 16:00:00 11.01667 C 60.3333 % 3.64 C
1960 06-05-2019 17:00:00 10.675 C 61.1667 % 3.51 C
1961 06-05-2019 18:00:00 11.425 C 61.2500 % 4.24 C
1962 06-05-2019 19:00:00 10.75833 C 68.2500 % 5.15 C
1963 06-05-2019 20:00:00 9.18333 C 75.5000 % 5.09 C
1964 06-05-2019 21:00:00 8.26667 C 82.0000 % 5.38 C
1965 06-05-2019 22:00:00 7.75 C 85.5000 % 5.48 C
1966 06-05-2019 23:00:00 7.30833 C 86.8333 % 5.26 C
1967 07-05-2019 00:00:00 7.29167 C 88.5000 % 5.52 C
1968 07-05-2019 01:00:00 7.04167 C 89.1667 % 5.38 C
1969 07-05-2019 02:00:00 6.7 C 90.0000 % 5.18 C
1970 07-05-2019 03:00:00 6.64167 C 90.0000 % 5.12 C
1971 07-05-2019 04:00:00 6.35 C 90.1667 % 4.86 C
1972 07-05-2019 05:00:00 6.16667 C 91.0000 % 4.81 C
1973 07-05-2019 06:00:00 5.85833 C 91.3333 % 4.56 C
1974 07-05-2019 07:00:00 6.38333 C 92.0833 % 5.19 C
1975 07-05-2019 08:00:00 7.30833 C 89.2500 % 5.66 C
Sensor: Nr:Datum:Temp:Feuchte:Taupunkt:
Aussen-T/F 1976 07-05-2019 09:00:00 8.475 C 85.7500 % 6.23 C
1977 07-05-2019 10:00:00 9.60833 C 79.9167 % 6.32 C
1978 07-05-2019 11:00:00 10.575 C 71.7500 % 5.7 C
1979 07-05-2019 12:00:00 11.88333 C 60.5000 % 4.49 C
1980 07-05-2019 13:00:00 11.86667 C 58.6667 % 4.04 C
1981 07-05-2019 14:00:00 12.76667 C 55.1667 % 4.01 C
1982 07-05-2019 15:00:00 13.05833 C 52.6667 % 3.62 C
1983 07-05-2019 16:00:00 14.13333 C 50.6667 % 4.06 C
1984 07-05-2019 17:00:00 14.9 C 47.4167 % 3.83 C
1985 07-05-2019 18:00:00 14.94167 C 46.0000 % 3.44 C
1986 07-05-2019 19:00:00 13.4 C 61.8333 % 6.24 C
1987 07-05-2019 20:00:00 11.275 C 62.9167 % 4.48 C
1988 07-05-2019 21:00:00 9.01667 C 68.3333 % 3.51 C
1989 07-05-2019 22:00:00 7.98333 C 75.9167 % 4 C
1990 07-05-2019 23:00:00 6.93333 C 80.7500 % 3.86 C
1991 08-05-2019 00:00:00 6.325 C 82.9167 % 3.64 C
1992 08-05-2019 01:00:00 5.75 C 84.4167 % 3.33 C
1993 08-05-2019 02:00:00 5.15 C 87.0000 % 3.17 C
1994 08-05-2019 03:00:00 4.7 C 89.4167 % 3.11 C
1995 08-05-2019 04:00:00 4.95 C 91.0000 % 3.61 C
1996 08-05-2019 05:00:00 5.25 C 91.0000 % 3.9 C
1997 08-05-2019 06:00:00 5.49167 C 91.2500 % 4.18 C
1998 08-05-2019 07:00:00 6.21667 C 90.5000 % 4.78 C
1999 08-05-2019 08:00:00 7.49167 C 87.9167 % 5.62 C
2000 08-05-2019 09:00:00 8.85 C 82.5833 % 6.05 C
Sensor: Nr:Datum:Temp:Feuchte:Taupunkt:
Aussen-T/F 2001 08-05-2019 10:00:00 9.025 C 87.2500 % 7.02 C
2002 08-05-2019 11:00:00 9.69167 C 89.4167 % 8.04 C
2003 08-05-2019 12:00:00 11.325 C 88.5833 % 9.51 C
2004 08-05-2019 13:00:00 13.61667 C 82.9167 % 10.77 C
2005 08-05-2019 14:00:00 14.7 C 78.7500 % 11.05 C
2006 08-05-2019 15:00:00 14.56667 C 78.9167 % 10.95 C
2007 08-05-2019 16:00:00 13.39167 C 86.7500 % 11.23 C
2008 08-05-2019 17:00:00 12.51667 C 91.3333 % 11.14 C
2009 08-05-2019 18:00:00 12.5 C 92.9167 % 11.39 C
2010 08-05-2019 19:00:00 12.25833 C 93.5000 % 11.24 C
2011 08-05-2019 20:00:00 11.71667 C 94.0000 % 10.78 C
2012 08-05-2019 21:00:00 10.95833 C 94.5000 % 10.11 C
2013 08-05-2019 22:00:00 10.14167 C 94.9167 % 9.36 C
2014 08-05-2019 23:00:00 9.41667 C 94.5833 % 8.59 C
2015 09-05-2019 00:00:00 8.78333 C 94.5000 % 7.95 C
2016 09-05-2019 01:00:00 8.31667 C 94.7500 % 7.53 C
2017 09-05-2019 02:00:00 7.425 C 94.8333 % 6.65 C
2018 09-05-2019 03:00:00 7.31667 C 95.7500 % 6.68 C
2019 09-05-2019 04:00:00 7.75833 C 96.0000 % 7.16 C
2020 09-05-2019 05:00:00 7.80833 C 96.0000 % 7.21 C
2021 09-05-2019 06:00:00 7.46667 C 95.5833 % 6.81 C
2022 09-05-2019 07:00:00 8.7 C 96.3333 % 8.15 C
2023 09-05-2019 08:00:00 9.9 C 93.4167 % 8.89 C
2024 09-05-2019 09:00:00 11.4 C 87.4167 % 9.39 C
2025 09-05-2019 10:00:00 11.6 C 88.2500 % 9.72 C
Sensor: Nr:Datum:Temp:Feuchte:Taupunkt:
Aussen-T/F 2026 09-05-2019 11:00:00 12.78333 C 84.0000 % 10.15 C
2027 09-05-2019 12:00:00 13.21667 C 84.4167 % 10.65 C
2028 09-05-2019 13:00:00 13.26667 C 83.8333 % 10.59 C
2029 09-05-2019 14:00:00 13.60833 C 80.0833 % 10.24 C
2030 09-05-2019 15:00:00 13.43333 C 82.7500 % 10.56 C
2031 09-05-2019 16:00:00 13.80833 C 81.1667 % 10.64 C
2032 09-05-2019 17:00:00 14.375 C 81.4167 % 11.24 C
2033 09-05-2019 18:00:00 15.625 C 79.3333 % 12.06 C
2034 09-05-2019 19:00:00 15.4 C 79.2500 % 11.83 C
2035 09-05-2019 20:00:00 13.70833 C 85.5833 % 11.34 C
2036 09-05-2019 21:00:00 11.66667 C 90.7500 % 10.21 C
2037 09-05-2019 22:00:00 10.89167 C 94.1667 % 9.99 C
2038 09-05-2019 23:00:00 10.76667 C 95.0000 % 10 C
2039 10-05-2019 00:00:00 10.525 C 95.0000 % 9.76 C
2040 10-05-2019 01:00:00 9.51667 C 95.0000 % 8.76 C
2041 10-05-2019 02:00:00 8.85833 C 95.5000 % 8.18 C
2042 10-05-2019 03:00:00 8.16667 C 95.3333 % 7.47 C
2043 10-05-2019 04:00:00 8.56667 C 96.2500 % 8 C
2044 10-05-2019 05:00:00 8.28333 C 96.0000 % 7.68 C
2045 10-05-2019 06:00:00 8.40833 C 96.0000 % 7.81 C
2046 10-05-2019 07:00:00 8.75 C 95.5833 % 8.08 C
2047 10-05-2019 08:00:00 9.175 C 94.0833 % 8.27 C
2048 10-05-2019 09:00:00 10.7 C 87.5000 % 8.71 C
2049 10-05-2019 10:00:00 12.1 C 81.4167 % 9.02 C
2050 10-05-2019 11:00:00 13.23333 C 75.7500 % 9.05 C
Sensor: Nr:Datum:Temp:Feuchte:Taupunkt:
Aussen-T/F 2051 10-05-2019 12:00:00 14.35 C 67.4167 % 8.4 C
2052 10-05-2019 13:00:00 15.44167 C 60.0000 % 7.72 C
2053 10-05-2019 14:00:00 16.75 C 54.4167 % 7.51 C
2054 10-05-2019 15:00:00 17.21667 C 52.5000 % 7.42 C
2055 10-05-2019 16:00:00 17.93333 C 49.3333 % 7.17 C
2056 10-05-2019 17:00:00 17.6 C 48.8333 % 6.72 C
2057 10-05-2019 18:00:00 17.25 C 50.5833 % 6.91 C
2058 10-05-2019 19:00:00 17.18333 C 62.0000 % 9.85 C
2059 10-05-2019 20:00:00 14.175 C 71.5000 % 9.1 C
2060 10-05-2019 21:00:00 12.35 C 77.4167 % 8.52 C
2061 10-05-2019 22:00:00 11.76667 C 81.3333 % 8.68 C
2062 10-05-2019 23:00:00 11.53333 C 83.2500 % 8.79 C
2063 11-05-2019 00:00:00 11.04167 C 86.5833 % 8.89 C
2064 11-05-2019 01:00:00 10.36667 C 91.1667 % 8.99 C
2065 11-05-2019 02:00:00 10.1 C 93.3333 % 9.07 C
2066 11-05-2019 03:00:00 9.925 C 94.1667 % 9.03 C
2067 11-05-2019 04:00:00 9.7 C 95.0000 % 8.94 C
2068 11-05-2019 05:00:00 9.775 C 95.7500 % 9.13 C
2069 11-05-2019 06:00:00 9.7 C 96.0000 % 9.09 C
2070 11-05-2019 07:00:00 9.7 C 96.0000 % 9.09 C
2071 11-05-2019 08:00:00 9.65833 C 96.0000 % 9.05 C
2072 11-05-2019 09:00:00 9.70833 C 96.0000 % 9.1 C
2073 11-05-2019 10:00:00 9.85833 C 96.0000 % 9.25 C
2074 11-05-2019 11:00:00 10.13333 C 96.0000 % 9.52 C
2075 11-05-2019 12:00:00 10.36667 C 94.5833 % 9.54 C
Sensor: Nr:Datum:Temp:Feuchte:Taupunkt:
Aussen-T/F 2076 11-05-2019 13:00:00 9.79167 C 94.0000 % 8.87 C
2077 11-05-2019 14:00:00 9.76667 C 94.9167 % 8.99 C
2078 11-05-2019 15:00:00 9.91667 C 95.0000 % 9.15 C
2079 11-05-2019 16:00:00 10.31667 C 95.9167 % 9.69 C
2080 11-05-2019 17:00:00 10.95833 C 95.4167 % 10.25 C
2081 11-05-2019 18:00:00 11.79167 C 88.6667 % 9.98 C
2082 11-05-2019 19:00:00 12.1 C 81.5833 % 9.05 C
2083 11-05-2019 20:00:00 11.3 C 84.1667 % 8.73 C
2084 11-05-2019 21:00:00 9.44167 C 91.2500 % 8.09 C
2085 11-05-2019 22:00:00 8.33333 C 92.8333 % 7.24 C
2086 11-05-2019 23:00:00 7.65 C 94.3333 % 6.8 C
2087 12-05-2019 00:00:00 7.41667 C 95.0000 % 6.67 C
2088 12-05-2019 01:00:00 6.75 C 95.0000 % 6.01 C
2089 12-05-2019 02:00:00 6.43333 C 93.7500 % 5.5 C
2090 12-05-2019 03:00:00 5.66667 C 93.0000 % 4.63 C
2091 12-05-2019 04:00:00 4.70833 C 93.7500 % 3.79 C
2092 12-05-2019 05:00:00 4.225 C 94.6667 % 3.45 C
2093 12-05-2019 06:00:00 4.45833 C 95.0000 % 3.73 C
2094 12-05-2019 07:00:00 5.68333 C 91.8333 % 4.46 C
2095 12-05-2019 08:00:00 6.98333 C 85.5000 % 4.72 C
2096 12-05-2019 09:00:00 8.125 C 78.6667 % 4.65 C
2097 12-05-2019 10:00:00 8.83333 C 74.3333 % 4.53 C
2098 12-05-2019 11:00:00 9.58333 C 69.4167 % 4.27 C
2099 12-05-2019 12:00:00 10.54167 C 64.7500 % 4.19 C
2100 12-05-2019 13:00:00 11.66667 C 60.1667 % 4.21 C
Sensor: Nr:Datum:Temp:Feuchte:Taupunkt:
Aussen-T/F 2101 12-05-2019 14:00:00 12.83333 C 54.8333 % 3.98 C
2102 12-05-2019 15:00:00 14.13333 C 50.9167 % 4.13 C
2103 12-05-2019 16:00:00 15.25833 C 46.0000 % 3.72 C
2104 12-05-2019 17:00:00 14.83333 C 45.5000 % 3.18 C
2105 12-05-2019 18:00:00 15.19167 C 43.5833 % 2.9 C
2106 12-05-2019 19:00:00 13.96667 C 45.0833 % 2.26 C
2107 12-05-2019 20:00:00 13.09167 C 49.2500 % 2.71 C
2108 12-05-2019 21:00:00 9.68333 C 71.3333 % 4.76 C
2109 12-05-2019 22:00:00 8.375 C 76.7500 % 4.54 C
2110 12-05-2019 23:00:00 7.30833 C 78.5833 % 3.84 C
2111 13-05-2019 00:00:00 6.45 C 82.1667 % 3.64 C
2112 13-05-2019 01:00:00 5.11667 C 87.5833 % 3.23 C
2113 13-05-2019 02:00:00 4.15 C 90.5833 % 2.75 C
2114 13-05-2019 03:00:00 3.60833 C 92.2500 % 2.47 C
2115 13-05-2019 04:00:00 3.075 C 93.2500 % 2.09 C
2116 13-05-2019 05:00:00 2.64167 C 94.0000 % 1.78 C
2117 13-05-2019 06:00:00 2.30833 C 94.5000 % 1.52 C
2118 13-05-2019 07:00:00 2.63333 C 95.2500 % 1.95 C
2119 13-05-2019 08:00:00 4.26667 C 96.0000 % 3.69 C
2120 13-05-2019 09:00:00 6.13333 C 90.4167 % 4.69 C
2121 13-05-2019 10:00:00 9.69167 C 57.8333 % 1.8 C
2122 13-05-2019 11:00:00 11.4 C 48.6667 % 0.99 C
2123 13-05-2019 12:00:00 13.43333 C 32.5833 % -2.66 C
2124 13-05-2019 13:00:00 14.6 C 29.9167 % -2.79 C
2125 13-05-2019 14:00:00 15.575 C 31.0000 % -1.47 C
Sensor: Nr:Datum:Temp:Feuchte:Taupunkt:
Aussen-T/F 2126 13-05-2019 15:00:00 17.19167 C 29.5833 % -0.7 C
2127 13-05-2019 16:00:00 18.43333 C 28.9167 % 0.06 C
2128 13-05-2019 17:00:00 18.6 C 28.4167 % -0.04 C
2129 13-05-2019 18:00:00 18.08333 C 28.8333 % -0.29 C
2130 13-05-2019 19:00:00 16.95833 C 32.8333 % 0.52 C
2131 13-05-2019 20:00:00 15.41667 C 34.7500 % -0.05 C
2132 13-05-2019 21:00:00 12.25 C 50.4167 % 2.26 C
2133 13-05-2019 22:00:00 9.325 C 60.9167 % 2.18 C
2134 13-05-2019 23:00:00 7.875 C 69.4167 % 2.63 C
2135 14-05-2019 00:00:00 6.7 C 74.8333 % 2.56 C
2136 14-05-2019 01:00:00 5.76667 C 77.5000 % 2.15 C
2137 14-05-2019 02:00:00 4.74167 C 81.2500 % 1.81 C
2138 14-05-2019 03:00:00 3.83333 C 84.6667 % 1.49 C
2139 14-05-2019 04:00:00 3.18333 C 87.0000 % 1.23 C
2140 14-05-2019 05:00:00 2.66667 C 88.9167 % 1.03 C
2141 14-05-2019 06:00:00 2.41667 C 90.8333 % 1.08 C
2142 14-05-2019 07:00:00 2.825 C 92.5000 % 1.73 C
2143 14-05-2019 08:00:00 4.2 C 92.5833 % 3.11 C
2144 14-05-2019 09:00:00 6.50833 C 85.8333 % 4.31 C
2145 14-05-2019 10:00:00 9.575 C 69.3333 % 4.25 C
2146 14-05-2019 11:00:00 12.65 C 50.8333 % 2.74 C
2147 14-05-2019 12:00:00 13.45833 C 45.8333 % 2.03 C
2148 14-05-2019 13:00:00 14.21667 C 43.7500 % 2.07 C
2149 14-05-2019 14:00:00 14.79167 C 43.0000 % 2.35 C
2150 14-05-2019 15:00:00 16.00833 C 39.8333 % 2.37 C
Sensor: Nr:Datum:Temp:Feuchte:Taupunkt:
Aussen-T/F 2151 14-05-2019 16:00:00 16.59167 C 37.0833 % 1.89 C
2152 14-05-2019 17:00:00 16.8 C 36.4167 % 1.82 C
2153 14-05-2019 18:00:00 16.475 C 37.2500 % 1.85 C
2154 14-05-2019 19:00:00 16.075 C 38.1667 % 1.83 C
2155 14-05-2019 20:00:00 13.73333 C 48.9167 % 3.2 C
2156 14-05-2019 21:00:00 10.35 C 60.5833 % 3.07 C
2157 14-05-2019 22:00:00 8.73333 C 67.9167 % 3.15 C
2158 14-05-2019 23:00:00 7.69167 C 71.9167 % 2.96 C
2159 15-05-2019 00:00:00 6.88333 C 73.5000 % 2.48 C
2160 15-05-2019 01:00:00 5.89167 C 77.3333 % 2.24 C
2161 15-05-2019 02:00:00 4.74167 C 81.4167 % 1.84 C
2162 15-05-2019 03:00:00 3.98333 C 84.5000 % 1.61 C
2163 15-05-2019 04:00:00 3.15 C 87.4167 % 1.27 C
2164 15-05-2019 05:00:00 2.60833 C 89.0000 % 0.98 C
2165 15-05-2019 06:00:00 2.325 C 91.0000 % 1.01 C
2166 15-05-2019 07:00:00 2.75833 C 92.4167 % 1.65 C
2167 15-05-2019 08:00:00 3.775 C 92.7500 % 2.71 C
2168 15-05-2019 09:00:00 5.99167 C 85.3333 % 3.72 C
2169 15-05-2019 10:00:00 10.15833 C 54.6667 % 1.45 C
2170 15-05-2019 11:00:00 12.05 C 45.6667 % 0.7 C
2171 15-05-2019 12:00:00 12.95 C 40.9167 % 0 C
2172 15-05-2019 13:00:00 14.08333 C 35.9167 % -0.77 C
2173 15-05-2019 14:00:00 14.95 C 37.1667 % 0.46 C
2174 15-05-2019 15:00:00 15.975 C 34.0833 % 0.18 C
2175 15-05-2019 16:00:00 17.19167 C 34.3333 % 1.35 C
Sensor: Nr:Datum:Temp:Feuchte:Taupunkt:
Aussen-T/F 2176 15-05-2019 17:00:00 17.58333 C 33.0833 % 1.18 C
2177 15-05-2019 18:00:00 17.38333 C 33.9167 % 1.35 C
2178 15-05-2019 19:00:00 16.55833 C 35.2500 % 1.16 C
2179 15-05-2019 20:00:00 15.10833 C 42.2500 % 2.39 C
2180 15-05-2019 21:00:00 11.45833 C 56.8333 % 3.21 C
2181 15-05-2019 22:00:00 9.525 C 60.3333 % 2.24 C
2182 15-05-2019 23:00:00 8.09167 C 63.9167 % 1.69 C
2183 16-05-2019 00:00:00 7.39167 C 66.5833 % 1.59 C
2184 16-05-2019 01:00:00 6.64167 C 73.4167 % 2.24 C
2185 16-05-2019 02:00:00 5.725 C 78.7500 % 2.33 C
2186 16-05-2019 03:00:00 5.58333 C 82.1667 % 2.79 C
2187 16-05-2019 04:00:00 5.71667 C 83.5833 % 3.16 C
2188 16-05-2019 05:00:00 5.83333 C 84.0833 % 3.36 C
2189 16-05-2019 06:00:00 5.95 C 85.4167 % 3.7 C
2190 16-05-2019 07:00:00 6.64167 C 85.1667 % 4.33 C
2191 16-05-2019 08:00:00 7.98333 C 82.8333 % 5.25 C
2192 16-05-2019 09:00:00 9.95 C 72.7500 % 5.29 C
2193 16-05-2019 10:00:00 11.65833 C 62.9167 % 4.84 C
2194 16-05-2019 11:00:00 12.20833 C 58.5833 % 4.34 C
2195 16-05-2019 12:00:00 13.13333 C 58.8333 % 5.27 C
2196 16-05-2019 13:00:00 14.68333 C 56.6667 % 6.18 C
2197 16-05-2019 14:00:00 15.4 C 55.8333 % 6.63 C
2198 16-05-2019 15:00:00 17.38333 C 52.0833 % 7.46 C
2199 16-05-2019 16:00:00 18.23333 C 49.6667 % 7.55 C
2200 16-05-2019 17:00:00 16.90833 C 54.0000 % 7.55 C
Sensor: Nr:Datum:Temp:Feuchte:Taupunkt:
Aussen-T/F 2201 16-05-2019 18:00:00 15.44167 C 61.5833 % 8.1 C
2202 16-05-2019 19:00:00 14.075 C 68.0833 % 8.28 C
2203 16-05-2019 20:00:00 12.56667 C 73.1667 % 7.9 C
2204 16-05-2019 21:00:00 11.175 C 76.0000 % 7.11 C
2205 16-05-2019 22:00:00 10.23333 C 81.7500 % 7.26 C
2206 16-05-2019 23:00:00 9.60833 C 86.3333 % 7.44 C
2207 17-05-2019 00:00:00 9.08333 C 90.9167 % 7.68 C
2208 17-05-2019 01:00:00 8.79167 C 92.5000 % 7.64 C
2209 17-05-2019 02:00:00 8.7 C 93.6667 % 7.74 C
2210 17-05-2019 03:00:00 8.63333 C 94.1667 % 7.75 C
2211 17-05-2019 04:00:00 8.475 C 94.9167 % 7.71 C
2212 17-05-2019 05:00:00 8.36667 C 95.0000 % 7.61 C
2213 17-05-2019 06:00:00 8.45 C 95.5833 % 7.79 C
2214 17-05-2019 07:00:00 8.71667 C 96.0000 % 8.12 C
2215 17-05-2019 08:00:00 8.96667 C 96.0000 % 8.36 C
2216 17-05-2019 09:00:00 9.29167 C 96.0000 % 8.69 C
2217 17-05-2019 10:00:00 9.625 C 96.0000 % 9.02 C
2218 17-05-2019 11:00:00 10.2 C 95.0833 % 9.45 C
2219 17-05-2019 12:00:00 11.175 C 93.7500 % 10.21 C
2220 17-05-2019 13:00:00 12.825 C 89.1667 % 11.09 C
2221 17-05-2019 14:00:00 14.44167 C 84.1667 % 11.8 C
2222 17-05-2019 15:00:00 15.54167 C 79.8333 % 12.08 C
2223 17-05-2019 16:00:00 16.35 C 75.2500 % 11.96 C
2224 17-05-2019 17:00:00 17.35 C 70.8333 % 12.01 C
2225 17-05-2019 18:00:00 16.8 C 78.3333 % 13.01 C
Sensor: Nr:Datum:Temp:Feuchte:Taupunkt:
Aussen-T/F 2226 17-05-2019 19:00:00 16.625 C 80.1667 % 13.19 C
2227 17-05-2019 20:00:00 13.975 C 85.3333 % 11.55 C
2228 17-05-2019 21:00:00 12.00833 C 89.6667 % 10.36 C
2229 17-05-2019 22:00:00 11.96667 C 92.0000 % 10.71 C
2230 17-05-2019 23:00:00 12.05833 C 93.4167 % 11.03 C
2231 18-05-2019 00:00:00 11.6 C 94.0000 % 10.67 C
2232 18-05-2019 01:00:00 10.44167 C 94.4167 % 9.58 C
2233 18-05-2019 02:00:00 10.58333 C 95.8333 % 9.95 C
2234 18-05-2019 03:00:00 10.43333 C 95.9167 % 9.81 C
2235 18-05-2019 04:00:00 9.925 C 96.0000 % 9.32 C
2236 18-05-2019 05:00:00 9.31667 C 96.0000 % 8.71 C
2237 18-05-2019 06:00:00 9.35833 C 96.5000 % 8.83 C
2238 18-05-2019 07:00:00 10.23333 C 97.0000 % 9.78 C
2239 18-05-2019 08:00:00 11.2 C 96.8333 % 10.72 C
2240 18-05-2019 09:00:00 12.275 C 94.6667 % 11.44 C
2241 18-05-2019 10:00:00 14.16667 C 91.3333 % 12.78 C
2242 18-05-2019 11:00:00 16.9 C 77.2500 % 12.89 C
2243 18-05-2019 12:00:00 18.14167 C 71.5000 % 12.91 C
2244 18-05-2019 13:00:00 19.01667 C 69.0833 % 13.22 C
2245 18-05-2019 14:00:00 20.34167 C 62.5000 % 12.95 C
2246 18-05-2019 15:00:00 21.05833 C 58.4167 % 12.59 C
2247 18-05-2019 16:00:00 22.41667 C 60.3333 % 14.36 C
2248 18-05-2019 17:00:00 21.04167 C 70.5833 % 15.49 C
2249 18-05-2019 18:00:00 18.54167 C 76.5833 % 14.35 C
2250 18-05-2019 19:00:00 15.85 C 86.9167 % 13.68 C
Sensor: Nr:Datum:Temp:Feuchte:Taupunkt:
Aussen-T/F 2251 18-05-2019 20:00:00 14.79167 C 90.4167 % 13.24 C
2252 18-05-2019 21:00:00 13.71667 C 92.0000 % 12.44 C
2253 18-05-2019 22:00:00 12.75 C 93.3333 % 11.7 C
2254 18-05-2019 23:00:00 12.53333 C 94.6667 % 11.7 C
2255 19-05-2019 00:00:00 12.79167 C 95.0000 % 12.01 C
2256 19-05-2019 01:00:00 12.73333 C 95.0000 % 11.95 C
2257 19-05-2019 02:00:00 12.26667 C 95.0000 % 11.49 C
2258 19-05-2019 03:00:00 11.71667 C 95.5000 % 11.02 C
2259 19-05-2019 04:00:00 11.625 C 96.0000 % 11.01 C
2260 19-05-2019 05:00:00 11.38333 C 96.0000 % 10.77 C
2261 19-05-2019 06:00:00 11.475 C 96.8333 % 10.99 C
2262 19-05-2019 07:00:00 12.13333 C 97.0000 % 11.67 C
2263 19-05-2019 08:00:00 12.825 C 97.0000 % 12.36 C
2264 19-05-2019 09:00:00 13.73333 C 96.9167 % 13.25 C
2265 19-05-2019 10:00:00 15.11667 C 94.8333 % 14.29 C
2266 19-05-2019 11:00:00 16.26667 C 90.2500 % 14.67 C
2267 19-05-2019 12:00:00 17.99167 C 84.2500 % 15.29 C
2268 19-05-2019 13:00:00 18.78333 C 77.5000 % 14.77 C
2269 19-05-2019 14:00:00 20.225 C 67.2500 % 13.96 C
2270 19-05-2019 15:00:00 22.54167 C 61.3333 % 14.73 C
2271 19-05-2019 16:00:00 23.4 C 58.4167 % 14.78 C
2272 19-05-2019 17:00:00 19.25833 C 63.3333 % 12.13 C
2273 19-05-2019 18:00:00 19.96667 C 65.1667 % 13.23 C
2274 19-05-2019 19:00:00 20.475 C 63.1667 % 13.24 C
2275 19-05-2019 20:00:00 18.96667 C 68.5833 % 13.06 C
Sensor: Nr:Datum:Temp:Feuchte:Taupunkt:
Aussen-T/F 2276 19-05-2019 21:00:00 15.7 C 80.8333 % 12.42 C
2277 19-05-2019 22:00:00 14.53333 C 86.1667 % 12.25 C
2278 19-05-2019 23:00:00 14.65833 C 84.7500 % 12.12 C
2279 20-05-2019 00:00:00 14.48333 C 85.6667 % 12.11 C
2280 20-05-2019 01:00:00 13.40833 C 89.3333 % 11.69 C
2281 20-05-2019 02:00:00 12.46667 C 91.5833 % 11.14 C
2282 20-05-2019 03:00:00 12.23333 C 93.1667 % 11.16 C
2283 20-05-2019 04:00:00 12.7 C 94.0000 % 11.76 C
2284 20-05-2019 05:00:00 13.13333 C 93.0000 % 12.03 C
2285 20-05-2019 06:00:00 13.15 C 92.0000 % 11.88 C
2286 20-05-2019 07:00:00 13.16667 C 92.0000 % 11.9 C
2287 20-05-2019 08:00:00 13.475 C 91.7500 % 12.16 C
2288 20-05-2019 09:00:00 13.95 C 89.9167 % 12.32 C
2289 20-05-2019 10:00:00 14.25833 C 89.0833 % 12.49 C
2290 20-05-2019 11:00:00 14.125 C 91.9167 % 12.83 C
2291 20-05-2019 12:00:00 14.08333 C 92.0833 % 12.82 C
2292 20-05-2019 13:00:00 13.85833 C 92.0000 % 12.58 C
2293 20-05-2019 14:00:00 14.29167 C 91.4167 % 12.91 C
2294 20-05-2019 15:00:00 14.6 C 89.2500 % 12.85 C
2295 20-05-2019 16:00:00 14.84167 C 87.7500 % 12.83 C
2296 20-05-2019 17:00:00 14.93333 C 87.0000 % 12.79 C
2297 20-05-2019 18:00:00 14.86667 C 86.0833 % 12.56 C
2298 20-05-2019 19:00:00 14.65 C 86.6667 % 12.45 C
2299 20-05-2019 20:00:00 14.5 C 87.2500 % 12.41 C
2300 20-05-2019 21:00:00 14.19167 C 88.0000 % 12.23 C
Sensor: Nr:Datum:Temp:Feuchte:Taupunkt:
Aussen-T/F 2301 20-05-2019 22:00:00 14.1 C 88.0000 % 12.14 C
2302 20-05-2019 23:00:00 14.21667 C 86.5833 % 12.01 C
2303 21-05-2019 00:00:00 14.23333 C 86.6667 % 12.04 C
2304 21-05-2019 01:00:00 13.8 C 89.5000 % 12.1 C
2305 21-05-2019 02:00:00 13.56667 C 90.6667 % 12.07 C
2306 21-05-2019 03:00:00 13.275 C 91.5000 % 11.92 C
2307 21-05-2019 04:00:00 13.11667 C 91.0000 % 11.68 C
2308 21-05-2019 05:00:00 12.71667 C 91.5833 % 11.38 C
2309 21-05-2019 06:00:00 12.21667 C 93.7500 % 11.24 C
2310 21-05-2019 07:00:00 12.23333 C 94.0000 % 11.3 C
2311 21-05-2019 08:00:00 12.3 C 93.5833 % 11.3 C
2312 21-05-2019 09:00:00 12.3 C 93.5833 % 11.3 C
2313 21-05-2019 10:00:00 12.23333 C 93.6667 % 11.24 C
2314 21-05-2019 11:00:00 12.15 C 93.0833 % 11.07 C
2315 21-05-2019 12:00:00 12.11667 C 93.8333 % 11.15 C
2316 21-05-2019 13:00:00 12.225 C 94.0000 % 11.29 C
2317 21-05-2019 14:00:00 12.15 C 93.6667 % 11.16 C
2318 21-05-2019 15:00:00 12.15833 C 93.0833 % 11.07 C
2319 21-05-2019 16:00:00 12.09167 C 93.9167 % 11.14 C
2320 21-05-2019 17:00:00 12.18333 C 94.0833 % 11.26 C
2321 21-05-2019 18:00:00 12.275 C 94.0833 % 11.35 C
2322 21-05-2019 19:00:00 12.375 C 93.6667 % 11.38 C
2323 21-05-2019 20:00:00 12.21667 C 94.8333 % 11.41 C
2324 21-05-2019 21:00:00 12.1 C 95.0000 % 11.32 C
2325 21-05-2019 22:00:00 12.04167 C 95.3333 % 11.32 C
Sensor: Nr:Datum:Temp:Feuchte:Taupunkt:
Aussen-T/F 2326 21-05-2019 23:00:00 11.85833 C 96.0000 % 11.24 C
2327 22-05-2019 00:00:00 11.8 C 96.0000 % 11.18 C
2328 22-05-2019 01:00:00 11.75 C 96.0000 % 11.13 C
2329 22-05-2019 02:00:00 11.56667 C 96.0000 % 10.95 C
2330 22-05-2019 03:00:00 11.575 C 96.0000 % 10.96 C
2331 22-05-2019 04:00:00 11.44167 C 95.2500 % 10.71 C
2332 22-05-2019 05:00:00 11.33333 C 95.0000 % 10.56 C
2333 22-05-2019 06:00:00 11.05 C 94.0000 % 10.12 C
2334 22-05-2019 07:00:00 10.66667 C 93.3333 % 9.64 C
2335 22-05-2019 08:00:00 10.33333 C 91.9167 % 9.08 C
2336 22-05-2019 09:00:00 10.475 C 87.2500 % 8.45 C
2337 22-05-2019 10:00:00 10.88333 C 83.4167 % 8.19 C
2338 22-05-2019 11:00:00 11.51667 C 82.3333 % 8.61 C
2339 22-05-2019 12:00:00 12.85 C 76.6667 % 8.86 C
2340 22-05-2019 13:00:00 13.65833 C 73.5833 % 9.03 C
2341 22-05-2019 14:00:00 15.01667 C 69.6667 % 9.52 C
2342 22-05-2019 15:00:00 17.08333 C 63.7500 % 10.17 C
2343 22-05-2019 16:00:00 18.625 C 59.0000 % 10.46 C
2344 22-05-2019 17:00:00 18.24167 C 58.7500 % 10.04 C
2345 22-05-2019 18:00:00 19.46667 C 54.0833 % 9.94 C
2346 22-05-2019 19:00:00 19.025 C 56.0833 % 10.08 C
2347 22-05-2019 20:00:00 17.24167 C 70.9167 % 11.92 C
2348 22-05-2019 21:00:00 13.73333 C 76.5833 % 9.7 C
2349 22-05-2019 22:00:00 11.64167 C 85.5833 % 9.31 C
2350 22-05-2019 23:00:00 10.33333 C 89.6667 % 8.71 C
Sensor: Nr:Datum:Temp:Feuchte:Taupunkt:
Aussen-T/F 2351 23-05-2019 00:00:00 9.5 C 91.6667 % 8.21 C
2352 23-05-2019 01:00:00 8.975 C 92.9167 % 7.89 C
2353 23-05-2019 02:00:00 8.54167 C 93.6667 % 7.58 C
2354 23-05-2019 03:00:00 8.35833 C 94.8333 % 7.58 C
2355 23-05-2019 04:00:00 7.93333 C 95.0000 % 7.18 C
2356 23-05-2019 05:00:00 7.71667 C 95.2500 % 7.01 C
2357 23-05-2019 06:00:00 7.9 C 96.0000 % 7.3 C
2358 23-05-2019 07:00:00 8.675 C 96.0000 % 8.07 C
2359 23-05-2019 08:00:00 9.59167 C 95.8333 % 8.96 C
2360 23-05-2019 09:00:00 11.05833 C 94.0000 % 10.13 C
2361 23-05-2019 10:00:00 13.75 C 87.4167 % 11.7 C
2362 23-05-2019 11:00:00 17.49167 C 65.9167 % 11.06 C
2363 23-05-2019 12:00:00 18.84167 C 57.8333 % 10.36 C
2364 23-05-2019 13:00:00 19.83333 C 56.4167 % 10.92 C
2365 23-05-2019 14:00:00 21.25833 C 48.8333 % 10.07 C
2366 23-05-2019 15:00:00 22.38333 C 46.0833 % 10.23 C
2367 23-05-2019 16:00:00 24.39167 C 39.2500 % 9.64 C
2368 23-05-2019 17:00:00 24.78333 C 37.5833 % 9.35 C
2369 23-05-2019 18:00:00 24.96667 C 37.5000 % 9.48 C
2370 23-05-2019 19:00:00 22.80833 C 52.6667 % 12.64 C
2371 23-05-2019 20:00:00 19.33333 C 64.8333 % 12.55 C
2372 23-05-2019 21:00:00 16.40833 C 74.0833 % 11.78 C
2373 23-05-2019 22:00:00 14.68333 C 82.0000 % 11.65 C
2374 23-05-2019 23:00:00 13.66667 C 83.7500 % 10.97 C
2375 24-05-2019 00:00:00 12.84167 C 86.3333 % 10.62 C
Sensor: Nr:Datum:Temp:Feuchte:Taupunkt:
Aussen-T/F 2376 24-05-2019 01:00:00 12.36667 C 87.5833 % 10.37 C
2377 24-05-2019 02:00:00 11.83333 C 89.2500 % 10.12 C
2378 24-05-2019 03:00:00 11.40833 C 91.0000 % 9.99 C
2379 24-05-2019 04:00:00 11.25 C 92.0000 % 10 C
2380 24-05-2019 05:00:00 11.16667 C 92.0000 % 9.92 C
2381 24-05-2019 06:00:00 11 C 92.9167 % 9.9 C
2382 24-05-2019 07:00:00 11.71667 C 92.7500 % 10.58 C
2383 24-05-2019 08:00:00 13.29167 C 88.2500 % 11.39 C
2384 24-05-2019 09:00:00 15.28333 C 80.2500 % 11.9 C
2385 24-05-2019 10:00:00 16.80833 C 76.3333 % 12.62 C
2386 24-05-2019 11:00:00 18.925 C 68.1667 % 12.93 C
2387 24-05-2019 12:00:00 20.75833 C 57.3333 % 12.02 C
2388 24-05-2019 13:00:00 22.09167 C 46.8333 % 10.21 C
2389 24-05-2019 14:00:00 22.98333 C 43.2500 % 9.83 C
2390 24-05-2019 15:00:00 23.45 C 40.5000 % 9.27 C
2391 24-05-2019 16:00:00 23.88333 C 40.6667 % 9.72 C
2392 24-05-2019 17:00:00 24.26667 C 42.4167 % 10.69 C
2393 24-05-2019 18:00:00 24.40833 C 41.0833 % 10.34 C
2394 24-05-2019 19:00:00 21.04167 C 56.5000 % 12.07 C
2395 24-05-2019 20:00:00 19.475 C 61.7500 % 11.95 C
2396 24-05-2019 21:00:00 16.96667 C 71.5000 % 11.78 C
2397 24-05-2019 22:00:00 15.14167 C 79.5833 % 11.64 C
2398 24-05-2019 23:00:00 14.06667 C 84.0000 % 11.41 C
2399 25-05-2019 00:00:00 14.75833 C 78.6667 % 11.09 C
2400 25-05-2019 01:00:00 13.875 C 77.7500 % 10.06 C
Sensor: Nr:Datum:Temp:Feuchte:Taupunkt:
Aussen-T/F 2401 25-05-2019 02:00:00 13.125 C 76.0000 % 8.99 C
2402 25-05-2019 03:00:00 12.16667 C 76.0833 % 8.08 C
2403 25-05-2019 04:00:00 10.84167 C 75.5000 % 6.69 C
2404 25-05-2019 05:00:00 10.2 C 77.2500 % 6.4 C
2405 25-05-2019 06:00:00 9.525 C 83.5833 % 6.89 C
2406 25-05-2019 07:00:00 10.675 C 80.3333 % 7.43 C
2407 25-05-2019 08:00:00 13.04167 C 72.1667 % 8.15 C
2408 25-05-2019 09:00:00 14.025 C 71.6667 % 8.99 C
2409 25-05-2019 10:00:00 15.3 C 68.2500 % 9.49 C
2410 25-05-2019 11:00:00 16.25 C 63.5000 % 9.32 C
2411 25-05-2019 12:00:00 16.95833 C 64.4167 % 10.2 C
2412 25-05-2019 13:00:00 18.45 C 60.1667 % 10.59 C
2413 25-05-2019 14:00:00 19.35833 C 55.0833 % 10.12 C
2414 25-05-2019 15:00:00 21.01667 C 50.7500 % 10.43 C
2415 25-05-2019 16:00:00 22.06667 C 46.6667 % 10.13 C
2416 25-05-2019 17:00:00 21.73333 C 46.0000 % 9.61 C
2417 25-05-2019 18:00:00 19.95 C 49.0000 % 8.92 C
2418 25-05-2019 19:00:00 18.875 C 54.5833 % 9.53 C
2419 25-05-2019 20:00:00 17.98333 C 64.1667 % 11.12 C
2420 25-05-2019 21:00:00 16.03333 C 71.4167 % 10.87 C
2421 25-05-2019 22:00:00 14.81667 C 75.2500 % 10.48 C
2422 25-05-2019 23:00:00 13.38333 C 79.7500 % 9.96 C
2423 26-05-2019 00:00:00 11.85 C 85.0000 % 9.41 C
2424 26-05-2019 01:00:00 10.775 C 88.8333 % 9.01 C
2425 26-05-2019 02:00:00 10.13333 C 90.9167 % 8.72 C
Sensor: Nr:Datum:Temp:Feuchte:Taupunkt:
Aussen-T/F 2426 26-05-2019 03:00:00 9.44167 C 92.3333 % 8.26 C
2427 26-05-2019 04:00:00 8.95 C 93.1667 % 7.91 C
2428 26-05-2019 05:00:00 8.825 C 94.4167 % 7.98 C
2429 26-05-2019 06:00:00 9.36667 C 94.5000 % 8.53 C
2430 26-05-2019 07:00:00 9.9 C 93.6667 % 8.93 C
2431 26-05-2019 08:00:00 11.21667 C 93.1667 % 10.15 C
2432 26-05-2019 09:00:00 14.3 C 84.5000 % 11.73 C
2433 26-05-2019 10:00:00 16.83333 C 72.8333 % 11.93 C
2434 26-05-2019 11:00:00 18.16667 C 63.5833 % 11.15 C
2435 26-05-2019 12:00:00 18.99167 C 60.8333 % 11.27 C
2436 26-05-2019 13:00:00 20.275 C 58.8333 % 11.96 C
2437 26-05-2019 14:00:00 21.68333 C 52.8333 % 11.65 C
2438 26-05-2019 15:00:00 23.43333 C 49.0833 % 12.14 C
2439 26-05-2019 16:00:00 23.725 C 48.5000 % 12.22 C
2440 26-05-2019 17:00:00 21.91667 C 55.7500 % 12.68 C
2441 26-05-2019 18:00:00 21.45833 C 58.3333 % 12.94 C
2442 26-05-2019 19:00:00 19.93333 C 65.5000 % 13.28 C
2443 26-05-2019 20:00:00 18.36667 C 72.2500 % 13.29 C
2444 26-05-2019 21:00:00 17.93333 C 70.7500 % 12.55 C
2445 26-05-2019 22:00:00 17.68333 C 72.0833 % 12.59 C
2446 26-05-2019 23:00:00 16.925 C 75.2500 % 12.52 C
2447 27-05-2019 00:00:00 16.29167 C 78.4167 % 12.53 C
2448 27-05-2019 01:00:00 15.75 C 80.8333 % 12.47 C
2449 27-05-2019 02:00:00 14.7 C 83.2500 % 11.89 C
2450 27-05-2019 03:00:00 14.1 C 84.4167 % 11.51 C
Sensor: Nr:Datum:Temp:Feuchte:Taupunkt:
Aussen-T/F 2451 27-05-2019 04:00:00 13.85 C 87.3333 % 11.78 C
2452 27-05-2019 05:00:00 14.19167 C 90.0000 % 12.58 C
2453 27-05-2019 06:00:00 13.94167 C 92.8333 % 12.8 C
2454 27-05-2019 07:00:00 14.20833 C 94.0000 % 13.26 C
2455 27-05-2019 08:00:00 14.94167 C 93.2500 % 13.86 C
2456 27-05-2019 09:00:00 15.61667 C 92.6667 % 14.43 C
2457 27-05-2019 10:00:00 15.925 C 91.4167 % 14.53 C
2458 27-05-2019 11:00:00 15.25 C 91.5833 % 13.89 C
2459 27-05-2019 12:00:00 15.00833 C 93.1667 % 13.91 C
2460 27-05-2019 13:00:00 14.39167 C 93.5000 % 13.36 C
2461 27-05-2019 14:00:00 14.53333 C 94.3333 % 13.63 C
2462 27-05-2019 15:00:00 14.825 C 93.9167 % 13.86 C
2463 27-05-2019 16:00:00 15.475 C 93.9167 % 14.5 C
2464 27-05-2019 17:00:00 16.075 C 92.5833 % 14.87 C
2465 27-05-2019 18:00:00 16.275 C 93.0833 % 15.16 C
2466 27-05-2019 19:00:00 16.73333 C 92.9167 % 15.58 C
2467 27-05-2019 20:00:00 15.78333 C 91.5833 % 14.42 C
2468 27-05-2019 21:00:00 14.68333 C 93.0833 % 13.58 C
2469 27-05-2019 22:00:00 13.79167 C 94.2500 % 12.88 C
2470 27-05-2019 23:00:00 13.4 C 95.0000 % 12.62 C
2471 28-05-2019 00:00:00 12.96667 C 95.6667 % 12.29 C
2472 28-05-2019 01:00:00 12.45 C 96.0000 % 11.83 C
2473 28-05-2019 02:00:00 12.55 C 96.6667 % 12.03 C
2474 28-05-2019 03:00:00 12.41667 C 96.5833 % 11.89 C
2475 28-05-2019 04:00:00 11.55 C 96.4167 % 11 C
Sensor: Nr:Datum:Temp:Feuchte:Taupunkt:
Aussen-T/F 2476 28-05-2019 05:00:00 11.80833 C 97.0000 % 11.35 C
2477 28-05-2019 06:00:00 12.18333 C 97.0000 % 11.72 C
2478 28-05-2019 07:00:00 12.51667 C 97.0000 % 12.05 C
2479 28-05-2019 08:00:00 12.84167 C 97.0000 % 12.38 C
2480 28-05-2019 09:00:00 13.425 C 95.5833 % 12.73 C
2481 28-05-2019 10:00:00 14.74167 C 87.5000 % 12.69 C
2482 28-05-2019 11:00:00 15.65 C 80.8333 % 12.37 C
2483 28-05-2019 12:00:00 16.05 C 74.7500 % 11.57 C
2484 28-05-2019 13:00:00 17.49167 C 66.4167 % 11.17 C
2485 28-05-2019 14:00:00 16.04167 C 70.3333 % 10.65 C
2486 28-05-2019 15:00:00 13.65833 C 84.3333 % 11.07 C
2487 28-05-2019 16:00:00 15.80833 C 76.7500 % 11.74 C
2488 28-05-2019 17:00:00 16.80833 C 69.8333 % 11.27 C
2489 28-05-2019 18:00:00 16.78333 C 65.4167 % 10.27 C
2490 28-05-2019 19:00:00 16.08333 C 68.0000 % 10.18 C
2491 28-05-2019 20:00:00 14.10833 C 75.7500 % 9.9 C
2492 28-05-2019 21:00:00 13.10833 C 81.6667 % 10.05 C
2493 28-05-2019 22:00:00 12.15 C 87.5000 % 10.14 C
2494 28-05-2019 23:00:00 11.78333 C 88.7500 % 9.99 C
2495 29-05-2019 00:00:00 11.70833 C 85.8333 % 9.42 C
2496 29-05-2019 01:00:00 11.73333 C 86.5833 % 9.57 C
2497 29-05-2019 02:00:00 11.875 C 85.7500 % 9.57 C
2498 29-05-2019 03:00:00 11.675 C 87.0000 % 9.59 C
2499 29-05-2019 04:00:00 11.44167 C 86.4167 % 9.26 C
2500 29-05-2019 05:00:00 11.08333 C 86.5833 % 8.93 C
Sensor: Nr:Datum:Temp:Feuchte:Taupunkt:
Aussen-T/F 2501 29-05-2019 06:00:00 10.875 C 86.5833 % 8.73 C
2502 29-05-2019 07:00:00 10.81667 C 86.0833 % 8.59 C
2503 29-05-2019 08:00:00 11.225 C 84.0000 % 8.62 C
2504 29-05-2019 09:00:00 12.225 C 80.3333 % 8.94 C
2505 29-05-2019 10:00:00 13.83333 C 71.0833 % 8.69 C
2506 29-05-2019 11:00:00 15.09167 C 63.7500 % 8.28 C
2507 29-05-2019 12:00:00 15.725 C 60.0833 % 8.01 C
2508 29-05-2019 13:00:00 16.48333 C 54.0833 % 7.18 C
2509 29-05-2019 14:00:00 17.40833 C 48.4167 % 6.42 C
2510 29-05-2019 15:00:00 18.99167 C 44.0000 % 6.48 C
2511 29-05-2019 16:00:00 20.91667 C 37.9167 % 6.05 C
2512 29-05-2019 17:00:00 22.38333 C 35.0000 % 6.19 C
2513 29-05-2019 18:00:00 22.1 C 37.9167 % 7.1 C
2514 29-05-2019 19:00:00 21.55 C 44.9167 % 9.09 C
2515 29-05-2019 20:00:00 18.66667 C 61.5833 % 11.14 C
2516 29-05-2019 21:00:00 15.49167 C 67.4167 % 9.49 C
2517 29-05-2019 22:00:00 13.29167 C 77.5000 % 9.45 C
2518 29-05-2019 23:00:00 12.91667 C 79.2500 % 9.41 C
2519 30-05-2019 00:00:00 12.05833 C 81.2500 % 8.95 C
2520 30-05-2019 01:00:00 11.44167 C 84.4167 % 8.91 C
2521 30-05-2019 02:00:00 10.88333 C 86.1667 % 8.67 C
2522 30-05-2019 03:00:00 9.95 C 88.5833 % 8.15 C
2523 30-05-2019 04:00:00 9.56667 C 90.5833 % 8.1 C
2524 30-05-2019 05:00:00 9.1 C 92.0000 % 7.87 C
2525 30-05-2019 06:00:00 9.71667 C 93.5000 % 8.72 C
Sensor: Nr:Datum:Temp:Feuchte:Taupunkt:
Aussen-T/F 2526 30-05-2019 07:00:00 10.925 C 91.4167 % 9.58 C
2527 30-05-2019 08:00:00 12.375 C 85.9167 % 10.09 C
2528 30-05-2019 09:00:00 14.10833 C 81.4167 % 10.98 C
2529 30-05-2019 10:00:00 16.09167 C 76.2500 % 11.91 C
2530 30-05-2019 11:00:00 18.18333 C 65.4167 % 11.6 C
2531 30-05-2019 12:00:00 18.2 C 65.5000 % 11.63 C
2532 30-05-2019 13:00:00 18.23333 C 70.0833 % 12.69 C
2533 30-05-2019 14:00:00 19.425 C 67.1667 % 13.18 C
2534 30-05-2019 15:00:00 21.175 C 64.3333 % 14.18 C
2535 30-05-2019 16:00:00 21.95833 C 62.9167 % 14.57 C
2536 30-05-2019 17:00:00 21.625 C 64.7500 % 14.7 C
2537 30-05-2019 18:00:00 20.95833 C 67.8333 % 14.79 C
2538 30-05-2019 19:00:00 19.95 C 72.0000 % 14.75 C
2539 30-05-2019 20:00:00 18.94167 C 77.1667 % 14.85 C
2540 30-05-2019 21:00:00 17.675 C 81.8333 % 14.53 C
2541 30-05-2019 22:00:00 16.54167 C 85.6667 % 14.13 C
2542 30-05-2019 23:00:00 15.89167 C 88.0000 % 13.91 C
2543 31-05-2019 00:00:00 15.65 C 89.9167 % 14 C
2544 31-05-2019 01:00:00 15.61667 C 90.8333 % 14.12 C
2545 31-05-2019 02:00:00 15.46667 C 90.8333 % 13.98 C
2546 31-05-2019 03:00:00 14.41667 C 92.0833 % 13.15 C
2547 31-05-2019 04:00:00 13.56667 C 93.2500 % 12.5 C
2548 31-05-2019 05:00:00 12.83333 C 94.5000 % 11.97 C
2549 31-05-2019 06:00:00 12.75 C 95.0000 % 11.97 C
2550 31-05-2019 07:00:00 13.1 C 95.9167 % 12.46 C
Sensor: Nr:Datum:Temp:Feuchte:Taupunkt:
Aussen-T/F 2551 31-05-2019 08:00:00 14.175 C 95.7500 % 13.51 C
2552 31-05-2019 09:00:00 16.24167 C 87.9167 % 14.24 C
2553 31-05-2019 10:00:00 18.69167 C 74.5833 % 14.09 C
2554 31-05-2019 11:00:00 20.225 C 68.2500 % 14.19 C
2555 31-05-2019 12:00:00 21.375 C 65.3333 % 14.61 C
2556 31-05-2019 13:00:00 22.725 C 60.4167 % 14.67 C
2557 31-05-2019 14:00:00 23.925 C 55.5000 % 14.48 C
2558 31-05-2019 15:00:00 25.28333 C 51.5833 % 14.6 C
2559 31-05-2019 16:00:00 27.3 C 45.1667 % 14.38 C
2560 31-05-2019 17:00:00 27.50833 C 44.6667 % 14.4 C
2561 31-05-2019 18:00:00 27.58333 C 43.0833 % 13.91 C
2562 31-05-2019 19:00:00 25.63333 C 51.5833 % 14.92 C
2563 31-05-2019 20:00:00 23.64167 C 58.6667 % 15.07 C
2564 31-05-2019 21:00:00 20.09167 C 71.7500 % 14.83 C
2565 31-05-2019 22:00:00 17.725 C 78.6667 % 13.97 C
2566 31-05-2019 23:00:00 15.91667 C 85.0833 % 13.41 C
2567 01-06-2019 00:00:00 14.65 C 88.8333 % 12.83 C
2568 01-06-2019 01:00:00 13.91667 C 91.5833 % 12.57 C
2569 01-06-2019 02:00:00 13.325 C 92.6667 % 12.16 C
2570 01-06-2019 03:00:00 12.83333 C 93.7500 % 11.85 C
2571 01-06-2019 04:00:00 12.2 C 94.0000 % 11.26 C
2572 01-06-2019 05:00:00 11.75833 C 94.9167 % 10.97 C
2573 01-06-2019 06:00:00 11.825 C 95.3333 % 11.1 C
2574 01-06-2019 07:00:00 12.61667 C 96.0000 % 12 C
2575 01-06-2019 08:00:00 13.875 C 94.7500 % 13.05 C
Sensor: Nr:Datum:Temp:Feuchte:Taupunkt:
Aussen-T/F 2576 01-06-2019 09:00:00 15.45 C 91.6667 % 14.1 C
2577 01-06-2019 10:00:00 18.14167 C 84.5000 % 15.49 C
2578 01-06-2019 11:00:00 20.91667 C 72.0000 % 15.68 C
2579 01-06-2019 12:00:00 23.01667 C 63.7500 % 15.78 C
2580 01-06-2019 13:00:00 24.31667 C 59.3333 % 15.88 C
2581 01-06-2019 14:00:00 25.51667 C 55.6667 % 16 C
2582 01-06-2019 15:00:00 27.83333 C 49.5000 % 16.3 C
2583 01-06-2019 16:00:00 29.975 C 43.6667 % 16.27 C
2584 01-06-2019 17:00:00 30.09167 C 42.1667 % 15.83 C
2585 01-06-2019 18:00:00 30.23333 C 43.3333 % 16.38 C
2586 01-06-2019 19:00:00 29.675 C 50.7500 % 18.38 C
2587 01-06-2019 20:00:00 26.65833 C 58.9167 % 17.96 C
2588 01-06-2019 21:00:00 22.7 C 68.0000 % 16.49 C
2589 01-06-2019 22:00:00 20.00833 C 76.0833 % 15.67 C
2590 01-06-2019 23:00:00 18.20833 C 82.2500 % 15.13 C
2591 02-06-2019 00:00:00 16.75833 C 86.5000 % 14.49 C
2592 02-06-2019 01:00:00 15.66667 C 89.3333 % 13.92 C
2593 02-06-2019 02:00:00 14.925 C 91.7500 % 13.6 C
2594 02-06-2019 03:00:00 14.325 C 93.0000 % 13.21 C
2595 02-06-2019 04:00:00 13.81667 C 93.9167 % 12.85 C
2596 02-06-2019 05:00:00 13.29167 C 94.5833 % 12.44 C
2597 02-06-2019 06:00:00 13.40833 C 95.3333 % 12.68 C
2598 02-06-2019 07:00:00 13.95833 C 95.9167 % 13.32 C
2599 02-06-2019 08:00:00 15.03333 C 96.0000 % 14.4 C
2600 02-06-2019 09:00:00 16.60833 C 95.9167 % 15.95 C
Sensor: Nr:Datum:Temp:Feuchte:Taupunkt:
Aussen-T/F 2601 02-06-2019 10:00:00 19.64167 C 88.6667 % 17.72 C
2602 02-06-2019 11:00:00 23.11667 C 77.1667 % 18.9 C
2603 02-06-2019 12:00:00 26.66667 C 57.8333 % 17.67 C
2604 02-06-2019 13:00:00 27.96667 C 46.3333 % 15.38 C
2605 02-06-2019 14:00:00 29.1 C 45.5833 % 16.16 C
2606 02-06-2019 15:00:00 31.04167 C 42.4167 % 16.77 C
2607 02-06-2019 16:00:00 32.76667 C 37.2500 % 16.26 C
2608 02-06-2019 17:00:00 33.1 C 37.2500 % 16.56 C
2609 02-06-2019 18:00:00 33 C 37.9167 % 16.75 C
2610 02-06-2019 19:00:00 32.23333 C 40.0000 % 16.91 C
2611 02-06-2019 20:00:00 28.7 C 49.5000 % 17.09 C
2612 02-06-2019 21:00:00 24.375 C 58.3333 % 15.67 C
2613 02-06-2019 22:00:00 21.35833 C 67.9167 % 15.19 C
2614 02-06-2019 23:00:00 19.30833 C 74.8333 % 14.73 C
2615 03-06-2019 00:00:00 17.75833 C 79.8333 % 14.23 C
2616 03-06-2019 01:00:00 16.825 C 82.3333 % 13.8 C
2617 03-06-2019 02:00:00 16.15 C 84.9167 % 13.61 C
2618 03-06-2019 03:00:00 15.51667 C 87.5833 % 13.47 C
2619 03-06-2019 04:00:00 14.84167 C 89.9167 % 13.2 C
2620 03-06-2019 05:00:00 14.775 C 91.8333 % 13.46 C
2621 03-06-2019 06:00:00 15.23333 C 92.0000 % 13.94 C
2622 03-06-2019 07:00:00 16.11667 C 91.5833 % 14.75 C
2623 03-06-2019 08:00:00 17.63333 C 88.6667 % 15.74 C
2624 03-06-2019 09:00:00 20.30833 C 85.2500 % 17.75 C
2625 03-06-2019 10:00:00 21.325 C 86.5833 % 18.99 C
Sensor: Nr:Datum:Temp:Feuchte:Taupunkt:
Aussen-T/F 2626 03-06-2019 11:00:00 23.475 C 74.5833 % 18.7 C
2627 03-06-2019 12:00:00 26.39167 C 59.7500 % 17.93 C
2628 03-06-2019 13:00:00 27.69167 C 52.7500 % 17.17 C
2629 03-06-2019 14:00:00 28.44167 C 40.5000 % 13.73 C
2630 03-06-2019 15:00:00 29.40833 C 35.0000 % 12.35 C
2631 03-06-2019 16:00:00 26.71667 C 46.0833 % 14.17 C
2632 03-06-2019 17:00:00 25.15833 C 57.9167 % 16.29 C
2633 03-06-2019 18:00:00 23.71667 C 63.9167 % 16.48 C
2634 03-06-2019 19:00:00 22.66667 C 68.0833 % 16.48 C
2635 03-06-2019 20:00:00 22.29167 C 70.0000 % 16.56 C
2636 03-06-2019 21:00:00 20.63333 C 74.5833 % 15.96 C
2637 03-06-2019 22:00:00 19.40833 C 77.7500 % 15.42 C
2638 03-06-2019 23:00:00 18.06667 C 81.5833 % 14.87 C
2639 04-06-2019 00:00:00 16.71667 C 86.5000 % 14.45 C
2640 04-06-2019 01:00:00 15.84167 C 89.7500 % 14.16 C
2641 04-06-2019 02:00:00 15.15 C 91.8333 % 13.83 C
2642 04-06-2019 03:00:00 14.41667 C 92.9167 % 13.29 C
2643 04-06-2019 04:00:00 13.65833 C 93.5000 % 12.63 C
2644 04-06-2019 05:00:00 13.2 C 94.2500 % 12.3 C
2645 04-06-2019 06:00:00 13.275 C 95.1667 % 12.52 C
2646 04-06-2019 07:00:00 14.525 C 95.0000 % 13.73 C
2647 04-06-2019 08:00:00 16.05 C 91.9167 % 14.74 C
2648 04-06-2019 09:00:00 17.45 C 88.6667 % 15.56 C
2649 04-06-2019 10:00:00 20.16667 C 78.6667 % 16.34 C
2650 04-06-2019 11:00:00 22.35833 C 71.0833 % 16.86 C
Sensor: Nr:Datum:Temp:Feuchte:Taupunkt:
Aussen-T/F 2651 04-06-2019 12:00:00 23.89167 C 68.1667 % 17.66 C
2652 04-06-2019 13:00:00 25.74167 C 60.4167 % 17.5 C
2653 04-06-2019 14:00:00 27.4 C 54.5833 % 17.44 C
2654 04-06-2019 15:00:00 28.7 C 52.2500 % 17.95 C
2655 04-06-2019 16:00:00 30.56667 C 49.5833 % 18.82 C
2656 04-06-2019 17:00:00 31.925 C 44.4167 % 18.3 C
2657 04-06-2019 18:00:00 31.24167 C 47.4167 % 18.72 C
2658 04-06-2019 19:00:00 29.25 C 54.9167 % 19.25 C
2659 04-06-2019 20:00:00 26.51667 C 62.5833 % 18.79 C
2660 04-06-2019 21:00:00 23.36667 C 67.6667 % 17.05 C
2661 04-06-2019 22:00:00 22.025 C 70.6667 % 16.45 C
2662 04-06-2019 23:00:00 22.70833 C 64.8333 % 15.75 C
2663 05-06-2019 00:00:00 23.28333 C 63.0000 % 15.85 C
2664 05-06-2019 01:00:00 21.33333 C 69.9167 % 15.62 C
2665 05-06-2019 02:00:00 20.575 C 74.1667 % 15.81 C
2666 05-06-2019 03:00:00 19.35 C 77.8333 % 15.38 C
2667 05-06-2019 04:00:00 18.80833 C 80.2500 % 15.33 C
2668 05-06-2019 05:00:00 17.44167 C 83.8333 % 14.68 C
2669 05-06-2019 06:00:00 17.69167 C 85.2500 % 15.18 C
2670 05-06-2019 07:00:00 17.98333 C 86.5833 % 15.71 C
2671 05-06-2019 08:00:00 18.38333 C 88.0000 % 16.36 C
2672 05-06-2019 09:00:00 21.025 C 76.4167 % 16.72 C
2673 05-06-2019 10:00:00 22.73333 C 70.5833 % 17.11 C
2674 05-06-2019 11:00:00 23.64167 C 66.3333 % 17 C
2675 05-06-2019 12:00:00 24.34167 C 63.2500 % 16.91 C
Sensor: Nr:Datum:Temp:Feuchte:Taupunkt:
Aussen-T/F 2676 05-06-2019 13:00:00 25.925 C 60.1667 % 17.61 C
2677 05-06-2019 14:00:00 27.25833 C 56.0833 % 17.74 C
2678 05-06-2019 15:00:00 29.5 C 49.5833 % 17.85 C
2679 05-06-2019 16:00:00 31.35 C 41.7500 % 16.8 C
2680 05-06-2019 17:00:00 30.43333 C 46.7500 % 17.76 C
2681 05-06-2019 18:00:00 28.60833 C 56.1667 % 19.01 C
2682 05-06-2019 19:00:00 29.73333 C 54.6667 % 19.62 C
2683 05-06-2019 20:00:00 27.55833 C 56.5833 % 18.16 C
2684 05-06-2019 21:00:00 23.44167 C 68.3333 % 17.27 C
2685 05-06-2019 22:00:00 21.625 C 75.6667 % 17.14 C
2686 05-06-2019 23:00:00 20.83333 C 77.2500 % 16.7 C
2687 06-06-2019 00:00:00 21.575 C 69.2500 % 15.7 C
2688 06-06-2019 01:00:00 18.925 C 81.5833 % 15.71 C
2689 06-06-2019 02:00:00 17.10833 C 91.9167 % 15.78 C
2690 06-06-2019 03:00:00 16.70833 C 93.6667 % 15.68 C
2691 06-06-2019 04:00:00 16.48333 C 94.5833 % 15.61 C
2692 06-06-2019 05:00:00 15.51667 C 93.6667 % 14.5 C
2693 06-06-2019 06:00:00 13.94167 C 92.3333 % 12.72 C
2694 06-06-2019 07:00:00 13.19167 C 89.6667 % 11.53 C
2695 06-06-2019 08:00:00 13.325 C 84.5833 % 10.78 C
2696 06-06-2019 09:00:00 13.10833 C 81.1667 % 9.96 C
2697 06-06-2019 10:00:00 13.80833 C 80.0000 % 10.42 C
2698 06-06-2019 11:00:00 14.93333 C 75.5000 % 10.64 C
2699 06-06-2019 12:00:00 15.40833 C 73.2500 % 10.65 C
2700 06-06-2019 13:00:00 16.49167 C 69.3333 % 10.86 C
Sensor: Nr:Datum:Temp:Feuchte:Taupunkt:
Aussen-T/F 2701 06-06-2019 14:00:00 17.025 C 68.1667 % 11.12 C
2702 06-06-2019 15:00:00 17.75833 C 66.4167 % 11.42 C
2703 06-06-2019 16:00:00 18 C 65.5000 % 11.44 C
2704 06-06-2019 17:00:00 16.73333 C 69.1667 % 11.06 C
2705 06-06-2019 18:00:00 16.975 C 69.9167 % 11.45 C
2706 06-06-2019 19:00:00 18.26667 C 63.5833 % 11.25 C
2707 06-06-2019 20:00:00 17.725 C 65.3333 % 11.14 C
2708 06-06-2019 21:00:00 15.43333 C 75.4167 % 11.11 C
2709 06-06-2019 22:00:00 12.75 C 83.8333 % 10.09 C
2710 06-06-2019 23:00:00 11.43333 C 87.5000 % 9.43 C
2711 07-06-2019 00:00:00 10.475 C 90.4167 % 8.97 C
2712 07-06-2019 01:00:00 9.875 C 92.1667 % 8.66 C
2713 07-06-2019 02:00:00 9.425 C 93.0833 % 8.36 C
2714 07-06-2019 03:00:00 9.56667 C 94.5000 % 8.73 C
2715 07-06-2019 04:00:00 10.13333 C 94.6667 % 9.32 C
2716 07-06-2019 05:00:00 9.23333 C 94.3333 % 8.37 C
2717 07-06-2019 06:00:00 9.60833 C 95.7500 % 8.96 C
2718 07-06-2019 07:00:00 10.38333 C 96.0000 % 9.77 C
2719 07-06-2019 08:00:00 11.86667 C 92.5833 % 10.7 C
2720 07-06-2019 09:00:00 13.75833 C 84.1667 % 11.13 C
2721 07-06-2019 10:00:00 16.65 C 75.8333 % 12.37 C
2722 07-06-2019 11:00:00 18.75833 C 65.5000 % 12.16 C
2723 07-06-2019 12:00:00 19.9 C 63.4167 % 12.75 C
2724 07-06-2019 13:00:00 20.89167 C 64.3333 % 13.91 C
2725 07-06-2019 14:00:00 21.09167 C 68.1667 % 15 C
Sensor: Nr:Datum:Temp:Feuchte:Taupunkt:
Aussen-T/F 2726 07-06-2019 15:00:00 24.175 C 57.1667 % 15.17 C
2727 07-06-2019 16:00:00 25.96667 C 50.5833 % 14.92 C
2728 07-06-2019 17:00:00 25.36667 C 57.9167 % 16.48 C
2729 07-06-2019 18:00:00 21.74167 C 58.5833 % 13.27 C
2730 07-06-2019 19:00:00 17.18333 C 62.6667 % 10.01 C
2731 07-06-2019 20:00:00 15.41667 C 71.6667 % 10.33 C
2732 07-06-2019 21:00:00 14.95 C 72.9167 % 10.14 C
2733 07-06-2019 22:00:00 14.8 C 69.8333 % 9.35 C
2734 07-06-2019 23:00:00 15.125 C 66.5000 % 8.94 C
2735 08-06-2019 00:00:00 15.46667 C 66.4167 % 9.24 C
2736 08-06-2019 01:00:00 15.61667 C 65.2500 % 9.12 C
2737 08-06-2019 02:00:00 15.34167 C 67.0833 % 9.27 C
2738 08-06-2019 03:00:00 15.06667 C 67.0000 % 8.99 C
2739 08-06-2019 04:00:00 14.86667 C 64.0000 % 8.13 C
2740 08-06-2019 05:00:00 14.10833 C 63.3333 % 7.26 C
2741 08-06-2019 06:00:00 13.325 C 66.7500 % 7.28 C
2742 08-06-2019 07:00:00 13.69167 C 65.5000 % 7.35 C
2743 08-06-2019 08:00:00 14.29167 C 65.3333 % 7.88 C
2744 08-06-2019 09:00:00 14.575 C 66.0833 % 8.32 C
2745 08-06-2019 10:00:00 14.90833 C 66.5833 % 8.75 C
2746 08-06-2019 11:00:00 15.70833 C 64.1667 % 8.96 C
2747 08-06-2019 12:00:00 16.525 C 61.5000 % 9.11 C
2748 08-06-2019 13:00:00 17.38333 C 57.6667 % 8.96 C
2749 08-06-2019 14:00:00 18.325 C 55.7500 % 9.34 C
2750 08-06-2019 15:00:00 19.15 C 52.5000 % 9.21 C
Sensor: Nr:Datum:Temp:Feuchte:Taupunkt:
Aussen-T/F 2751 08-06-2019 16:00:00 19.65833 C 50.8333 % 9.2 C
2752 08-06-2019 17:00:00 19.925 C 49.5000 % 9.05 C
2753 08-06-2019 18:00:00 19.95833 C 49.4167 % 9.06 C
2754 08-06-2019 19:00:00 18.98333 C 54.5000 % 9.61 C
2755 08-06-2019 20:00:00 17.61667 C 62.2500 % 10.32 C
2756 08-06-2019 21:00:00 16.11667 C 70.0000 % 10.65 C
2757 08-06-2019 22:00:00 14.39167 C 74.5833 % 9.94 C
2758 08-06-2019 23:00:00 12.65833 C 80.5833 % 9.41 C
2759 09-06-2019 00:00:00 11.66667 C 84.6667 % 9.17 C
2760 09-06-2019 01:00:00 11.08333 C 86.9167 % 8.99 C
2761 09-06-2019 02:00:00 10.925 C 87.3333 % 8.91 C
2762 09-06-2019 03:00:00 10.28333 C 89.0833 % 8.57 C
2763 09-06-2019 04:00:00 9.4 C 90.3333 % 7.9 C
2764 09-06-2019 05:00:00 8.675 C 92.3333 % 7.5 C
2765 09-06-2019 06:00:00 8.63333 C 93.4167 % 7.63 C
2766 09-06-2019 07:00:00 9.68333 C 94.4167 % 8.83 C
2767 09-06-2019 08:00:00 11.03333 C 94.2500 % 10.15 C
2768 09-06-2019 09:00:00 12.80833 C 90.8333 % 11.35 C
2769 09-06-2019 10:00:00 16.55 C 73.0000 % 11.7 C
2770 09-06-2019 11:00:00 18.86667 C 57.5833 % 10.32 C
2771 09-06-2019 12:00:00 19.76667 C 53.6667 % 10.11 C
2772 09-06-2019 13:00:00 20.71667 C 51.6667 % 10.42 C
2773 09-06-2019 14:00:00 21.925 C 50.5000 % 11.19 C
2774 09-06-2019 15:00:00 22.45833 C 50.3333 % 11.63 C
2775 09-06-2019 16:00:00 22.79167 C 50.6667 % 12.03 C
Sensor: Nr:Datum:Temp:Feuchte:Taupunkt:
Aussen-T/F 2776 09-06-2019 17:00:00 22.7 C 51.5833 % 12.22 C
2777 09-06-2019 18:00:00 23.09167 C 50.4167 % 12.23 C
2778 09-06-2019 19:00:00 21.64167 C 63.5000 % 14.42 C
2779 09-06-2019 20:00:00 19.74167 C 69.0833 % 13.91 C
2780 09-06-2019 21:00:00 18.86667 C 72.1667 % 13.75 C
2781 09-06-2019 22:00:00 18.36667 C 74.5833 % 13.77 C
2782 09-06-2019 23:00:00 17.95 C 76.1667 % 13.69 C
2783 10-06-2019 00:00:00 17.525 C 77.8333 % 13.62 C
2784 10-06-2019 01:00:00 16.95833 C 77.6667 % 13.03 C
2785 10-06-2019 02:00:00 16.08333 C 79.7500 % 12.59 C
2786 10-06-2019 03:00:00 14.94167 C 84.7500 % 12.4 C
2787 10-06-2019 04:00:00 14.625 C 86.5000 % 12.4 C
2788 10-06-2019 05:00:00 14.775 C 87.5000 % 12.72 C
2789 10-06-2019 06:00:00 14.825 C 88.5000 % 12.94 C
2790 10-06-2019 07:00:00 15.5 C 87.4167 % 13.42 C
2791 10-06-2019 08:00:00 17.725 C 80.2500 % 14.28 C
2792 10-06-2019 09:00:00 18.94167 C 75.8333 % 14.58 C
2793 10-06-2019 10:00:00 19.85 C 73.1667 % 14.91 C
2794 10-06-2019 11:00:00 21.15833 C 68.5000 % 15.13 C
2795 10-06-2019 12:00:00 22.34167 C 63.6667 % 15.12 C
2796 10-06-2019 13:00:00 23.06667 C 61.5833 % 15.29 C
2797 10-06-2019 14:00:00 23.225 C 62.5833 % 15.69 C
2798 10-06-2019 15:00:00 23.225 C 62.9167 % 15.77 C
2799 10-06-2019 16:00:00 24.06667 C 59.8333 % 15.78 C
2800 10-06-2019 17:00:00 23.65 C 60.7500 % 15.62 C
Sensor: Nr:Datum:Temp:Feuchte:Taupunkt:
Aussen-T/F 2801 10-06-2019 18:00:00 23.19167 C 61.9167 % 15.49 C
2802 10-06-2019 19:00:00 21.7 C 64.6667 % 14.76 C
2803 10-06-2019 20:00:00 20.61667 C 69.9167 % 14.94 C
2804 10-06-2019 21:00:00 19.38333 C 74.6667 % 14.77 C
2805 10-06-2019 22:00:00 17.975 C 79.5000 % 14.38 C
2806 10-06-2019 23:00:00 17.09167 C 82.5000 % 14.09 C
2807 11-06-2019 00:00:00 16.55833 C 85.5000 % 14.12 C
2808 11-06-2019 01:00:00 16.38333 C 86.8333 % 14.19 C
2809 11-06-2019 02:00:00 16.15833 C 86.2500 % 13.86 C
2810 11-06-2019 03:00:00 15.29167 C 90.6667 % 13.78 C
2811 11-06-2019 04:00:00 14.6 C 93.0833 % 13.5 C
2812 11-06-2019 05:00:00 14.21667 C 94.0000 % 13.27 C
2813 11-06-2019 06:00:00 14.15833 C 94.8333 % 13.34 C
2814 11-06-2019 07:00:00 14.5 C 95.3333 % 13.76 C
2815 11-06-2019 08:00:00 15.01667 C 95.5833 % 14.32 C
2816 11-06-2019 09:00:00 15.34167 C 93.8333 % 14.35 C
2817 11-06-2019 10:00:00 16.16667 C 90.7500 % 14.65 C
2818 11-06-2019 11:00:00 16.925 C 85.2500 % 14.43 C
2819 11-06-2019 12:00:00 17.81667 C 78.5833 % 14.05 C
2820 11-06-2019 13:00:00 19.09167 C 71.9167 % 13.91 C
2821 11-06-2019 14:00:00 20.24167 C 66.0833 % 13.71 C
2822 11-06-2019 15:00:00 21.31667 C 61.8333 % 13.7 C
2823 11-06-2019 16:00:00 20.94167 C 66.5000 % 14.47 C
2824 11-06-2019 17:00:00 19.28333 C 79.3333 % 15.62 C
2825 11-06-2019 18:00:00 18.75833 C 82.1667 % 15.65 C
Sensor: Nr:Datum:Temp:Feuchte:Taupunkt:
Aussen-T/F 2826 11-06-2019 19:00:00 20.35 C 71.0000 % 14.92 C
2827 11-06-2019 20:00:00 19.19167 C 79.8333 % 15.63 C
2828 11-06-2019 21:00:00 17.76667 C 83.1667 % 14.87 C
2829 11-06-2019 22:00:00 16.79167 C 84.7500 % 14.21 C
2830 11-06-2019 23:00:00 15.70833 C 86.5000 % 13.46 C
2831 12-06-2019 00:00:00 15.16667 C 87.0000 % 13.02 C
2832 12-06-2019 01:00:00 14.39167 C 88.8333 % 12.57 C
2833 12-06-2019 02:00:00 14.59167 C 90.0000 % 12.97 C
2834 12-06-2019 03:00:00 14.525 C 90.7500 % 13.03 C
2835 12-06-2019 04:00:00 14.39167 C 91.0000 % 12.94 C
2836 12-06-2019 05:00:00 14.125 C 91.7500 % 12.8 C
2837 12-06-2019 06:00:00 13.95833 C 92.4167 % 12.75 C
2838 12-06-2019 07:00:00 14.875 C 91.3333 % 13.48 C
2839 12-06-2019 08:00:00 15.81667 C 88.6667 % 13.95 C
2840 12-06-2019 09:00:00 16.53333 C 85.8333 % 14.15 C
2841 12-06-2019 10:00:00 15.15 C 91.9167 % 13.85 C
2842 12-06-2019 11:00:00 13.975 C 93.4167 % 12.93 C
2843 12-06-2019 12:00:00 14.40833 C 95.0000 % 13.62 C
2844 12-06-2019 13:00:00 15.325 C 93.0000 % 14.2 C
2845 12-06-2019 14:00:00 17.175 C 83.9167 % 14.43 C
2846 12-06-2019 15:00:00 18.2 C 77.9167 % 14.29 C
2847 12-06-2019 16:00:00 20.125 C 66.5833 % 13.71 C
2848 12-06-2019 17:00:00 21.81667 C 59.0000 % 13.45 C
2849 12-06-2019 18:00:00 22.64167 C 53.9167 % 12.84 C
2850 12-06-2019 19:00:00 21.925 C 53.0833 % 11.94 C
Sensor: Nr:Datum:Temp:Feuchte:Taupunkt:
Aussen-T/F 2851 12-06-2019 20:00:00 21.23333 C 62.8333 % 13.87 C
2852 12-06-2019 21:00:00 17.83333 C 74.5000 % 13.24 C
2853 12-06-2019 22:00:00 14.38333 C 84.7500 % 11.85 C
2854 12-06-2019 23:00:00 13.15833 C 88.2500 % 11.26 C
2855 13-06-2019 00:00:00 12.55833 C 89.5833 % 10.89 C
2856 13-06-2019 01:00:00 11.68333 C 90.7500 % 10.22 C
2857 13-06-2019 02:00:00 10.9 C 92.4167 % 9.72 C
2858 13-06-2019 03:00:00 10.29167 C 93.5833 % 9.3 C
2859 13-06-2019 04:00:00 9.775 C 94.0000 % 8.86 C
2860 13-06-2019 05:00:00 9.45833 C 94.9167 % 8.69 C
2861 13-06-2019 06:00:00 9.50833 C 95.3333 % 8.8 C
2862 13-06-2019 07:00:00 10.31667 C 96.0000 % 9.71 C
2863 13-06-2019 08:00:00 11.75 C 95.6667 % 11.08 C
2864 13-06-2019 09:00:00 15.15833 C 79.0833 % 11.56 C
2865 13-06-2019 10:00:00 17.91667 C 65.0833 % 11.27 C
2866 13-06-2019 11:00:00 19.15 C 60.8333 % 11.41 C
2867 13-06-2019 12:00:00 19.41667 C 57.0000 % 10.68 C
2868 13-06-2019 13:00:00 20.875 C 53.3333 % 11.04 C
2869 13-06-2019 14:00:00 21.26667 C 51.1667 % 10.78 C
2870 13-06-2019 15:00:00 22.13333 C 48.6667 % 10.82 C
2871 13-06-2019 16:00:00 23.85833 C 42.2500 % 10.27 C
2872 13-06-2019 17:00:00 24.41667 C 41.5833 % 10.53 C
2873 13-06-2019 18:00:00 24.325 C 43.0833 % 10.98 C
2874 13-06-2019 19:00:00 20.40833 C 65.3333 % 13.69 C
2875 13-06-2019 20:00:00 15.975 C 89.5000 % 14.25 C
Sensor: Nr:Datum:Temp:Feuchte:Taupunkt:
Aussen-T/F 2876 13-06-2019 21:00:00 15.11667 C 89.0000 % 13.32 C
2877 13-06-2019 22:00:00 13.21667 C 91.6667 % 11.89 C
2878 13-06-2019 23:00:00 12.78333 C 93.8333 % 11.82 C
2879 14-06-2019 00:00:00 12.06667 C 94.1667 % 11.16 C
2880 14-06-2019 01:00:00 11.73333 C 95.1667 % 10.99 C
2881 14-06-2019 02:00:00 12.16667 C 96.0000 % 11.55 C
2882 14-06-2019 03:00:00 12.00833 C 96.0000 % 11.39 C
2883 14-06-2019 04:00:00 11.59167 C 96.0000 % 10.98 C
2884 14-06-2019 05:00:00 11.41667 C 96.4167 % 10.87 C
2885 14-06-2019 06:00:00 11.33333 C 96.7500 % 10.84 C
2886 14-06-2019 07:00:00 11.43333 C 97.0000 % 10.97 C
2887 14-06-2019 08:00:00 12.15 C 97.0000 % 11.69 C
2888 14-06-2019 09:00:00 14.29167 C 97.8333 % 13.95 C
2889 14-06-2019 10:00:00 17.16667 C 98.0000 % 16.85 C
2890 14-06-2019 11:00:00 18.61667 C 96.0000 % 17.97 C
2891 14-06-2019 12:00:00 21.65833 C 71.3333 % 16.25 C
2892 14-06-2019 13:00:00 24.26667 C 57.5833 % 15.37 C
2893 14-06-2019 14:00:00 26 C 50.2500 % 14.85 C
2894 14-06-2019 15:00:00 26.35 C 50.6667 % 15.3 C
2895 14-06-2019 16:00:00 25.95 C 57.5000 % 16.91 C
2896 14-06-2019 17:00:00 25.23333 C 65.7500 % 18.37 C
2897 14-06-2019 18:00:00 24.49167 C 68.7500 % 18.37 C
2898 14-06-2019 19:00:00 22.55 C 74.2500 % 17.74 C
2899 14-06-2019 20:00:00 20.29167 C 78.3333 % 16.4 C
2900 14-06-2019 21:00:00 19.08333 C 83.5000 % 16.22 C
Sensor: Nr:Datum:Temp:Feuchte:Taupunkt:
Aussen-T/F 2901 14-06-2019 22:00:00 18.79167 C 83.7500 % 15.98 C
2902 14-06-2019 23:00:00 18.6 C 86.5000 % 16.3 C
2903 15-06-2019 00:00:00 17.59167 C 91.5833 % 16.21 C
2904 15-06-2019 01:00:00 16.49167 C 93.1667 % 15.38 C
2905 15-06-2019 02:00:00 15.68333 C 94.1667 % 14.75 C
2906 15-06-2019 03:00:00 15.16667 C 95.0833 % 14.38 C
2907 15-06-2019 04:00:00 15.14167 C 95.6667 % 14.45 C
2908 15-06-2019 05:00:00 15.01667 C 96.0833 % 14.4 C
2909 15-06-2019 06:00:00 15.54167 C 96.4167 % 14.97 C
2910 15-06-2019 07:00:00 16.175 C 97.0000 % 15.7 C
2911 15-06-2019 08:00:00 16.94167 C 96.4167 % 16.37 C
2912 15-06-2019 09:00:00 18.45833 C 89.9167 % 16.77 C
2913 15-06-2019 10:00:00 19.93333 C 81.8333 % 16.74 C
2914 15-06-2019 11:00:00 20.8 C 72.4167 % 15.66 C
2915 15-06-2019 12:00:00 21.60833 C 69.5833 % 15.81 C
2916 15-06-2019 13:00:00 21.28333 C 73.9167 % 16.44 C
2917 15-06-2019 14:00:00 21.65833 C 73.5000 % 16.72 C
2918 15-06-2019 15:00:00 22.11667 C 69.6667 % 16.31 C
2919 15-06-2019 16:00:00 23.775 C 63.6667 % 16.48 C
2920 15-06-2019 17:00:00 25.35833 C 54.7500 % 15.59 C
2921 15-06-2019 18:00:00 26.24167 C 48.8333 % 14.63 C
2922 15-06-2019 19:00:00 25.35833 C 54.0833 % 15.4 C
2923 15-06-2019 20:00:00 23.43333 C 65.5000 % 16.6 C
2924 15-06-2019 21:00:00 21.01667 C 71.0833 % 15.58 C
2925 15-06-2019 22:00:00 18.48333 C 78.6667 % 14.71 C
Sensor: Nr:Datum:Temp:Feuchte:Taupunkt:
Aussen-T/F 2926 15-06-2019 23:00:00 17.625 C 81.7500 % 14.47 C
2927 16-06-2019 00:00:00 17.3 C 83.2500 % 14.43 C
2928 16-06-2019 01:00:00 17.4 C 83.0833 % 14.5 C
2929 16-06-2019 02:00:00 17.19167 C 83.9167 % 14.45 C
2930 16-06-2019 03:00:00 16.9 C 84.5000 % 14.27 C
2931 16-06-2019 04:00:00 17.08333 C 82.4167 % 14.07 C
2932 16-06-2019 05:00:00 16.3 C 85.1667 % 13.81 C
2933 16-06-2019 06:00:00 15.46667 C 89.4167 % 13.73 C
2934 16-06-2019 07:00:00 15.55 C 91.3333 % 14.14 C
2935 16-06-2019 08:00:00 16.04167 C 89.7500 % 14.36 C
2936 16-06-2019 09:00:00 17.04167 C 81.2500 % 13.81 C
2937 16-06-2019 10:00:00 19.3 C 69.7500 % 13.64 C
2938 16-06-2019 11:00:00 20.84167 C 60.6667 % 12.96 C
2939 16-06-2019 12:00:00 21.34167 C 59.1667 % 13.05 C
2940 16-06-2019 13:00:00 22.35 C 54.7500 % 12.8 C
2941 16-06-2019 14:00:00 22.56667 C 55.9167 % 13.33 C
2942 16-06-2019 15:00:00 23.03333 C 54.9167 % 13.48 C
2943 16-06-2019 16:00:00 23.225 C 55.0833 % 13.71 C
2944 16-06-2019 17:00:00 22.275 C 58.5833 % 13.77 C
2945 16-06-2019 18:00:00 24.04167 C 51.7500 % 13.51 C
2946 16-06-2019 19:00:00 23.55 C 54.6667 % 13.89 C
2947 16-06-2019 20:00:00 22.61667 C 57.8333 % 13.89 C
2948 16-06-2019 21:00:00 20.29167 C 67.7500 % 14.14 C
2949 16-06-2019 22:00:00 17.21667 C 76.5833 % 13.07 C
2950 16-06-2019 23:00:00 15.35 C 82.7500 % 12.43 C
Sensor: Nr:Datum:Temp:Feuchte:Taupunkt:
Aussen-T/F 2951 17-06-2019 00:00:00 14.14167 C 85.6667 % 11.78 C
2952 17-06-2019 01:00:00 13.31667 C 88.2500 % 11.42 C
2953 17-06-2019 02:00:00 12.625 C 90.4167 % 11.1 C
2954 17-06-2019 03:00:00 11.95833 C 91.8333 % 10.67 C
2955 17-06-2019 04:00:00 11.43333 C 93.0000 % 10.34 C
2956 17-06-2019 05:00:00 11.075 C 93.9167 % 10.13 C
2957 17-06-2019 06:00:00 11.08333 C 95.0000 % 10.31 C
2958 17-06-2019 07:00:00 11.575 C 95.2500 % 10.84 C
2959 17-06-2019 08:00:00 12.66667 C 96.0000 % 12.05 C
2960 17-06-2019 09:00:00 14.46667 C 94.8333 % 13.65 C
2961 17-06-2019 10:00:00 18.59167 C 82.0833 % 15.48 C
2962 17-06-2019 11:00:00 22.31667 C 63.0000 % 14.93 C
2963 17-06-2019 12:00:00 23.475 C 58.1667 % 14.78 C
2964 17-06-2019 13:00:00 24.45833 C 54.7500 % 14.76 C
2965 17-06-2019 14:00:00 25.15833 C 50.7500 % 14.23 C
2966 17-06-2019 15:00:00 25.26667 C 50.6667 % 14.31 C
2967 17-06-2019 16:00:00 26.71667 C 49.6667 % 15.33 C
2968 17-06-2019 17:00:00 28.43333 C 42.1667 % 14.34 C
2969 17-06-2019 18:00:00 27.90833 C 46.3333 % 15.33 C
2970 17-06-2019 19:00:00 27.64167 C 47.5833 % 15.5 C
2971 17-06-2019 20:00:00 23.58333 C 61.1667 % 15.67 C
2972 17-06-2019 21:00:00 20.78333 C 68.0833 % 14.68 C
2973 17-06-2019 22:00:00 18.73333 C 75.2500 % 14.26 C
2974 17-06-2019 23:00:00 17.06667 C 80.8333 % 13.75 C
2975 18-06-2019 00:00:00 15.86667 C 84.5000 % 13.26 C
Sensor: Nr:Datum:Temp:Feuchte:Taupunkt:
Aussen-T/F 2976 18-06-2019 01:00:00 15.09167 C 87.2500 % 12.99 C
2977 18-06-2019 02:00:00 14.43333 C 89.1667 % 12.67 C
2978 18-06-2019 03:00:00 13.8 C 91.3333 % 12.41 C
2979 18-06-2019 04:00:00 13.8 C 92.2500 % 12.56 C
2980 18-06-2019 05:00:00 13.625 C 92.4167 % 12.42 C
2981 18-06-2019 06:00:00 13.65 C 93.7500 % 12.66 C
2982 18-06-2019 07:00:00 14.75 C 92.1667 % 13.49 C
2983 18-06-2019 08:00:00 16.01667 C 90.0000 % 14.38 C
2984 18-06-2019 09:00:00 17.65 C 88.2500 % 15.68 C
2985 18-06-2019 10:00:00 20.80833 C 82.3333 % 17.69 C
2986 18-06-2019 11:00:00 24.26667 C 67.8333 % 17.94 C
2987 18-06-2019 12:00:00 26.78333 C 53.9167 % 16.67 C
2988 18-06-2019 13:00:00 28.125 C 47.0000 % 15.75 C
2989 18-06-2019 14:00:00 28.825 C 45.3333 % 15.82 C
2990 18-06-2019 15:00:00 29.825 C 43.5000 % 16.08 C
2991 18-06-2019 16:00:00 29.575 C 46.0833 % 16.76 C
2992 18-06-2019 17:00:00 29.48333 C 56.4167 % 19.9 C
2993 18-06-2019 18:00:00 29.725 C 55.1667 % 19.76 C
2994 18-06-2019 19:00:00 27.95 C 60.5833 % 19.62 C
2995 18-06-2019 20:00:00 26.03333 C 63.7500 % 18.63 C
2996 18-06-2019 21:00:00 23.73333 C 68.0833 % 17.49 C
2997 18-06-2019 22:00:00 21.45 C 74.5833 % 16.75 C
2998 18-06-2019 23:00:00 19.83333 C 79.5833 % 16.2 C
2999 19-06-2019 00:00:00 18.48333 C 83.5833 % 15.65 C
3000 19-06-2019 01:00:00 17.61667 C 86.5833 % 15.35 C
Sensor: Nr:Datum:Temp:Feuchte:Taupunkt:
Aussen-T/F 3001 19-06-2019 02:00:00 17.39167 C 88.3333 % 15.44 C
3002 19-06-2019 03:00:00 16.53333 C 89.8333 % 14.86 C
3003 19-06-2019 04:00:00 15.775 C 91.0000 % 14.31 C
3004 19-06-2019 05:00:00 15.19167 C 92.8333 % 14.04 C
3005 19-06-2019 06:00:00 14.99167 C 93.6667 % 13.98 C
3006 19-06-2019 07:00:00 15.425 C 94.8333 % 14.6 C
3007 19-06-2019 08:00:00 16.54167 C 95.0000 % 15.74 C
3008 19-06-2019 09:00:00 18.46667 C 93.8333 % 17.45 C
3009 19-06-2019 10:00:00 23.44167 C 73.4167 % 18.41 C
3010 19-06-2019 11:00:00 26.775 C 54.0833 % 16.71 C
3011 19-06-2019 12:00:00 26.475 C 59.5833 % 17.97 C
3012 19-06-2019 13:00:00 26 C 63.0000 % 18.41 C
3013 19-06-2019 14:00:00 27.00833 C 53.5000 % 16.76 C
3014 19-06-2019 15:00:00 27.25 C 56.8333 % 17.94 C
3015 19-06-2019 16:00:00 29.925 C 48.6667 % 17.94 C
3016 19-06-2019 17:00:00 31.25833 C 41.2500 % 16.53 C
3017 19-06-2019 18:00:00 28.4 C 56.5833 % 18.94 C
3018 19-06-2019 19:00:00 28.94167 C 53.0833 % 18.42 C
3019 19-06-2019 20:00:00 25.31667 C 65.3333 % 18.34 C
3020 19-06-2019 21:00:00 23.275 C 70.8333 % 17.68 C
3021 19-06-2019 22:00:00 21.68333 C 74.0000 % 16.85 C
3022 19-06-2019 23:00:00 19.925 C 79.8333 % 16.34 C
3023 20-06-2019 00:00:00 18.75 C 83.3333 % 15.87 C
3024 20-06-2019 01:00:00 17.98333 C 86.2500 % 15.65 C
3025 20-06-2019 02:00:00 17.45833 C 88.7500 % 15.58 C
Sensor: Nr:Datum:Temp:Feuchte:Taupunkt:
Aussen-T/F 3026 20-06-2019 03:00:00 17.7 C 89.5000 % 15.95 C
3027 20-06-2019 04:00:00 17.31667 C 89.5833 % 15.59 C
3028 20-06-2019 05:00:00 16.68333 C 91.3333 % 15.26 C
3029 20-06-2019 06:00:00 16.85833 C 92.3333 % 15.61 C
3030 20-06-2019 07:00:00 17.73333 C 89.2500 % 15.94 C
3031 20-06-2019 08:00:00 19.45 C 81.4167 % 16.18 C
3032 20-06-2019 09:00:00 20.2 C 75.9167 % 15.82 C
3033 20-06-2019 10:00:00 21.30833 C 70.7500 % 15.78 C
3034 20-06-2019 11:00:00 21.89167 C 69.9167 % 16.15 C
3035 20-06-2019 12:00:00 22.65 C 66.5000 % 16.09 C
3036 20-06-2019 13:00:00 23.24167 C 64.7500 % 16.24 C
3037 20-06-2019 14:00:00 24.61667 C 58.7500 % 16.01 C
3038 20-06-2019 15:00:00 21.45833 C 75.0833 % 16.86 C
3039 20-06-2019 16:00:00 22.75 C 71.9167 % 17.42 C
3040 20-06-2019 17:00:00 21.25833 C 76.5000 % 16.96 C
3041 20-06-2019 18:00:00 20 C 81.0833 % 16.66 C
3042 20-06-2019 19:00:00 18.75833 C 81.8333 % 15.59 C
3043 20-06-2019 20:00:00 18.66667 C 82.3333 % 15.6 C
3044 20-06-2019 21:00:00 18.21667 C 84.0833 % 15.48 C
3045 20-06-2019 22:00:00 16.9 C 87.0000 % 14.72 C
3046 20-06-2019 23:00:00 15.725 C 90.6667 % 14.2 C
3047 21-06-2019 00:00:00 15.5 C 93.5000 % 14.46 C
3048 21-06-2019 01:00:00 14.89167 C 93.0000 % 13.77 C
3049 21-06-2019 02:00:00 14.78333 C 94.3333 % 13.88 C
3050 21-06-2019 03:00:00 15.06667 C 94.2500 % 14.15 C
Sensor: Nr:Datum:Temp:Feuchte:Taupunkt:
Aussen-T/F 3051 21-06-2019 04:00:00 14.91667 C 94.1667 % 13.99 C
3052 21-06-2019 05:00:00 14.325 C 93.9167 % 13.36 C
3053 21-06-2019 06:00:00 14.175 C 93.4167 % 13.13 C
3054 21-06-2019 07:00:00 14.63333 C 92.6667 % 13.46 C
3055 21-06-2019 08:00:00 15.88333 C 79.4167 % 12.33 C
3056 21-06-2019 09:00:00 16.7 C 73.2500 % 11.89 C
3057 21-06-2019 10:00:00 18.28333 C 66.5000 % 11.94 C
3058 21-06-2019 11:00:00 19.45 C 61.0000 % 11.74 C
3059 21-06-2019 12:00:00 20.10833 C 58.2500 % 11.66 C
3060 21-06-2019 13:00:00 21.3 C 52.6667 % 11.24 C
3061 21-06-2019 14:00:00 22.03333 C 47.4167 % 10.34 C
3062 21-06-2019 15:00:00 22.6 C 46.2500 % 10.48 C
3063 21-06-2019 16:00:00 23.64167 C 43.2500 % 10.42 C
3064 21-06-2019 17:00:00 25.125 C 39.5000 % 10.39 C
3065 21-06-2019 18:00:00 24.95833 C 39.5000 % 10.24 C
3066 21-06-2019 19:00:00 23.63333 C 42.8333 % 10.27 C
3067 21-06-2019 20:00:00 22.15 C 47.1667 % 10.37 C
3068 21-06-2019 21:00:00 19.375 C 57.1667 % 10.69 C
3069 21-06-2019 22:00:00 16.6 C 66.4167 % 10.32 C
3070 21-06-2019 23:00:00 15.23333 C 72.5000 % 10.33 C
3071 22-06-2019 00:00:00 13.71667 C 79.0000 % 10.14 C
3072 22-06-2019 01:00:00 13.01667 C 82.2500 % 10.06 C
3073 22-06-2019 02:00:00 12.10833 C 85.6667 % 9.78 C
3074 22-06-2019 03:00:00 11.5 C 88.5000 % 9.67 C
3075 22-06-2019 04:00:00 11.05833 C 90.4167 % 9.55 C
Sensor: Nr:Datum:Temp:Feuchte:Taupunkt:
Aussen-T/F 3076 22-06-2019 05:00:00 10.675 C 91.7500 % 9.39 C
3077 22-06-2019 06:00:00 10.70833 C 93.0000 % 9.62 C
3078 22-06-2019 07:00:00 11.80833 C 94.3333 % 10.93 C
3079 22-06-2019 08:00:00 13.84167 C 90.5833 % 12.33 C
3080 22-06-2019 09:00:00 16.275 C 79.8333 % 12.79 C
3081 22-06-2019 10:00:00 19.475 C 67.1667 % 13.23 C
3082 22-06-2019 11:00:00 21.21667 C 62.1667 % 13.69 C
3083 22-06-2019 12:00:00 22.66667 C 59.5833 % 14.4 C
3084 22-06-2019 13:00:00 24.175 C 55.6667 % 14.75 C
3085 22-06-2019 14:00:00 25.025 C 53.9167 % 15.05 C
3086 22-06-2019 15:00:00 25.59167 C 49.9167 % 14.37 C
3087 22-06-2019 16:00:00 26.50833 C 47.1667 % 14.34 C
3088 22-06-2019 17:00:00 26.26667 C 48.6667 % 14.6 C
3089 22-06-2019 18:00:00 27.45 C 43.5000 % 13.94 C
3090 22-06-2019 19:00:00 27.53333 C 43.7500 % 14.1 C
3091 22-06-2019 20:00:00 26.95 C 48.1667 % 15.06 C
3092 22-06-2019 21:00:00 23.525 C 62.3333 % 15.91 C
3093 22-06-2019 22:00:00 20.3 C 73.0833 % 15.32 C
3094 22-06-2019 23:00:00 18.63333 C 79.3333 % 14.99 C
3095 23-06-2019 00:00:00 17.4 C 83.5000 % 14.58 C
3096 23-06-2019 01:00:00 16.33333 C 86.9167 % 14.15 C
3097 23-06-2019 02:00:00 15.64167 C 89.2500 % 13.88 C
3098 23-06-2019 03:00:00 14.98333 C 91.0000 % 13.53 C
3099 23-06-2019 04:00:00 14.53333 C 92.2500 % 13.29 C
3100 23-06-2019 05:00:00 14.075 C 93.3333 % 13.02 C
Sensor: Nr:Datum:Temp:Feuchte:Taupunkt:
Aussen-T/F 3101 23-06-2019 06:00:00 14.20833 C 94.1667 % 13.28 C
3102 23-06-2019 07:00:00 14.74167 C 94.9167 % 13.94 C
3103 23-06-2019 08:00:00 16.09167 C 94.5833 % 15.22 C
3104 23-06-2019 09:00:00 18.65833 C 86.5000 % 16.36 C
3105 23-06-2019 10:00:00 22.525 C 69.0000 % 16.55 C
3106 23-06-2019 11:00:00 24.14167 C 64.3333 % 16.99 C
3107 23-06-2019 12:00:00 25.21667 C 61.5000 % 17.29 C
3108 23-06-2019 13:00:00 26.58333 C 56.0000 % 17.09 C
3109 23-06-2019 14:00:00 27.84167 C 51.0833 % 16.8 C
3110 23-06-2019 15:00:00 28.575 C 48.2500 % 16.57 C
3111 23-06-2019 16:00:00 30.24167 C 43.1667 % 16.33 C
3112 23-06-2019 17:00:00 30.6 C 43.1667 % 16.65 C
3113 23-06-2019 18:00:00 30.3 C 44.1667 % 16.74 C
3114 23-06-2019 19:00:00 29.025 C 50.3333 % 17.65 C
3115 23-06-2019 20:00:00 25.85833 C 62.0000 % 18.02 C
3116 23-06-2019 21:00:00 23.39167 C 67.6667 % 17.07 C
3117 23-06-2019 22:00:00 21.70833 C 72.3333 % 16.51 C
3118 23-06-2019 23:00:00 20.25 C 77.8333 % 16.26 C
3119 24-06-2019 00:00:00 19.11667 C 82.1667 % 16 C
3120 24-06-2019 01:00:00 18.43333 C 84.3333 % 15.74 C
3121 24-06-2019 02:00:00 17.54167 C 87.0833 % 15.37 C
3122 24-06-2019 03:00:00 16.95833 C 89.0833 % 15.15 C
3123 24-06-2019 04:00:00 16.55 C 90.6667 % 15.02 C
3124 24-06-2019 05:00:00 16.40833 C 92.0833 % 15.12 C
3125 24-06-2019 06:00:00 16.70833 C 92.9167 % 15.56 C
Sensor: Nr:Datum:Temp:Feuchte:Taupunkt:
Aussen-T/F 3126 24-06-2019 07:00:00 17.45 C 92.9167 % 16.29 C
3127 24-06-2019 08:00:00 18.55 C 91.7500 % 17.18 C
3128 24-06-2019 09:00:00 21.25833 C 84.6667 % 18.57 C
3129 24-06-2019 10:00:00 25.475 C 67.0833 % 18.92 C
3130 24-06-2019 11:00:00 26.95833 C 59.6667 % 18.44 C
3131 24-06-2019 12:00:00 27.88333 C 55.5000 % 18.15 C
3132 24-06-2019 13:00:00 29.05833 C 52.0000 % 18.2 C
3133 24-06-2019 14:00:00 30.1 C 49.8333 % 18.48 C
3134 24-06-2019 15:00:00 31.38333 C 46.8333 % 18.65 C
3135 24-06-2019 16:00:00 32.73333 C 44.0000 % 18.87 C
3136 24-06-2019 17:00:00 32.96667 C 44.5833 % 19.3 C
3137 24-06-2019 18:00:00 33.1 C 44.0000 % 19.2 C
3138 24-06-2019 19:00:00 32.375 C 45.5000 % 19.09 C
3139 24-06-2019 20:00:00 30.64167 C 50.5000 % 19.18 C
3140 24-06-2019 21:00:00 26.81667 C 63.7500 % 19.37 C
3141 24-06-2019 22:00:00 23.99167 C 71.0000 % 18.41 C
3142 24-06-2019 23:00:00 22.68333 C 74.0000 % 17.81 C
3143 25-06-2019 00:00:00 21.4 C 77.5000 % 17.3 C
3144 25-06-2019 01:00:00 20.425 C 80.8333 % 17.02 C
3145 25-06-2019 02:00:00 19.35833 C 83.5833 % 16.51 C
3146 25-06-2019 03:00:00 18.46667 C 85.5833 % 16.01 C
3147 25-06-2019 04:00:00 17.825 C 88.0833 % 15.83 C
3148 25-06-2019 05:00:00 17.51667 C 89.4167 % 15.76 C
3149 25-06-2019 06:00:00 17.76667 C 90.8333 % 16.25 C
3150 25-06-2019 07:00:00 18.44167 C 90.6667 % 16.89 C
Sensor: Nr:Datum:Temp:Feuchte:Taupunkt:
Aussen-T/F 3151 25-06-2019 08:00:00 20.1 C 88.5000 % 18.14 C
3152 25-06-2019 09:00:00 22.56667 C 81.7500 % 19.29 C
3153 25-06-2019 10:00:00 26.46667 C 65.7500 % 19.54 C
3154 25-06-2019 11:00:00 28.05833 C 59.2500 % 19.36 C
3155 25-06-2019 12:00:00 29.51667 C 55.8333 % 19.76 C
3156 25-06-2019 13:00:00 31.1 C 52.0000 % 20.08 C
3157 25-06-2019 14:00:00 32.75833 C 46.9167 % 19.93 C
3158 25-06-2019 15:00:00 34.91667 C 41.7500 % 19.99 C
3159 25-06-2019 16:00:00 36.45833 C 38.0833 % 19.87 C
3160 25-06-2019 17:00:00 37.69167 C 32.9167 % 18.61 C
3161 25-06-2019 18:00:00 36.71667 C 36.7500 % 19.53 C
3162 25-06-2019 19:00:00 34.225 C 48.5000 % 21.8 C
3163 25-06-2019 20:00:00 31.78333 C 52.1667 % 20.76 C
3164 25-06-2019 21:00:00 28.025 C 58.9167 % 19.24 C
3165 25-06-2019 22:00:00 25.60833 C 64.0000 % 18.29 C
3166 25-06-2019 23:00:00 24.15833 C 65.9167 % 17.39 C
3167 26-06-2019 00:00:00 23.41667 C 69.5000 % 17.52 C
3168 26-06-2019 01:00:00 22.38333 C 74.1667 % 17.56 C
3169 26-06-2019 02:00:00 21.20833 C 79.0000 % 17.42 C
3170 26-06-2019 03:00:00 20.575 C 81.9167 % 17.38 C
3171 26-06-2019 04:00:00 19.825 C 84.4167 % 17.12 C
3172 26-06-2019 05:00:00 19.475 C 86.5000 % 17.16 C
3173 26-06-2019 06:00:00 19.575 C 87.8333 % 17.5 C
3174 26-06-2019 07:00:00 20.29167 C 88.1667 % 18.27 C
3175 26-06-2019 08:00:00 21.89167 C 87.8333 % 19.78 C
Sensor: Nr:Datum:Temp:Feuchte:Taupunkt:
Aussen-T/F 3176 26-06-2019 09:00:00 24.64167 C 83.0000 % 21.56 C
3177 26-06-2019 10:00:00 27.25 C 74.0833 % 22.22 C
3178 26-06-2019 11:00:00 28.95 C 68.1667 % 22.48 C
3179 26-06-2019 12:00:00 30.24167 C 62.8333 % 22.36 C
3180 26-06-2019 13:00:00 31.63333 C 53.0833 % 20.9 C
3181 26-06-2019 14:00:00 32.64167 C 50.5000 % 21.02 C
3182 26-06-2019 15:00:00 33.9 C 49.5833 % 21.87 C
3183 26-06-2019 16:00:00 34.76667 C 45.8333 % 21.37 C
3184 26-06-2019 17:00:00 34.76667 C 44.0000 % 20.7 C
3185 26-06-2019 18:00:00 34.36667 C 41.8333 % 19.53 C
3186 26-06-2019 19:00:00 33.36667 C 43.5833 % 19.29 C
3187 26-06-2019 20:00:00 30.94167 C 50.2500 % 19.38 C
3188 26-06-2019 21:00:00 28.8 C 56.5000 % 19.29 C
3189 26-06-2019 22:00:00 26.4 C 65.2500 % 19.35 C
3190 26-06-2019 23:00:00 26.03333 C 69.3333 % 19.98 C
3191 27-06-2019 00:00:00 25.24167 C 73.0000 % 20.05 C
3192 27-06-2019 01:00:00 24.11667 C 76.5000 % 19.72 C
3193 27-06-2019 02:00:00 23.25833 C 78.5000 % 19.31 C
3194 27-06-2019 03:00:00 22.41667 C 78.0000 % 18.39 C
3195 27-06-2019 04:00:00 21.66667 C 77.0000 % 17.46 C
3196 27-06-2019 05:00:00 20.54167 C 79.4167 % 16.86 C
3197 27-06-2019 06:00:00 20.01667 C 80.7500 % 16.61 C
3198 27-06-2019 07:00:00 20.03333 C 79.7500 % 16.43 C
3199 27-06-2019 08:00:00 20.6 C 77.5000 % 16.53 C
3200 27-06-2019 09:00:00 21.45833 C 74.0000 % 16.63 C
Sensor: Nr:Datum:Temp:Feuchte:Taupunkt:
Aussen-T/F 3201 27-06-2019 10:00:00 22.83333 C 68.0000 % 16.62 C
3202 27-06-2019 11:00:00 24.03333 C 62.0833 % 16.32 C
3203 27-06-2019 12:00:00 24.84167 C 58.9167 % 16.26 C
3204 27-06-2019 13:00:00 25.875 C 53.2500 % 15.64 C
3205 27-06-2019 14:00:00 26.98333 C 48.3333 % 15.15 C
3206 27-06-2019 15:00:00 28.6 C 41.0833 % 14.09 C
3207 27-06-2019 16:00:00 30.18333 C 32.4167 % 11.86 C
3208 27-06-2019 17:00:00 30.54167 C 28.0000 % 9.97 C
3209 27-06-2019 18:00:00 30.225 C 26.3333 % 8.79 C
3210 27-06-2019 19:00:00 29.59167 C 25.7500 % 7.92 C
3211 27-06-2019 20:00:00 27.43333 C 32.5000 % 9.51 C
3212 27-06-2019 21:00:00 24.48333 C 41.6667 % 10.62 C
3213 27-06-2019 22:00:00 21.28333 C 55.0000 % 11.88 C
3214 27-06-2019 23:00:00 19.9 C 60.8333 % 12.12 C
3215 28-06-2019 00:00:00 18.53333 C 66.0833 % 12.08 C
3216 28-06-2019 01:00:00 17.18333 C 71.6667 % 12.03 C
3217 28-06-2019 02:00:00 16.26667 C 76.5000 % 12.13 C
3218 28-06-2019 03:00:00 15.48333 C 80.2500 % 12.1 C
3219 28-06-2019 04:00:00 14.35 C 84.2500 % 11.73 C
3220 28-06-2019 05:00:00 13.51667 C 87.4167 % 11.47 C
3221 28-06-2019 06:00:00 13.35833 C 89.7500 % 11.71 C
3222 28-06-2019 07:00:00 13.86667 C 90.8333 % 12.4 C
3223 28-06-2019 08:00:00 15.39167 C 85.5000 % 12.97 C
3224 28-06-2019 09:00:00 17.7 C 74.9167 % 13.2 C
3225 28-06-2019 10:00:00 19.81667 C 67.4167 % 13.61 C
Sensor: Nr:Datum:Temp:Feuchte:Taupunkt:
Aussen-T/F 3226 28-06-2019 11:00:00 21.475 C 60.3333 % 13.47 C
3227 28-06-2019 12:00:00 22.84167 C 55.6667 % 13.51 C
3228 28-06-2019 13:00:00 24.66667 C 47.2500 % 12.69 C
3229 28-06-2019 14:00:00 26.31667 C 42.3333 % 12.5 C
3230 28-06-2019 15:00:00 28.225 C 38.5833 % 12.79 C
3231 28-06-2019 16:00:00 30.25 C 33.5833 % 12.46 C
3232 28-06-2019 17:00:00 31.13333 C 29.7500 % 11.38 C
3233 28-06-2019 18:00:00 31.66667 C 28.0000 % 10.93 C
3234 28-06-2019 19:00:00 31.2 C 30.0833 % 11.61 C
3235 28-06-2019 20:00:00 29.49167 C 36.8333 % 13.2 C
3236 28-06-2019 21:00:00 25.61667 C 48.1667 % 13.85 C
3237 28-06-2019 22:00:00 21.58333 C 54.6667 % 12.07 C
3238 28-06-2019 23:00:00 19.275 C 63.6667 % 12.22 C
3239 29-06-2019 00:00:00 18.40833 C 65.9167 % 11.93 C
3240 29-06-2019 01:00:00 17.83333 C 68.0833 % 11.87 C
3241 29-06-2019 02:00:00 17.09167 C 70.9167 % 11.78 C
3242 29-06-2019 03:00:00 16.39167 C 74.3333 % 11.82 C
3243 29-06-2019 04:00:00 15.175 C 78.5833 % 11.48 C
3244 29-06-2019 05:00:00 14.09167 C 82.7500 % 11.21 C
3245 29-06-2019 06:00:00 13.70833 C 85.5000 % 11.32 C
3246 29-06-2019 07:00:00 14.075 C 87.6667 % 12.06 C
3247 29-06-2019 08:00:00 15.26667 C 86.9167 % 13.1 C
3248 29-06-2019 09:00:00 19.2 C 71.5000 % 13.92 C
3249 29-06-2019 10:00:00 23.49167 C 55.0833 % 13.96 C
3250 29-06-2019 11:00:00 25.775 C 48.0000 % 13.94 C
Sensor: Nr:Datum:Temp:Feuchte:Taupunkt:
Aussen-T/F 3251 29-06-2019 12:00:00 27.41667 C 44.5833 % 14.29 C
3252 29-06-2019 13:00:00 29.11667 C 35.4167 % 12.28 C
3253 29-06-2019 14:00:00 30.58333 C 30.5000 % 11.29 C
3254 29-06-2019 15:00:00 32.63333 C 26.5000 % 10.92 C
3255 29-06-2019 16:00:00 34.24167 C 23.5000 % 10.47 C
3256 29-06-2019 17:00:00 35.325 C 22.2500 % 10.55 C
3257 29-06-2019 18:00:00 35.64167 C 22.5833 % 11.03 C
3258 29-06-2019 19:00:00 35.26667 C 23.4167 % 11.27 C
3259 29-06-2019 20:00:00 32.425 C 34.0833 % 14.58 C
3260 29-06-2019 21:00:00 27.60833 C 40.0833 % 12.83 C
3261 29-06-2019 22:00:00 24.225 C 45.4167 % 11.68 C
3262 29-06-2019 23:00:00 21.23333 C 57.4167 % 12.49 C
3263 30-06-2019 00:00:00 18.93333 C 65.8333 % 12.41 C
3264 30-06-2019 01:00:00 17.525 C 72.1667 % 12.46 C
3265 30-06-2019 02:00:00 16.75 C 75.5833 % 12.42 C
3266 30-06-2019 03:00:00 16.10833 C 78.7500 % 12.42 C
3267 30-06-2019 04:00:00 15.58333 C 81.3333 % 12.4 C
3268 30-06-2019 05:00:00 15.05 C 83.5833 % 12.29 C
3269 30-06-2019 06:00:00 14.85 C 86.5000 % 12.62 C
3270 30-06-2019 07:00:00 15.44167 C 87.8333 % 13.44 C
3271 30-06-2019 08:00:00 17.025 C 86.4167 % 14.74 C
3272 30-06-2019 09:00:00 19.65833 C 81.5833 % 16.42 C
3273 30-06-2019 10:00:00 25.225 C 64.7500 % 18.11 C
3274 30-06-2019 11:00:00 30.59167 C 45.2500 % 17.39 C
3275 30-06-2019 12:00:00 32.48333 C 40.0000 % 17.14 C
Sensor: Nr:Datum:Temp:Feuchte:Taupunkt:
Aussen-T/F 3276 30-06-2019 13:00:00 34.6 C 35.0000 % 16.89 C
3277 30-06-2019 14:00:00 36.00833 C 34.3333 % 17.82 C
3278 30-06-2019 15:00:00 35.5 C 40.7500 % 20.12 C
3279 30-06-2019 16:00:00 35.49167 C 45.0000 % 21.72 C
3280 30-06-2019 17:00:00 35.875 C 45.5833 % 22.28 C
3281 30-06-2019 18:00:00 34.975 C 46.3333 % 21.73 C
3282 30-06-2019 19:00:00 32.65833 C 50.6667 % 21.09 C
3283 30-06-2019 20:00:00 29.35 C 58.8333 % 20.45 C
3284 30-06-2019 21:00:00 27.18333 C 62.5000 % 19.4 C
3285 30-06-2019 22:00:00 26.25833 C 63.6667 % 18.82 C
3286 30-06-2019 23:00:00 24.55833 C 67.0000 % 18.02 C
3287 01-07-2019 00:00:00 22.68333 C 73.0833 % 17.61 C
3288 01-07-2019 01:00:00 22.36667 C 73.0833 % 17.31 C
3289 01-07-2019 02:00:00 21.63333 C 73.9167 % 16.78 C
3290 01-07-2019 03:00:00 20.98333 C 72.0833 % 15.76 C
3291 01-07-2019 04:00:00 20.34167 C 71.7500 % 15.07 C
3292 01-07-2019 05:00:00 19.65833 C 73.0833 % 14.7 C
3293 01-07-2019 06:00:00 19.68333 C 70.9167 % 14.26 C
3294 01-07-2019 07:00:00 19.675 C 70.9167 % 14.25 C
3295 01-07-2019 08:00:00 19.79167 C 70.6667 % 14.31 C
3296 01-07-2019 09:00:00 20.24167 C 69.2500 % 14.43 C
3297 01-07-2019 10:00:00 21.20833 C 68.8333 % 15.26 C
3298 01-07-2019 11:00:00 21.78333 C 69.2500 % 15.9 C
3299 01-07-2019 12:00:00 23.16667 C 62.7500 % 15.67 C
3300 01-07-2019 13:00:00 24.89167 C 50.9167 % 14.04 C
Sensor: Nr:Datum:Temp:Feuchte:Taupunkt:
Aussen-T/F 3301 01-07-2019 14:00:00 25.55833 C 51.1667 % 14.73 C
3302 01-07-2019 15:00:00 26.675 C 47.1667 % 14.49 C
3303 01-07-2019 16:00:00 26.89167 C 44.3333 % 13.73 C
3304 01-07-2019 17:00:00 27.04167 C 42.0833 % 13.06 C
3305 01-07-2019 18:00:00 26.3 C 44.0000 % 13.08 C
3306 01-07-2019 19:00:00 25.96667 C 42.7500 % 12.34 C
3307 01-07-2019 20:00:00 24.53333 C 46.6667 % 12.38 C
3308 01-07-2019 21:00:00 22.55833 C 51.1667 % 11.97 C
3309 01-07-2019 22:00:00 20.825 C 57.2500 % 12.06 C
3310 01-07-2019 23:00:00 20.03333 C 59.4167 % 11.89 C
3311 02-07-2019 00:00:00 18.85833 C 63.1667 % 11.71 C
3312 02-07-2019 01:00:00 16.89167 C 70.3333 % 11.46 C
3313 02-07-2019 02:00:00 15.85 C 74.3333 % 11.3 C
3314 02-07-2019 03:00:00 15.49167 C 75.2500 % 11.13 C
3315 02-07-2019 04:00:00 14.525 C 78.8333 % 10.9 C
3316 02-07-2019 05:00:00 13.45 C 83.2500 % 10.67 C
3317 02-07-2019 06:00:00 13.10833 C 85.5000 % 10.73 C
3318 02-07-2019 07:00:00 13.23333 C 87.0000 % 11.12 C
3319 02-07-2019 08:00:00 14.925 C 82.0000 % 11.88 C
3320 02-07-2019 09:00:00 17.48333 C 70.3333 % 12.03 C
3321 02-07-2019 10:00:00 19 C 62.7500 % 11.74 C
3322 02-07-2019 11:00:00 19.60833 C 60.5833 % 11.78 C
3323 02-07-2019 12:00:00 20.48333 C 55.0833 % 11.16 C
3324 02-07-2019 13:00:00 21.46667 C 51.4167 % 11.04 C
3325 02-07-2019 14:00:00 22.31667 C 49.1667 % 11.14 C
Sensor: Nr:Datum:Temp:Feuchte:Taupunkt:
Aussen-T/F 3326 02-07-2019 15:00:00 23.00833 C 47.5833 % 11.28 C
3327 02-07-2019 16:00:00 24.98333 C 40.2500 % 10.55 C
3328 02-07-2019 17:00:00 25.49167 C 38.5000 % 10.33 C
3329 02-07-2019 18:00:00 24.36667 C 41.3333 % 10.39 C
3330 02-07-2019 19:00:00 24.775 C 38.5833 % 9.73 C
3331 02-07-2019 20:00:00 22.95 C 41.7500 % 9.27 C
3332 02-07-2019 21:00:00 20.825 C 48.5833 % 9.6 C
3333 02-07-2019 22:00:00 17.64167 C 58.2500 % 9.35 C
3334 02-07-2019 23:00:00 16.3 C 62.2500 % 9.07 C
3335 03-07-2019 00:00:00 14.80833 C 68.0833 % 8.98 C
3336 03-07-2019 01:00:00 13.23333 C 73.7500 % 8.65 C
3337 03-07-2019 02:00:00 12.30833 C 77.2500 % 8.44 C
3338 03-07-2019 03:00:00 11.475 C 80.5000 % 8.24 C
3339 03-07-2019 04:00:00 10.65 C 83.2500 % 7.93 C
3340 03-07-2019 05:00:00 10.10833 C 85.8333 % 7.85 C
3341 03-07-2019 06:00:00 10.13333 C 88.0000 % 8.24 C
3342 03-07-2019 07:00:00 10.91667 C 88.6667 % 9.12 C
3343 03-07-2019 08:00:00 12.31667 C 86.1667 % 10.07 C
3344 03-07-2019 09:00:00 14.475 C 77.0000 % 10.5 C
3345 03-07-2019 10:00:00 18.01667 C 60.9167 % 10.37 C
3346 03-07-2019 11:00:00 19.95 C 50.8333 % 9.47 C
3347 03-07-2019 12:00:00 20.75833 C 48.7500 % 9.59 C
3348 03-07-2019 13:00:00 21.4 C 46.6667 % 9.52 C
3349 03-07-2019 14:00:00 21.975 C 46.3333 % 9.94 C
3350 03-07-2019 15:00:00 22.625 C 45.1667 % 10.15 C
Sensor: Nr:Datum:Temp:Feuchte:Taupunkt:
Aussen-T/F 3351 03-07-2019 16:00:00 24.44167 C 39.9167 % 9.94 C
3352 03-07-2019 17:00:00 24.56667 C 38.0833 % 9.35 C
3353 03-07-2019 18:00:00 24.70833 C 37.5000 % 9.25 C
3354 03-07-2019 19:00:00 23.79167 C 38.8333 % 8.95 C
3355 03-07-2019 20:00:00 22.35833 C 41.9167 % 8.8 C
3356 03-07-2019 21:00:00 20.40833 C 46.4167 % 8.54 C
3357 03-07-2019 22:00:00 17.54167 C 55.0833 % 8.43 C
3358 03-07-2019 23:00:00 15.46667 C 61.8333 % 8.19 C
3359 04-07-2019 00:00:00 14.2 C 65.9167 % 7.93 C
3360 04-07-2019 01:00:00 13.48333 C 68.0833 % 7.72 C
3361 04-07-2019 02:00:00 12.625 C 71.6667 % 7.65 C
3362 04-07-2019 03:00:00 11.24167 C 77.1667 % 7.39 C
3363 04-07-2019 04:00:00 10.78333 C 79.6667 % 7.42 C
3364 04-07-2019 05:00:00 10.51667 C 81.7500 % 7.53 C
3365 04-07-2019 06:00:00 10.28333 C 83.7500 % 7.66 C
3366 04-07-2019 07:00:00 10.55 C 86.0000 % 8.31 C
3367 04-07-2019 08:00:00 11.76667 C 83.9167 % 9.14 C
3368 04-07-2019 09:00:00 14.4 C 73.1667 % 9.66 C
3369 04-07-2019 10:00:00 18.125 C 56.0833 % 9.24 C
3370 04-07-2019 11:00:00 19.58333 C 49.0833 % 8.61 C
3371 04-07-2019 12:00:00 20.4 C 45.3333 % 8.19 C
3372 04-07-2019 13:00:00 21.63333 C 41.5833 % 8.03 C
3373 04-07-2019 14:00:00 22.71667 C 38.0000 % 7.68 C
3374 04-07-2019 15:00:00 24.7 C 33.5833 % 7.61 C
3375 04-07-2019 16:00:00 26.80833 C 31.4167 % 8.47 C
Sensor: Nr:Datum:Temp:Feuchte:Taupunkt:
Aussen-T/F 3376 04-07-2019 17:00:00 26.9 C 31.9167 % 8.78 C
3377 04-07-2019 18:00:00 27.35 C 30.7500 % 8.62 C
3378 04-07-2019 19:00:00 26.94167 C 31.6667 % 8.7 C
3379 04-07-2019 20:00:00 24.95 C 36.1667 % 8.92 C
3380 04-07-2019 21:00:00 21.60833 C 47.4167 % 9.95 C
3381 04-07-2019 22:00:00 18.56667 C 53.4167 % 8.93 C
3382 04-07-2019 23:00:00 17.39167 C 57.0000 % 8.79 C
3383 05-07-2019 00:00:00 16.41667 C 61.5000 % 9 C
3384 05-07-2019 01:00:00 15.18333 C 65.8333 % 8.84 C
3385 05-07-2019 02:00:00 14.13333 C 69.1667 % 8.57 C
3386 05-07-2019 03:00:00 13.70833 C 73.2500 % 9.01 C
3387 05-07-2019 04:00:00 14.08333 C 73.8333 % 9.49 C
3388 05-07-2019 05:00:00 13.75833 C 74.5833 % 9.33 C
3389 05-07-2019 06:00:00 13.93333 C 76.3333 % 9.84 C
3390 05-07-2019 07:00:00 14.55 C 75.4167 % 10.26 C
3391 05-07-2019 08:00:00 15.8 C 72.5833 % 10.89 C
3392 05-07-2019 09:00:00 17.29167 C 67.5833 % 11.24 C
3393 05-07-2019 10:00:00 20.225 C 58.6667 % 11.87 C
3394 05-07-2019 11:00:00 21.94167 C 53.1667 % 11.98 C
3395 05-07-2019 12:00:00 22.84167 C 50.2500 % 11.95 C
3396 05-07-2019 13:00:00 24.38333 C 45.4167 % 11.83 C
3397 05-07-2019 14:00:00 25.5 C 42.7500 % 11.92 C
3398 05-07-2019 15:00:00 27.45 C 37.8333 % 11.81 C
3399 05-07-2019 16:00:00 28.91667 C 34.8333 % 11.85 C
3400 05-07-2019 17:00:00 29.6 C 33.7500 % 11.97 C
Sensor: Nr:Datum:Temp:Feuchte:Taupunkt:
Aussen-T/F 3401 05-07-2019 18:00:00 29.41667 C 35.0000 % 12.36 C
3402 05-07-2019 19:00:00 27.68333 C 38.6667 % 12.35 C
3403 05-07-2019 20:00:00 26.10833 C 42.6667 % 12.44 C
3404 05-07-2019 21:00:00 23.225 C 52.6667 % 13.02 C
3405 05-07-2019 22:00:00 21.18333 C 58.7500 % 12.79 C
3406 05-07-2019 23:00:00 20.4 C 62.6667 % 13.04 C
3407 06-07-2019 00:00:00 18.45833 C 69.9167 % 12.87 C
3408 06-07-2019 01:00:00 17.60833 C 73.0833 % 12.73 C
3409 06-07-2019 02:00:00 17.05833 C 76.2500 % 12.85 C
3410 06-07-2019 03:00:00 16.875 C 77.5000 % 12.92 C
3411 06-07-2019 04:00:00 16.16667 C 79.6667 % 12.65 C
3412 06-07-2019 05:00:00 15.425 C 81.8333 % 12.34 C
3413 06-07-2019 06:00:00 15.18333 C 84.5833 % 12.61 C
3414 06-07-2019 07:00:00 15.18333 C 85.0833 % 12.7 C
3415 06-07-2019 08:00:00 16.78333 C 81.2500 % 13.55 C
3416 06-07-2019 09:00:00 19.425 C 71.6667 % 14.18 C
3417 06-07-2019 10:00:00 22.16667 C 62.5000 % 14.67 C
3418 06-07-2019 11:00:00 24.41667 C 52.9167 % 14.19 C
3419 06-07-2019 12:00:00 25.48333 C 50.0000 % 14.3 C
3420 06-07-2019 13:00:00 26.84167 C 43.5000 % 13.39 C
3421 06-07-2019 14:00:00 28.7 C 32.0833 % 10.42 C
3422 06-07-2019 15:00:00 30.95833 C 22.5833 % 7.15 C
3423 06-07-2019 16:00:00 29.08333 C 21.6667 % 5 C
3424 06-07-2019 17:00:00 27.89167 C 28.8333 % 8.14 C
3425 06-07-2019 18:00:00 22.825 C 51.7500 % 12.38 C
Sensor: Nr:Datum:Temp:Feuchte:Taupunkt:
Aussen-T/F 3426 06-07-2019 19:00:00 21.60833 C 55.9167 % 12.44 C
3427 06-07-2019 20:00:00 20.35833 C 64.4167 % 13.43 C
3428 06-07-2019 21:00:00 19.75833 C 66.8333 % 13.42 C
3429 06-07-2019 22:00:00 19.86667 C 71.1667 % 14.49 C
3430 06-07-2019 23:00:00 20.35833 C 71.4167 % 15.02 C
3431 07-07-2019 00:00:00 18.93333 C 74.1667 % 14.23 C
3432 07-07-2019 01:00:00 17.88333 C 77.4167 % 13.88 C
3433 07-07-2019 02:00:00 17.33333 C 74.5000 % 12.76 C
3434 07-07-2019 03:00:00 17 C 75.5833 % 12.66 C
3435 07-07-2019 04:00:00 16.825 C 75.8333 % 12.54 C
3436 07-07-2019 05:00:00 16.35 C 79.9167 % 12.88 C
3437 07-07-2019 06:00:00 14.99167 C 89.7500 % 13.32 C
3438 07-07-2019 07:00:00 14.65 C 92.9167 % 13.52 C
3439 07-07-2019 08:00:00 14.28333 C 93.7500 % 13.29 C
3440 07-07-2019 09:00:00 14.78333 C 94.1667 % 13.85 C
3441 07-07-2019 10:00:00 15.38333 C 86.1667 % 13.08 C
3442 07-07-2019 11:00:00 16.50833 C 75.4167 % 12.15 C
3443 07-07-2019 12:00:00 17.73333 C 67.5833 % 11.66 C
3444 07-07-2019 13:00:00 18.5 C 62.4167 % 11.19 C
3445 07-07-2019 14:00:00 19.25833 C 55.6667 % 10.18 C
3446 07-07-2019 15:00:00 20.91667 C 48.5000 % 9.66 C
3447 07-07-2019 16:00:00 21.78333 C 43.6667 % 8.89 C
3448 07-07-2019 17:00:00 21.475 C 44.0833 % 8.75 C
3449 07-07-2019 18:00:00 21.775 C 44.4167 % 9.13 C
3450 07-07-2019 19:00:00 21.325 C 44.5000 % 8.75 C
Sensor: Nr:Datum:Temp:Feuchte:Taupunkt:
Aussen-T/F 3451 07-07-2019 20:00:00 20 C 48.0000 % 8.67 C
3452 07-07-2019 21:00:00 18.65 C 52.5833 % 8.77 C
3453 07-07-2019 22:00:00 15.64167 C 66.2500 % 9.37 C
3454 07-07-2019 23:00:00 13.85 C 73.9167 % 9.28 C
3455 08-07-2019 00:00:00 12.875 C 77.5000 % 9.04 C
3456 08-07-2019 01:00:00 11.89167 C 81.2500 % 8.78 C
3457 08-07-2019 02:00:00 11.05 C 83.7500 % 8.41 C
3458 08-07-2019 03:00:00 10.94167 C 83.5000 % 8.26 C
3459 08-07-2019 04:00:00 10.78333 C 83.9167 % 8.18 C
3460 08-07-2019 05:00:00 9.89167 C 86.7500 % 7.79 C
3461 08-07-2019 06:00:00 9.55833 C 89.5833 % 7.93 C
3462 08-07-2019 07:00:00 9.975 C 91.0000 % 8.58 C
3463 08-07-2019 08:00:00 11.225 C 90.0833 % 9.66 C
3464 08-07-2019 09:00:00 14.18333 C 73.8333 % 9.59 C
3465 08-07-2019 10:00:00 15.65833 C 62.6667 % 8.57 C
3466 08-07-2019 11:00:00 16.14167 C 61.8333 % 8.82 C
3467 08-07-2019 12:00:00 16.68333 C 59.5833 % 8.79 C
3468 08-07-2019 13:00:00 17.05833 C 58.1667 % 8.78 C
3469 08-07-2019 14:00:00 17.33333 C 57.6667 % 8.91 C
3470 08-07-2019 15:00:00 17.49167 C 57.8333 % 9.1 C
3471 08-07-2019 16:00:00 18.025 C 57.0000 % 9.39 C
3472 08-07-2019 17:00:00 18.16667 C 57.1667 % 9.56 C
3473 08-07-2019 18:00:00 18.04167 C 57.2500 % 9.47 C
3474 08-07-2019 19:00:00 17.75833 C 58.0833 % 9.42 C
3475 08-07-2019 20:00:00 17.69167 C 58.5000 % 9.46 C
Sensor: Nr:Datum:Temp:Feuchte:Taupunkt:
Aussen-T/F 3476 08-07-2019 21:00:00 16.26667 C 65.0833 % 9.7 C
3477 08-07-2019 22:00:00 13.975 C 74.8333 % 9.59 C
3478 08-07-2019 23:00:00 14.11667 C 75.4167 % 9.84 C
3479 09-07-2019 00:00:00 13.29167 C 79.3333 % 9.79 C
3480 09-07-2019 01:00:00 12.7 C 81.4167 % 9.6 C
3481 09-07-2019 02:00:00 11.88333 C 83.8333 % 9.24 C
3482 09-07-2019 03:00:00 11.11667 C 87.1667 % 9.07 C
3483 09-07-2019 04:00:00 10.43333 C 88.3333 % 8.59 C
3484 09-07-2019 05:00:00 9.80833 C 90.1667 % 8.28 C
3485 09-07-2019 06:00:00 9.725 C 91.2500 % 8.37 C
3486 09-07-2019 07:00:00 10.91667 C 90.6667 % 9.45 C
3487 09-07-2019 08:00:00 12.98333 C 81.4167 % 9.88 C
3488 09-07-2019 09:00:00 14.2 C 75.8333 % 10 C
3489 09-07-2019 10:00:00 14.9 C 70.6667 % 9.62 C
3490 09-07-2019 11:00:00 16.09167 C 60.4167 % 8.44 C
3491 09-07-2019 12:00:00 16.86667 C 56.6667 % 8.22 C
3492 09-07-2019 13:00:00 17.68333 C 52.4167 % 7.83 C
3493 09-07-2019 14:00:00 18.6 C 49.1667 % 7.74 C
3494 09-07-2019 15:00:00 19.73333 C 45.9167 % 7.77 C
3495 09-07-2019 16:00:00 20.475 C 43.7500 % 7.73 C
3496 09-07-2019 17:00:00 21.725 C 39.5000 % 7.36 C
3497 09-07-2019 18:00:00 21.06667 C 39.7500 % 6.86 C
3498 09-07-2019 19:00:00 20.98333 C 40.7500 % 7.15 C
3499 09-07-2019 20:00:00 19.525 C 46.5000 % 7.76 C
3500 09-07-2019 21:00:00 17.04167 C 56.8333 % 8.42 C
Sensor: Nr:Datum:Temp:Feuchte:Taupunkt:
Aussen-T/F 3501 09-07-2019 22:00:00 14.95 C 62.5000 % 7.86 C
3502 09-07-2019 23:00:00 13.10833 C 71.8333 % 8.15 C
3503 10-07-2019 00:00:00 12.05 C 75.0833 % 7.78 C
3504 10-07-2019 01:00:00 11.01667 C 78.0000 % 7.33 C
3505 10-07-2019 02:00:00 10.01667 C 81.1667 % 6.94 C
3506 10-07-2019 03:00:00 9.05 C 84.6667 % 6.61 C
3507 10-07-2019 04:00:00 8.5 C 87.0000 % 6.46 C
3508 10-07-2019 05:00:00 8.23333 C 88.5833 % 6.46 C
3509 10-07-2019 06:00:00 8.10833 C 89.7500 % 6.53 C
3510 10-07-2019 07:00:00 8.46667 C 90.5833 % 7.02 C
3511 10-07-2019 08:00:00 10 C 90.1667 % 8.46 C
3512 10-07-2019 09:00:00 12.49167 C 81.8333 % 9.48 C
3513 10-07-2019 10:00:00 16.09167 C 68.5000 % 10.3 C
3514 10-07-2019 11:00:00 18.40833 C 54.5833 % 9.1 C
3515 10-07-2019 12:00:00 19.80833 C 42.6667 % 6.77 C
3516 10-07-2019 13:00:00 21.15833 C 35.4167 % 5.28 C
3517 10-07-2019 14:00:00 22.70833 C 30.8333 % 4.65 C
3518 10-07-2019 15:00:00 24.41667 C 28.2500 % 4.87 C
3519 10-07-2019 16:00:00 25.66667 C 26.6667 % 5.11 C
3520 10-07-2019 17:00:00 26.63333 C 25.4167 % 5.24 C
3521 10-07-2019 18:00:00 26.76667 C 25.7500 % 5.54 C
3522 10-07-2019 19:00:00 25.75 C 28.0833 % 5.92 C
3523 10-07-2019 20:00:00 23.525 C 33.6667 % 6.62 C
3524 10-07-2019 21:00:00 20.74167 C 43.3333 % 7.83 C
3525 10-07-2019 22:00:00 19.21667 C 48.2500 % 8.03 C
Sensor: Nr:Datum:Temp:Feuchte:Taupunkt:
Aussen-T/F 3526 10-07-2019 23:00:00 18.9 C 52.0000 % 8.84 C
3527 11-07-2019 00:00:00 19.10833 C 54.4167 % 9.7 C
3528 11-07-2019 01:00:00 17.8 C 61.0833 % 10.21 C
3529 11-07-2019 02:00:00 17.175 C 65.8333 % 10.74 C
3530 11-07-2019 03:00:00 16.875 C 70.1667 % 11.41 C
3531 11-07-2019 04:00:00 16.59167 C 72.6667 % 11.67 C
3532 11-07-2019 05:00:00 16.34167 C 73.1667 % 11.53 C
3533 11-07-2019 06:00:00 16.39167 C 74.2500 % 11.8 C
3534 11-07-2019 07:00:00 17.23333 C 71.7500 % 12.09 C
3535 11-07-2019 08:00:00 17.85833 C 69.0000 % 12.1 C
3536 11-07-2019 09:00:00 18.675 C 68.5000 % 12.77 C
3537 11-07-2019 10:00:00 18.7 C 70.6667 % 13.27 C
3538 11-07-2019 11:00:00 18.9 C 69.5000 % 13.2 C
3539 11-07-2019 12:00:00 17.35 C 81.9167 % 14.23 C
3540 11-07-2019 13:00:00 16.31667 C 90.8333 % 14.82 C
3541 11-07-2019 14:00:00 16.79167 C 92.7500 % 15.61 C
3542 11-07-2019 15:00:00 17.575 C 92.5000 % 16.35 C
3543 11-07-2019 16:00:00 19.11667 C 89.3333 % 17.32 C
3544 11-07-2019 17:00:00 20.88333 C 84.5000 % 18.17 C
3545 11-07-2019 18:00:00 19.50833 C 90.0833 % 17.84 C
3546 11-07-2019 19:00:00 18.3 C 93.0833 % 17.16 C
3547 11-07-2019 20:00:00 18.04167 C 94.0000 % 17.06 C
3548 11-07-2019 21:00:00 17.44167 C 94.0000 % 16.47 C
3549 11-07-2019 22:00:00 16.85 C 94.9167 % 16.03 C
3550 11-07-2019 23:00:00 16.43333 C 95.0833 % 15.64 C
Sensor: Nr:Datum:Temp:Feuchte:Taupunkt:
Aussen-T/F 3551 12-07-2019 00:00:00 16.05 C 96.0000 % 15.41 C
3552 12-07-2019 01:00:00 15.70833 C 96.0000 % 15.07 C
3553 12-07-2019 02:00:00 15.34167 C 96.0000 % 14.71 C
3554 12-07-2019 03:00:00 15.31667 C 96.5000 % 14.76 C
3555 12-07-2019 04:00:00 14.93333 C 96.4167 % 14.37 C
3556 12-07-2019 05:00:00 14.58333 C 97.0000 % 14.11 C
3557 12-07-2019 06:00:00 14.75833 C 97.0000 % 14.29 C
3558 12-07-2019 07:00:00 15.73333 C 97.1667 % 15.29 C
3559 12-07-2019 08:00:00 16.45833 C 97.0833 % 15.99 C
3560 12-07-2019 09:00:00 17.45 C 97.4167 % 17.04 C
3561 12-07-2019 10:00:00 18.78333 C 95.0000 % 17.97 C
3562 12-07-2019 11:00:00 20.325 C 88.7500 % 18.41 C
3563 12-07-2019 12:00:00 19.04167 C 91.7500 % 17.67 C
3564 12-07-2019 13:00:00 17.98333 C 94.2500 % 17.05 C
3565 12-07-2019 14:00:00 17.70833 C 94.1667 % 16.76 C
3566 12-07-2019 15:00:00 19.6 C 89.0833 % 17.75 C
3567 12-07-2019 16:00:00 20.76667 C 86.8333 % 18.49 C
3568 12-07-2019 17:00:00 19.975 C 79.9167 % 16.4 C
3569 12-07-2019 18:00:00 18.30833 C 84.9167 % 15.73 C
3570 12-07-2019 19:00:00 17.55833 C 87.6667 % 15.49 C
3571 12-07-2019 20:00:00 18.23333 C 88.2500 % 16.26 C
3572 12-07-2019 21:00:00 17.63333 C 87.0000 % 15.44 C
3573 12-07-2019 22:00:00 17.3 C 86.2500 % 14.98 C
3574 12-07-2019 23:00:00 16.55 C 88.3333 % 14.61 C
3575 13-07-2019 00:00:00 16.34167 C 86.6667 % 14.11 C
Sensor: Nr:Datum:Temp:Feuchte:Taupunkt:
Aussen-T/F 3576 13-07-2019 01:00:00 16.13333 C 89.9167 % 14.48 C
3577 13-07-2019 02:00:00 15.51667 C 94.0000 % 14.56 C
3578 13-07-2019 03:00:00 15.175 C 94.9167 % 14.37 C
3579 13-07-2019 04:00:00 14.99167 C 95.0833 % 14.21 C
3580 13-07-2019 05:00:00 14.90833 C 96.0000 % 14.28 C
3581 13-07-2019 06:00:00 14.75 C 96.0000 % 14.12 C
3582 13-07-2019 07:00:00 14.93333 C 96.1667 % 14.33 C
3583 13-07-2019 08:00:00 15.61667 C 96.1667 % 15.01 C
3584 13-07-2019 09:00:00 15.83333 C 95.5000 % 15.12 C
3585 13-07-2019 10:00:00 16.5 C 91.0000 % 15.03 C
3586 13-07-2019 11:00:00 17.51667 C 88.3333 % 15.57 C
3587 13-07-2019 12:00:00 18.75833 C 81.5000 % 15.53 C
3588 13-07-2019 13:00:00 19.725 C 75.9167 % 15.36 C
3589 13-07-2019 14:00:00 21.15 C 69.2500 % 15.3 C
3590 13-07-2019 15:00:00 21.18333 C 71.0833 % 15.74 C
3591 13-07-2019 16:00:00 20.90833 C 68.9167 % 14.99 C
3592 13-07-2019 17:00:00 21.84167 C 67.1667 % 15.48 C
3593 13-07-2019 18:00:00 22.38333 C 64.2500 % 15.3 C
3594 13-07-2019 19:00:00 22.70833 C 63.0000 % 15.3 C
3595 13-07-2019 20:00:00 20.45833 C 70.1667 % 14.84 C
3596 13-07-2019 21:00:00 19.2 C 77.2500 % 15.12 C
3597 13-07-2019 22:00:00 18.225 C 85.0833 % 15.68 C
3598 13-07-2019 23:00:00 17.21667 C 89.5833 % 15.49 C
3599 14-07-2019 00:00:00 16.95 C 89.7500 % 15.26 C
3600 14-07-2019 01:00:00 16.975 C 88.5833 % 15.08 C
Sensor: Nr:Datum:Temp:Feuchte:Taupunkt:
Aussen-T/F 3601 14-07-2019 02:00:00 16.35833 C 89.6667 % 14.66 C
3602 14-07-2019 03:00:00 15.44167 C 90.9167 % 13.97 C
3603 14-07-2019 04:00:00 15.11667 C 90.9167 % 13.64 C
3604 14-07-2019 05:00:00 14.85 C 90.2500 % 13.27 C
3605 14-07-2019 06:00:00 14.71667 C 90.9167 % 13.25 C
3606 14-07-2019 07:00:00 14.86667 C 86.8333 % 12.69 C
3607 14-07-2019 08:00:00 15.40833 C 85.3333 % 12.96 C
3608 14-07-2019 09:00:00 15.26667 C 84.1667 % 12.61 C
3609 14-07-2019 10:00:00 16.00833 C 77.7500 % 12.13 C
3610 14-07-2019 11:00:00 16.83333 C 73.1667 % 12 C
3611 14-07-2019 12:00:00 17.53333 C 69.4167 % 11.88 C
3612 14-07-2019 13:00:00 17.80833 C 66.8333 % 11.57 C
3613 14-07-2019 14:00:00 18.19167 C 64.3333 % 11.35 C
3614 14-07-2019 15:00:00 18.925 C 61.0833 % 11.26 C
3615 14-07-2019 16:00:00 19.33333 C 58.8333 % 11.08 C
3616 14-07-2019 17:00:00 19.34167 C 58.5833 % 11.03 C
3617 14-07-2019 18:00:00 18.65833 C 61.8333 % 11.2 C
3618 14-07-2019 19:00:00 18.36667 C 62.0000 % 10.96 C
3619 14-07-2019 20:00:00 17.89167 C 66.0000 % 11.46 C
3620 14-07-2019 21:00:00 17.45 C 67.4167 % 11.36 C
3621 14-07-2019 22:00:00 17.125 C 68.0833 % 11.19 C
3622 14-07-2019 23:00:00 16.8 C 71.0833 % 11.53 C
3623 15-07-2019 00:00:00 16.06667 C 76.7500 % 11.99 C
3624 15-07-2019 01:00:00 15.63333 C 78.7500 % 11.96 C
3625 15-07-2019 02:00:00 15.55833 C 80.3333 % 12.19 C
Sensor: Nr:Datum:Temp:Feuchte:Taupunkt:
Aussen-T/F 3626 15-07-2019 03:00:00 14.99167 C 83.5000 % 12.22 C
3627 15-07-2019 04:00:00 15.30833 C 78.2500 % 11.55 C
3628 15-07-2019 05:00:00 15.65 C 74.4167 % 11.12 C
3629 15-07-2019 06:00:00 15.6 C 74.1667 % 11.02 C
3630 15-07-2019 07:00:00 15.69167 C 74.0000 % 11.07 C
3631 15-07-2019 08:00:00 15.83333 C 74.0833 % 11.23 C
3632 15-07-2019 09:00:00 16.53333 C 71.4167 % 11.35 C
3633 15-07-2019 10:00:00 16.8 C 72.1667 % 11.76 C
3634 15-07-2019 11:00:00 16.84167 C 74.4167 % 12.27 C
3635 15-07-2019 12:00:00 17.10833 C 72.8333 % 12.2 C
3636 15-07-2019 13:00:00 17.49167 C 69.7500 % 11.91 C
3637 15-07-2019 14:00:00 18.09167 C 66.3333 % 11.72 C
3638 15-07-2019 15:00:00 17.68333 C 67.9167 % 11.69 C
3639 15-07-2019 16:00:00 17.11667 C 70.5000 % 11.71 C
3640 15-07-2019 17:00:00 16.775 C 71.6667 % 11.63 C
3641 15-07-2019 18:00:00 16.69167 C 71.5833 % 11.54 C
3642 15-07-2019 19:00:00 16.78333 C 71.0000 % 11.5 C
3643 15-07-2019 20:00:00 16.69167 C 71.0833 % 11.43 C
3644 15-07-2019 21:00:00 16.34167 C 73.9167 % 11.68 C
3645 15-07-2019 22:00:00 15.61667 C 79.5000 % 12.09 C
3646 15-07-2019 23:00:00 15.44167 C 77.2500 % 11.48 C
3647 16-07-2019 00:00:00 14.75 C 79.8333 % 11.31 C
3648 16-07-2019 01:00:00 13.675 C 80.3333 % 10.35 C
3649 16-07-2019 02:00:00 12.23333 C 85.5000 % 9.88 C
3650 16-07-2019 03:00:00 10.9 C 90.2500 % 9.37 C
Sensor: Nr:Datum:Temp:Feuchte:Taupunkt:
Aussen-T/F 3651 16-07-2019 04:00:00 10.28333 C 92.2500 % 9.08 C
3652 16-07-2019 05:00:00 9.98333 C 93.1667 % 8.93 C
3653 16-07-2019 06:00:00 10.125 C 94.4167 % 9.27 C
3654 16-07-2019 07:00:00 11.01667 C 93.7500 % 10.05 C
3655 16-07-2019 08:00:00 12.625 C 90.7500 % 11.15 C
3656 16-07-2019 09:00:00 14.58333 C 84.1667 % 11.94 C
3657 16-07-2019 10:00:00 15.51667 C 77.5000 % 11.6 C
3658 16-07-2019 11:00:00 15.99167 C 74.6667 % 11.5 C
3659 16-07-2019 12:00:00 16.725 C 71.8333 % 11.62 C
3660 16-07-2019 13:00:00 17.40833 C 69.4167 % 11.76 C
3661 16-07-2019 14:00:00 18.38333 C 66.5000 % 12.04 C
3662 16-07-2019 15:00:00 20.325 C 60.9167 % 12.54 C
3663 16-07-2019 16:00:00 22.31667 C 54.8333 % 12.8 C
3664 16-07-2019 17:00:00 22.8 C 53.0833 % 12.75 C
3665 16-07-2019 18:00:00 23.075 C 52.0000 % 12.69 C
3666 16-07-2019 19:00:00 22.125 C 54.1667 % 12.43 C
3667 16-07-2019 20:00:00 20.81667 C 58.3333 % 12.34 C
3668 16-07-2019 21:00:00 18.30833 C 70.1667 % 12.78 C
3669 16-07-2019 22:00:00 15.85 C 78.8333 % 12.18 C
3670 16-07-2019 23:00:00 15.08333 C 81.7500 % 11.99 C
3671 17-07-2019 00:00:00 14.09167 C 84.3333 % 11.49 C
3672 17-07-2019 01:00:00 13.08333 C 88.2500 % 11.19 C
3673 17-07-2019 02:00:00 12.40833 C 89.7500 % 10.77 C
3674 17-07-2019 03:00:00 11.64167 C 91.5833 % 10.32 C
3675 17-07-2019 04:00:00 11.225 C 92.8333 % 10.11 C
Sensor: Nr:Datum:Temp:Feuchte:Taupunkt:
Aussen-T/F 3676 17-07-2019 05:00:00 10.83333 C 93.7500 % 9.87 C
3677 17-07-2019 06:00:00 10.74167 C 94.5000 % 9.9 C
3678 17-07-2019 07:00:00 11.51667 C 95.0833 % 10.76 C
3679 17-07-2019 08:00:00 12.79167 C 94.5000 % 11.93 C
3680 17-07-2019 09:00:00 14.85833 C 88.5833 % 12.99 C
3681 17-07-2019 10:00:00 17.23333 C 77.4167 % 13.25 C
3682 17-07-2019 11:00:00 18.58333 C 71.6667 % 13.37 C
3683 17-07-2019 12:00:00 19.39167 C 68.7500 % 13.51 C
3684 17-07-2019 13:00:00 20.5 C 62.9167 % 13.2 C
3685 17-07-2019 14:00:00 21.69167 C 58.9167 % 13.31 C
3686 17-07-2019 15:00:00 22.69167 C 58.0000 % 14.01 C
3687 17-07-2019 16:00:00 23.675 C 54.9167 % 14.08 C
3688 17-07-2019 17:00:00 24.575 C 53.0000 % 14.36 C
3689 17-07-2019 18:00:00 24.24167 C 54.1667 % 14.39 C
3690 17-07-2019 19:00:00 23.20833 C 58.5000 % 14.62 C
3691 17-07-2019 20:00:00 21.525 C 64.2500 % 14.49 C
3692 17-07-2019 21:00:00 19.69167 C 70.6667 % 14.22 C
3693 17-07-2019 22:00:00 17.05 C 80.0000 % 13.58 C
3694 17-07-2019 23:00:00 16.025 C 84.5000 % 13.41 C
3695 18-07-2019 00:00:00 15.29167 C 86.0833 % 12.98 C
3696 18-07-2019 01:00:00 14.29167 C 88.5000 % 12.42 C
3697 18-07-2019 02:00:00 13.69167 C 91.2500 % 12.29 C
3698 18-07-2019 03:00:00 13.45833 C 92.2500 % 12.23 C
3699 18-07-2019 04:00:00 13.24167 C 92.9167 % 12.12 C
3700 18-07-2019 05:00:00 12.675 C 93.0833 % 11.59 C
Sensor: Nr:Datum:Temp:Feuchte:Taupunkt:
Aussen-T/F 3701 18-07-2019 06:00:00 12.45833 C 94.3333 % 11.57 C
3702 18-07-2019 07:00:00 13.25833 C 95.0000 % 12.48 C
3703 18-07-2019 08:00:00 14.31667 C 93.1667 % 13.23 C
3704 18-07-2019 09:00:00 16.21667 C 89.0833 % 14.42 C
3705 18-07-2019 10:00:00 18.83333 C 81.3333 % 15.57 C
3706 18-07-2019 11:00:00 21.89167 C 64.4167 % 14.88 C
3707 18-07-2019 12:00:00 24.18333 C 54.1667 % 14.34 C
3708 18-07-2019 13:00:00 25.71667 C 49.0833 % 14.23 C
3709 18-07-2019 14:00:00 27.20833 C 41.0833 % 12.85 C
3710 18-07-2019 15:00:00 26.04167 C 44.9167 % 13.16 C
3711 18-07-2019 16:00:00 24.76667 C 52.4167 % 14.37 C
3712 18-07-2019 17:00:00 24.84167 C 56.0833 % 15.49 C
3713 18-07-2019 18:00:00 23.975 C 62.7500 % 16.44 C
3714 18-07-2019 19:00:00 21.06667 C 74.2500 % 16.31 C
3715 18-07-2019 20:00:00 20.86667 C 70.0000 % 15.19 C
3716 18-07-2019 21:00:00 20.35 C 69.0833 % 14.49 C
3717 18-07-2019 22:00:00 19.66667 C 71.6667 % 14.41 C
3718 18-07-2019 23:00:00 19.35833 C 72.5000 % 14.29 C
3719 19-07-2019 00:00:00 19.33333 C 74.0833 % 14.6 C
3720 19-07-2019 01:00:00 18.45833 C 82.4167 % 15.41 C
3721 19-07-2019 02:00:00 17.05833 C 89.9167 % 15.39 C
3722 19-07-2019 03:00:00 16.60833 C 92.3333 % 15.36 C
3723 19-07-2019 04:00:00 16.375 C 93.4167 % 15.31 C
3724 19-07-2019 05:00:00 16.3 C 94.1667 % 15.36 C
3725 19-07-2019 06:00:00 16.35 C 95.0000 % 15.55 C
Sensor: Nr:Datum:Temp:Feuchte:Taupunkt:
Aussen-T/F 3726 19-07-2019 07:00:00 16.7 C 95.2500 % 15.94 C
3727 19-07-2019 08:00:00 17.23333 C 96.0000 % 16.59 C
3728 19-07-2019 09:00:00 18.025 C 94.8333 % 17.18 C
3729 19-07-2019 10:00:00 19.275 C 90.3333 % 17.65 C
3730 19-07-2019 11:00:00 20.475 C 83.6667 % 17.62 C
3731 19-07-2019 12:00:00 20.04167 C 86.1667 % 17.66 C
3732 19-07-2019 13:00:00 21.975 C 74.8333 % 17.31 C
3733 19-07-2019 14:00:00 23.525 C 60.9167 % 15.55 C
3734 19-07-2019 15:00:00 24.875 C 52.8333 % 14.59 C
3735 19-07-2019 16:00:00 25.21667 C 50.5833 % 14.23 C
3736 19-07-2019 17:00:00 25.91667 C 49.5833 % 14.57 C
3737 19-07-2019 18:00:00 25.43333 C 51.0833 % 14.59 C
3738 19-07-2019 19:00:00 24.78333 C 60.1667 % 16.54 C
3739 19-07-2019 20:00:00 23.25833 C 64.2500 % 16.13 C
3740 19-07-2019 21:00:00 20.90833 C 71.5833 % 15.58 C
3741 19-07-2019 22:00:00 19.20833 C 79.0833 % 15.5 C
3742 19-07-2019 23:00:00 18.525 C 82.9167 % 15.57 C
3743 20-07-2019 00:00:00 17.39167 C 86.1667 % 15.06 C
3744 20-07-2019 01:00:00 16.6 C 88.2500 % 14.65 C
3745 20-07-2019 02:00:00 15.74167 C 90.5000 % 14.19 C
3746 20-07-2019 03:00:00 15.025 C 92.4167 % 13.81 C
3747 20-07-2019 04:00:00 14.55833 C 93.4167 % 13.51 C
3748 20-07-2019 05:00:00 14.18333 C 94.0833 % 13.25 C
3749 20-07-2019 06:00:00 13.96667 C 94.9167 % 13.17 C
3750 20-07-2019 07:00:00 14.56667 C 95.7500 % 13.9 C
Sensor: Nr:Datum:Temp:Feuchte:Taupunkt:
Aussen-T/F 3751 20-07-2019 08:00:00 15.86667 C 96.0000 % 15.23 C
3752 20-07-2019 09:00:00 17.73333 C 94.8333 % 16.89 C
3753 20-07-2019 10:00:00 21.4 C 87.2500 % 19.19 C
3754 20-07-2019 11:00:00 25.8 C 63.2500 % 18.28 C
3755 20-07-2019 12:00:00 27.775 C 51.4167 % 16.84 C
3756 20-07-2019 13:00:00 28.175 C 50.5000 % 16.92 C
3757 20-07-2019 14:00:00 30.04167 C 45.4167 % 16.95 C
3758 20-07-2019 15:00:00 30.8 C 43.7500 % 17.04 C
3759 20-07-2019 16:00:00 28.94167 C 64.4167 % 21.55 C
3760 20-07-2019 17:00:00 28.35 C 60.9167 % 20.08 C
3761 20-07-2019 18:00:00 28.925 C 49.3333 % 17.24 C
3762 20-07-2019 19:00:00 27.50833 C 53.5833 % 17.25 C
3763 20-07-2019 20:00:00 23.425 C 69.5833 % 17.55 C
3764 20-07-2019 21:00:00 21.725 C 76.0833 % 17.33 C
3765 20-07-2019 22:00:00 20.56667